[[{"header":{"parameterUnit":"m.s-1","parameterCategory":1,"la1":30.6,"la2":29.2853,"lo1":-89.7004,"lo2":-87.6739,"dy":0.0162,"dx":0.0183,"nx":112,"ny":82,"refTime":"2024-04-30T12:00:00:Z","depth":0,"parameterNumber":2,"parameterNumberName":"U-component_of_WINDS"},"data":[0.0,0.0,0.0,0.0,0.0,0.0,0.0,0.0,0.0,0.0,0.0,0.0,0.0,0.0,0.0,0.0,0.0,0.0,0.0,0.0,0.0,0.0,0.0,0.0,0.0,0.0,0.0,0.0,0.0,0.0,0.0,0.0,0.0,0.0,0.0,0.0,0.0,0.0,0.0,0.0,0.0,0.0,0.0,0.0,0.0,0.0,0.0,0.0,0.0,0.0,0.0,0.0,0.0,0.0,0.0,0.0,0.0,0.0,0.0,0.0,0.0,0.0,0.0,0.0,0.0,0.0,0.0,0.0,0.0,0.0,0.0,0.0,0.0,0.0,0.0,0.0,0.0,0.0,0.0,0.0,0.0,0.0,0.0,0.0,0.0,0.0,0.0,0.0,0.0,0.0,-5.1293,-5.3304,-5.5664,-5.7404,-5.8139,-5.8062,-5.6283,-5.226,0.0,0.0,0.0,0.0,0.0,0.0,0.0,0.0,0.0,0.0,0.0,0.0,0.0,0.0,0.0,0.0,0.0,0.0,0.0,0.0,0.0,0.0,0.0,0.0,0.0,0.0,0.0,0.0,0.0,0.0,0.0,0.0,0.0,0.0,0.0,0.0,0.0,0.0,0.0,0.0,0.0,0.0,0.0,0.0,0.0,0.0,0.0,0.0,0.0,0.0,0.0,0.0,0.0,0.0,0.0,0.0,0.0,0.0,0.0,0.0,0.0,0.0,0.0,0.0,0.0,0.0,0.0,0.0,0.0,0.0,0.0,0.0,0.0,0.0,0.0,0.0,0.0,0.0,0.0,0.0,0.0,0.0,0.0,0.0,0.0,0.0,0.0,0.0,0.0,0.0,0.0,0.0,0.0,0.0,0.0,0.0,0.0,0.0,0.0,0.0,0.0,0.0,0.0,0.0,-4.9977,-5.3149,-5.5122,-5.6244,-5.6399,-5.578,-5.4155,-5.1285,0.0,0.0,0.0,0.0,0.0,0.0,0.0,0.0,0.0,0.0,0.0,0.0,0.0,0.0,0.0,0.0,0.0,0.0,0.0,0.0,0.0,0.0,0.0,0.0,0.0,0.0,0.0,0.0,0.0,0.0,0.0,0.0,0.0,0.0,0.0,0.0,0.0,0.0,0.0,0.0,0.0,0.0,0.0,0.0,0.0,0.0,0.0,0.0,0.0,0.0,0.0,0.0,0.0,0.0,0.0,0.0,0.0,0.0,0.0,0.0,0.0,0.0,0.0,0.0,0.0,0.0,0.0,0.0,0.0,0.0,0.0,0.0,0.0,0.0,0.0,0.0,0.0,0.0,0.0,0.0,0.0,0.0,0.0,0.0,0.0,0.0,0.0,0.0,0.0,0.0,0.0,0.0,0.0,0.0,0.0,0.0,0.0,0.0,0.0,0.0,0.0,0.0,0.0,-4.9288,-5.0248,-5.3188,-5.3768,-5.4116,-5.4619,-5.3884,-5.2492,-5.0403,-5.0171,0.0,0.0,0.0,0.0,0.0,0.0,0.0,0.0,0.0,0.0,0.0,0.0,0.0,0.0,0.0,0.0,0.0,0.0,0.0,0.0,0.0,0.0,0.0,0.0,0.0,0.0,0.0,0.0,0.0,0.0,0.0,0.0,0.0,0.0,0.0,0.0,0.0,0.0,0.0,0.0,0.0,0.0,0.0,0.0,0.0,0.0,0.0,0.0,0.0,0.0,0.0,0.0,0.0,0.0,0.0,0.0,0.0,0.0,0.0,0.0,0.0,0.0,0.0,0.0,0.0,0.0,0.0,0.0,0.0,0.0,0.0,0.0,0.0,0.0,0.0,0.0,0.0,0.0,0.0,0.0,0.0,0.0,0.0,0.0,0.0,0.0,0.0,0.0,0.0,0.0,0.0,0.0,0.0,0.0,0.0,0.0,0.0,0.0,0.0,0.0,0.0,0.0,-5.0109,-5.0751,-5.2685,-5.2453,-5.2376,-5.284,-5.226,-5.1177,-4.9513,-4.8585,0.0,0.0,0.0,0.0,0.0,0.0,0.0,0.0,0.0,0.0,0.0,0.0,0.0,0.0,0.0,0.0,0.0,0.0,0.0,0.0,0.0,0.0,0.0,0.0,0.0,0.0,0.0,0.0,0.0,0.0,0.0,0.0,0.0,0.0,0.0,0.0,0.0,0.0,0.0,0.0,0.0,0.0,0.0,0.0,0.0,0.0,0.0,0.0,0.0,0.0,0.0,0.0,0.0,0.0,0.0,0.0,0.0,0.0,0.0,0.0,0.0,0.0,0.0,0.0,0.0,0.0,0.0,0.0,0.0,0.0,0.0,0.0,0.0,0.0,0.0,0.0,0.0,0.0,0.0,0.0,0.0,0.0,0.0,0.0,0.0,0.0,0.0,0.0,0.0,0.0,0.0,0.0,0.0,0.0,0.0,0.0,0.0,0.0,0.0,0.0,0.0,0.0,-4.9829,-5.0859,-5.1053,-5.1757,-5.1912,-5.113,-5.1014,-5.0279,-4.8585,-4.7657,0.0,0.0,0.0,0.0,0.0,0.0,0.0,0.0,0.0,0.0,0.0,0.0,0.0,0.0,0.0,0.0,0.0,0.0,0.0,0.0,0.0,0.0,0.0,0.0,0.0,0.0,0.0,0.0,0.0,0.0,0.0,0.0,0.0,0.0,0.0,0.0,0.0,0.0,0.0,0.0,0.0,0.0,0.0,0.0,0.0,0.0,0.0,0.0,0.0,0.0,0.0,0.0,0.0,0.0,0.0,0.0,0.0,0.0,0.0,0.0,0.0,0.0,0.0,0.0,0.0,0.0,0.0,0.0,0.0,0.0,0.0,0.0,0.0,0.0,0.0,0.0,0.0,0.0,0.0,0.0,0.0,0.0,0.0,0.0,0.0,0.0,0.0,0.0,0.0,0.0,0.0,0.0,0.0,0.0,0.0,0.0,0.0,0.0,0.0,0.0,0.0,0.0,-4.9251,-5.019,-5.0813,-5.1169,-5.1254,-5.0937,-5.0898,-5.0163,-4.8508,0.0,0.0,0.0,0.0,0.0,0.0,0.0,0.0,0.0,0.0,0.0,0.0,0.0,0.0,0.0,0.0,0.0,0.0,0.0,0.0,0.0,0.0,0.0,0.0,0.0,0.0,0.0,0.0,0.0,0.0,0.0,0.0,0.0,0.0,0.0,0.0,0.0,0.0,0.0,0.0,0.0,0.0,0.0,0.0,0.0,0.0,0.0,0.0,0.0,0.0,0.0,0.0,0.0,0.0,0.0,0.0,0.0,0.0,0.0,0.0,0.0,0.0,0.0,0.0,0.0,0.0,0.0,0.0,0.0,0.0,0.0,0.0,0.0,0.0,0.0,0.0,0.0,0.0,0.0,0.0,0.0,0.0,0.0,0.0,0.0,0.0,0.0,0.0,0.0,0.0,0.0,0.0,0.0,0.0,0.0,0.0,0.0,0.0,0.0,0.0,0.0,0.0,-4.7737,-4.8962,-4.9998,-5.0675,-5.0819,-5.0898,-5.0898,-5.0395,-4.9629,-4.8469,0.0,0.0,0.0,0.0,0.0,0.0,0.0,0.0,0.0,0.0,0.0,0.0,0.0,0.0,0.0,0.0,0.0,0.0,0.0,0.0,0.0,0.0,0.0,0.0,0.0,0.0,0.0,0.0,0.0,0.0,0.0,0.0,0.0,0.0,0.0,0.0,0.0,0.0,0.0,0.0,0.0,0.0,0.0,0.0,0.0,0.0,0.0,0.0,0.0,0.0,0.0,0.0,0.0,0.0,0.0,0.0,0.0,0.0,0.0,0.0,0.0,0.0,0.0,0.0,0.0,0.0,0.0,0.0,0.0,0.0,0.0,0.0,0.0,0.0,0.0,0.0,0.0,0.0,0.0,0.0,0.0,0.0,0.0,0.0,0.0,0.0,0.0,0.0,0.0,0.0,0.0,0.0,0.0,0.0,0.0,0.0,0.0,0.0,0.0,0.0,0.0,0.0,-4.7072,-4.9049,-5.0392,-5.0392,-5.0687,-5.0898,-5.0898,-4.9351,-4.8392,0.0,0.0,0.0,0.0,0.0,0.0,0.0,0.0,0.0,0.0,0.0,0.0,0.0,0.0,0.0,0.0,0.0,0.0,0.0,0.0,0.0,0.0,0.0,0.0,0.0,0.0,0.0,0.0,0.0,0.0,0.0,0.0,0.0,0.0,0.0,0.0,0.0,0.0,0.0,0.0,0.0,0.0,0.0,0.0,0.0,0.0,0.0,0.0,0.0,0.0,0.0,0.0,0.0,0.0,0.0,0.0,0.0,0.0,0.0,0.0,0.0,0.0,0.0,0.0,0.0,0.0,0.0,0.0,0.0,0.0,0.0,0.0,0.0,0.0,0.0,0.0,0.0,0.0,0.0,0.0,0.0,0.0,0.0,0.0,0.0,0.0,0.0,0.0,0.0,0.0,0.0,0.0,0.0,0.0,0.0,0.0,0.0,0.0,0.0,0.0,0.0,0.0,0.0,-4.6227,-4.7935,-4.9136,-4.9406,-5.0029,-5.0438,-5.0519,-4.9567,-4.8499,-4.74,0.0,0.0,0.0,0.0,0.0,0.0,0.0,0.0,0.0,0.0,0.0,0.0,0.0,0.0,0.0,0.0,0.0,0.0,0.0,0.0,0.0,0.0,0.0,0.0,0.0,0.0,0.0,0.0,0.0,0.0,0.0,0.0,0.0,0.0,0.0,0.0,0.0,0.0,0.0,0.0,0.0,0.0,0.0,0.0,0.0,0.0,0.0,0.0,0.0,0.0,0.0,0.0,0.0,0.0,0.0,0.0,0.0,0.0,0.0,0.0,0.0,0.0,0.0,0.0,0.0,0.0,0.0,0.0,0.0,0.0,0.0,0.0,0.0,0.0,0.0,0.0,0.0,0.0,0.0,0.0,0.0,0.0,0.0,0.0,0.0,0.0,0.0,0.0,0.0,0.0,0.0,0.0,0.0,0.0,0.0,0.0,0.0,0.0,0.0,0.0,0.0,0.0,-4.5989,-4.7198,-4.808,-4.8644,-4.9236,-4.9637,-4.9717,-4.9034,-4.8064,-4.6772,0.0,0.0,0.0,0.0,0.0,0.0,0.0,0.0,0.0,0.0,0.0,0.0,0.0,0.0,0.0,0.0,0.0,0.0,0.0,0.0,0.0,0.0,0.0,0.0,0.0,0.0,0.0,0.0,0.0,0.0,0.0,0.0,0.0,0.0,0.0,0.0,0.0,0.0,0.0,0.0,0.0,0.0,0.0,0.0,0.0,0.0,0.0,0.0,0.0,0.0,0.0,0.0,0.0,0.0,0.0,0.0,0.0,0.0,0.0,0.0,0.0,0.0,0.0,0.0,0.0,0.0,0.0,0.0,0.0,0.0,0.0,0.0,0.0,0.0,0.0,0.0,0.0,0.0,0.0,0.0,0.0,0.0,0.0,0.0,0.0,0.0,0.0,0.0,0.0,0.0,0.0,0.0,0.0,0.0,0.0,0.0,0.0,0.0,0.0,0.0,0.0,0.0,-4.5955,-4.654,-4.7,-4.7753,-4.8185,-4.8453,-4.8542,-4.7903,-4.7159,-4.6293,0.0,0.0,0.0,0.0,0.0,0.0,0.0,0.0,0.0,0.0,0.0,0.0,0.0,0.0,0.0,0.0,0.0,0.0,0.0,0.0,0.0,0.0,0.0,0.0,0.0,0.0,0.0,0.0,0.0,0.0,0.0,0.0,0.0,0.0,0.0,0.0,0.0,0.0,0.0,0.0,0.0,0.0,0.0,0.0,0.0,0.0,0.0,0.0,0.0,0.0,0.0,0.0,0.0,0.0,0.0,0.0,0.0,0.0,0.0,0.0,-4.8262,-4.7228,0.0,0.0,0.0,0.0,0.0,0.0,0.0,0.0,0.0,0.0,0.0,0.0,0.0,0.0,0.0,0.0,0.0,0.0,0.0,0.0,0.0,0.0,0.0,0.0,0.0,0.0,0.0,0.0,0.0,0.0,0.0,0.0,0.0,0.0,0.0,0.0,0.0,0.0,0.0,0.0,-4.4395,-4.4585,-4.4782,-4.5117,-4.5767,-4.6506,-4.7283,-4.6595,-4.5833,-4.5117,-4.221,0.0,0.0,0.0,0.0,0.0,0.0,0.0,0.0,0.0,0.0,0.0,0.0,0.0,0.0,0.0,0.0,0.0,0.0,0.0,0.0,0.0,0.0,0.0,0.0,0.0,0.0,0.0,0.0,0.0,0.0,0.0,0.0,0.0,0.0,0.0,0.0,0.0,0.0,0.0,0.0,0.0,0.0,0.0,0.0,0.0,0.0,0.0,0.0,0.0,0.0,0.0,0.0,0.0,0.0,0.0,0.0,0.0,0.0,0.0,-4.934,-4.8339,0.0,0.0,0.0,0.0,0.0,0.0,0.0,0.0,0.0,0.0,0.0,0.0,0.0,0.0,0.0,0.0,0.0,0.0,0.0,0.0,0.0,0.0,0.0,0.0,0.0,0.0,0.0,0.0,0.0,0.0,0.0,0.0,0.0,0.0,0.0,0.0,0.0,0.0,0.0,0.0,-4.4469,-4.4246,-4.4203,-4.4721,-4.5146,-4.5624,-4.6149,-4.5814,-4.51,-4.3974,-4.1656,0.0,0.0,0.0,0.0,0.0,0.0,0.0,0.0,0.0,0.0,0.0,0.0,0.0,0.0,0.0,0.0,0.0,0.0,0.0,0.0,0.0,0.0,0.0,0.0,0.0,0.0,0.0,0.0,0.0,0.0,0.0,0.0,0.0,0.0,0.0,0.0,0.0,0.0,0.0,0.0,0.0,0.0,0.0,0.0,0.0,0.0,0.0,0.0,0.0,0.0,0.0,0.0,0.0,-5.0873,-5.0907,-5.0804,-5.0942,-5.1252,-5.1666,-5.1183,-5.0321,-4.9183,-4.8785,0.0,0.0,0.0,0.0,0.0,0.0,0.0,0.0,0.0,0.0,0.0,0.0,0.0,0.0,0.0,0.0,0.0,0.0,0.0,0.0,0.0,0.0,-4.3023,-4.2926,-4.3497,-4.3767,-4.29,0.0,0.0,0.0,0.0,0.0,0.0,0.0,0.0,0.0,0.0,0.0,-4.4628,-4.4183,-4.4013,-4.4766,-4.4841,-4.4915,-4.5064,-4.5152,-4.4632,-4.3274,-4.1509,-3.969,0.0,0.0,0.0,0.0,0.0,0.0,0.0,0.0,0.0,0.0,0.0,0.0,0.0,0.0,0.0,0.0,0.0,0.0,0.0,0.0,0.0,0.0,0.0,0.0,0.0,0.0,0.0,0.0,0.0,0.0,0.0,0.0,-5.1453,-5.0357,0.0,0.0,0.0,0.0,0.0,0.0,0.0,0.0,0.0,0.0,0.0,0.0,0.0,-5.0518,-5.0532,-5.2592,-5.3407,-5.2977,-5.4253,-5.4529,-5.3942,-5.4598,-5.4563,-5.408,-5.4632,0.0,-5.0804,-5.073,0.0,0.0,0.0,0.0,0.0,0.0,0.0,0.0,0.0,0.0,0.0,0.0,0.0,0.0,0.0,0.0,0.0,0.0,0.0,0.0,0.0,0.0,-4.2984,-4.3582,-4.3325,-4.2879,-4.2735,-4.3158,-4.3361,-4.2727,-4.2137,-4.1869,0.0,0.0,0.0,0.0,0.0,0.0,-4.2832,-4.2668,-4.2749,-4.3079,-4.3132,-4.3392,-4.4098,-4.4188,-4.4092,-4.3869,-4.112,-3.9709,-4.0109,-3.8015,0.0,0.0,0.0,0.0,0.0,0.0,0.0,0.0,0.0,0.0,0.0,0.0,0.0,0.0,0.0,0.0,0.0,0.0,0.0,0.0,0.0,0.0,0.0,0.0,0.0,0.0,0.0,0.0,0.0,-5.0984,-5.2086,-5.1363,-5.1595,-5.0811,0.0,0.0,0.0,0.0,0.0,0.0,0.0,0.0,0.0,-5.1128,-5.1631,-5.2038,-5.2445,-5.3532,-5.3971,-5.3727,-5.4379,-5.4516,-5.4242,-5.5094,-5.5298,-5.5023,-5.591,-5.5046,-5.2942,-5.208,-5.0459,-4.8424,0.0,0.0,0.0,0.0,-4.5414,-4.4902,-4.6222,-4.6361,-4.6013,-4.5909,0.0,0.0,0.0,0.0,0.0,0.0,0.0,-4.2073,-4.188,-4.2207,-4.2638,-4.2786,-4.2962,-4.315,-4.315,-4.3112,-4.2951,-4.2353,-4.2566,-4.2806,-4.2596,-4.2354,0.0,0.0,0.0,-4.2732,-4.2824,-4.2438,-4.2399,-4.2978,-4.2775,-4.2892,-4.3705,-4.3908,-4.3615,-4.2723,-4.1355,-4.0133,-3.9104,-3.8564,-3.8215,0.0,0.0,0.0,0.0,0.0,0.0,0.0,0.0,0.0,0.0,0.0,0.0,0.0,0.0,0.0,0.0,0.0,0.0,0.0,0.0,0.0,0.0,0.0,0.0,0.0,0.0,0.0,0.0,-5.1175,-5.2478,-5.1522,-5.2696,-5.2197,0.0,0.0,0.0,0.0,0.0,0.0,-5.1256,-5.1513,-5.2185,-5.3346,-5.3449,-5.3653,-5.3991,-5.4296,-5.4194,-5.3653,-5.3888,-5.3853,-5.3717,-5.4599,-5.4904,-5.4768,-5.5615,-5.5068,-5.3603,-5.3029,-5.1804,-5.0149,-4.8838,-4.7734,-4.6906,-4.6906,-4.6224,-4.5673,-4.7569,-4.7741,-4.7017,-4.6493,-4.563,-4.4492,-4.2561,0.0,0.0,0.0,0.0,-4.1415,-4.1406,-4.1707,-4.2077,-4.2255,-4.2732,-4.3121,-4.3121,-4.2893,-4.2587,-4.2189,-4.2774,-4.3156,-4.2625,-4.2283,0.0,-4.2631,-4.2396,-4.2323,-4.2741,-4.2432,-4.2359,-4.285,-4.2732,-4.274,-4.3145,-4.3365,-4.2998,-4.1761,-4.1332,-4.0259,-3.8395,-3.8975,-3.8938,-3.8062,0.0,0.0,0.0,0.0,0.0,0.0,0.0,0.0,0.0,0.0,0.0,0.0,0.0,0.0,0.0,0.0,0.0,0.0,0.0,0.0,0.0,0.0,0.0,0.0,0.0,0.0,0.0,0.0,0.0,-4.9444,-5.3745,0.0,0.0,0.0,0.0,-5.0591,-5.0227,-5.1181,-5.396,-5.4283,-5.477,-5.5513,-5.5402,-5.5144,-5.4768,-5.5362,-5.4738,-5.2766,-5.3525,-5.3542,-5.2905,-5.3644,-5.3611,-5.2973,-5.345,-5.2741,-5.1424,-5.3504,-5.308,-5.0976,-5.0183,-4.8976,-4.7638,-4.7638,-4.6672,-4.5535,-4.6397,-4.619,-4.55,-4.5466,-4.4492,-4.3138,-4.2275,-4.1481,0.0,0.0,-4.0918,-4.1091,-4.1757,-4.1447,-4.1367,-4.2792,-4.2585,-4.2068,-4.2068,-4.2285,-4.2486,-4.2728,-4.2176,-4.1758,-4.2008,0.0,-4.2151,-4.1414,-4.2092,-4.2424,-4.1793,-4.2243,-4.2501,-4.2084,-4.2722,-4.2886,-4.2137,-4.2081,-4.2062,-4.1971,-4.0547,-3.9634,-3.9524,-3.9491,-3.9146,-3.8376,-3.7588,0.0,0.0,0.0,0.0,0.0,0.0,0.0,0.0,0.0,0.0,0.0,0.0,0.0,0.0,0.0,0.0,0.0,0.0,0.0,0.0,0.0,0.0,0.0,0.0,0.0,0.0,0.0,0.0,-5.2989,-5.5854,0.0,-5.2236,-5.1811,-5.1746,-5.1591,-5.1831,-5.2644,-5.4144,-5.4323,-5.4711,-5.5402,-5.4508,-5.3972,-5.3787,-5.31,-5.2398,-5.1689,-5.1987,-5.1966,-5.1736,-5.2079,-5.1888,-5.1229,-5.1549,-5.0817,-4.945,-5.0759,-5.106,-5.0708,-5.0119,-4.9358,-4.8587,-4.8455,-4.7741,-4.6914,-4.7189,-4.7121,-4.6611,-4.489,-4.3279,-4.1877,-4.1125,-4.0715,-4.0558,-4.0823,-4.0704,-4.0627,-4.1168,-4.091,-4.072,-4.1512,-4.1516,-4.1309,-4.1309,-4.138,-4.1475,-4.1568,-4.1578,-4.1648,-4.1723,-4.1386,-4.1202,-4.1414,-4.1336,-4.1369,-4.1762,-4.1604,-4.1455,-4.1423,-4.1414,-4.1488,-4.1724,-4.1431,-4.1207,-4.1243,-4.0221,-3.9382,-3.8855,-3.8802,-3.8656,-3.8417,-3.7051,-3.6489,0.0,0.0,0.0,0.0,0.0,0.0,0.0,0.0,0.0,0.0,0.0,0.0,0.0,0.0,0.0,0.0,0.0,0.0,0.0,0.0,0.0,0.0,0.0,0.0,0.0,-5.2459,-5.4486,-5.3957,-5.6582,-5.7153,-5.3798,-5.3745,-5.3851,-5.3629,-5.3898,-5.4297,-5.4778,-5.5108,-5.5271,-5.5312,-5.3898,-5.2998,-5.2773,-5.1616,-5.0762,-5.0267,-5.0538,-5.0691,-5.0691,-5.0591,-5.0241,-4.9789,-4.9668,-4.8722,-4.7335,-4.7596,-4.8079,-4.8693,-4.9025,-4.8675,-4.7983,-4.7958,-4.7318,-4.643,-4.6184,-4.5774,-4.5097,-4.3328,-4.1839,-4.0696,-4.0223,-4.0054,-4.0104,-4.0377,-4.0254,-4.0129,-4.0377,-4.0254,-4.0154,-4.0607,-4.0474,-4.0302,-4.0326,-4.0214,-4.0158,-4.0281,-4.0886,-4.1358,-4.1358,-4.0984,-4.0876,-4.1366,-4.1082,-4.1029,-4.1731,-4.1364,-4.1004,-4.0866,-4.0879,-4.102,-4.1326,-4.1088,-4.0799,-4.0492,-3.9749,-3.8988,-3.8154,-3.8391,-3.8391,-3.8154,-3.6274,-3.5406,-3.5675,0.0,0.0,0.0,0.0,0.0,0.0,0.0,0.0,0.0,0.0,0.0,0.0,0.0,0.0,0.0,0.0,0.0,0.0,0.0,0.0,0.0,0.0,0.0,-4.8758,-5.1652,-5.3314,-5.2082,-5.5961,-5.7715,-5.5052,-5.5345,-5.5961,-5.6686,-5.6307,-5.5986,-5.5942,-5.6755,-5.6621,-5.5263,-5.3742,-5.2618,-5.1986,-5.1218,-5.0047,-4.8604,-4.943,-4.9868,-4.9805,-4.9078,-4.8731,-4.8636,-4.7722,-4.6512,-4.511,-4.446,-4.4396,-4.4925,-4.6979,-4.6939,-4.5775,-4.6082,-4.5236,-4.3834,-4.3188,-4.2009,-4.0802,-4.0776,-4.0247,-3.9584,-3.9584,-3.9584,-3.9584,-3.961,-3.9584,-3.9584,-3.961,-3.9584,-3.9688,-4.0163,-3.9685,-3.9084,-3.9166,-3.8836,-3.8665,-3.9068,-4.0048,-4.0836,-4.0894,-4.1047,-4.1186,-4.1186,-4.1391,0.0,-4.1582,-4.1582,-4.1266,-4.0473,-4.1251,-4.1577,-4.0855,-4.0933,-4.0697,-3.9929,-3.9163,-3.8379,-3.7612,-3.8326,-3.8362,-3.7595,-3.5328,-3.3758,-3.2953,0.0,0.0,0.0,0.0,0.0,0.0,0.0,0.0,0.0,0.0,0.0,0.0,0.0,0.0,0.0,0.0,0.0,0.0,0.0,0.0,0.0,-4.9205,-5.1147,-5.1502,-5.3652,-5.5561,-5.67,-5.7562,-5.7746,-5.7008,-5.6176,-5.5592,-5.5315,-5.4684,-5.4371,-5.4326,-5.4099,-5.3809,-5.3421,-5.2051,-5.1239,-5.1053,-4.9843,-4.9037,-4.8604,-4.8852,-4.8695,-4.8199,-4.7517,-4.6928,-4.6439,-4.5683,-4.5142,-4.4699,-4.4019,-4.3536,-4.335,-4.4535,-4.4915,-4.4724,-4.4151,-4.3194,-4.2076,-4.1904,-4.1376,-4.0749,-4.0425,-3.9791,-3.9169,-3.9169,-3.9169,-3.9222,-3.9532,-3.9375,-3.9249,-3.9532,-3.9375,-3.9276,-3.9688,-3.9253,-3.8715,-3.8773,-3.8265,-3.7841,-3.7947,-3.8448,-3.9292,-4.0675,-4.0942,-4.0989,-4.0989,-4.1035,-4.1152,-4.1277,-4.13,-4.1089,-4.0473,-4.0643,-4.0721,-4.051,-3.9538,-3.9085,-3.9453,-3.7826,-3.7,-3.7373,-3.7183,-3.697,-3.672,-3.6114,-3.5114,0.0,0.0,0.0,0.0,0.0,0.0,0.0,0.0,0.0,0.0,0.0,0.0,0.0,0.0,0.0,0.0,0.0,0.0,0.0,0.0,0.0,0.0,-5.1092,-5.2747,-5.3849,-5.517,-5.6554,-5.8177,-5.8073,-5.7919,-5.8227,-5.7469,-5.6607,-5.5653,-5.5222,-5.4637,-5.3775,-5.3345,-5.2883,-5.2298,-5.1251,-5.0574,-5.0266,-4.9158,-4.8604,-4.8604,-4.8327,-4.7989,-4.7558,-4.6603,-4.5957,-4.5557,-4.4918,-4.4456,-4.4148,-4.3433,-4.2786,-4.2243,0.0,0.0,0.0,0.0,-4.1283,-4.0196,-4.0196,-3.9911,-3.9517,-3.9271,-3.8982,-3.8738,-3.8738,-3.8738,-3.8794,-3.9034,-3.8925,-3.8821,-3.9034,-3.8925,-3.8778,-3.8844,-3.8351,-3.7777,-3.7503,-3.6959,-3.6573,-3.6786,-3.7119,0.0,-3.9637,-4.0199,-4.0515,-4.086,-4.0894,-4.0942,-4.1082,-4.077,-4.0573,-4.0605,-4.0123,-4.0084,-4.0691,-3.9434,0.0,0.0,0.0,-3.6882,-3.68,-3.645,0.0,0.0,0.0,-3.5007,-3.4115,-3.4527,0.0,0.0,-3.5757,-3.6149,0.0,0.0,0.0,0.0,0.0,0.0,0.0,0.0,0.0,0.0,0.0,0.0,0.0,0.0,0.0,0.0,-5.2829,-5.4122,-5.6061,-5.6382,-5.677,-5.7666,-5.7715,-5.798,-5.8608,-5.8608,-5.8073,-5.6779,-5.6625,-5.5715,-5.3837,-5.3652,0.0,0.0,0.0,-5.0359,-4.9682,-4.8974,-4.8604,-4.8604,-4.7927,-4.7558,-4.7434,-4.6172,-4.5495,-4.5311,-4.4764,-4.4117,-4.3439,-4.2756,-4.2078,-4.1498,-4.1724,-4.1457,-4.0868,-4.0415,-3.9472,-3.8429,-3.8366,0.0,0.0,-3.7857,-3.8091,-3.8319,-3.8319,-3.8379,-3.8408,-3.8408,-3.8408,-3.8408,-3.8408,-3.8343,-3.8196,-3.7892,-3.7216,-3.646,-3.5885,-3.5404,-3.5191,-3.5539,-3.5941,-3.6673,-3.8146,-3.904,-3.9823,-4.0614,-4.0799,-4.0789,-4.072,-4.0089,-3.9974,-4.0687,-3.9661,0.0,-4.092,-3.9852,-3.9084,-3.9098,-3.8383,-3.7361,-3.6126,-3.6055,-3.5474,-3.4208,-3.4101,-3.3994,-3.3972,-3.3939,-3.4367,-3.5204,-3.5935,-3.6649,0.0,0.0,0.0,0.0,0.0,0.0,0.0,0.0,0.0,0.0,0.0,0.0,0.0,0.0,0.0,-5.4051,-5.549,-5.6882,-5.8565,-5.7945,-5.7334,-5.7461,-5.7187,-5.7272,-5.7949,-5.7518,-5.684,-5.5961,-5.5407,-5.4699,-5.3775,-5.3221,-5.2544,-5.1744,-5.1036,-5.0359,-4.9682,-4.8974,-4.8604,-4.8604,-4.7927,0.0,-4.6757,-4.5957,-4.5003,-4.3994,-4.387,-4.3402,-4.2725,-4.2078,-4.137,-4.0693,-4.0177,-3.9933,-3.9655,-3.8518,-3.809,-3.8028,-3.7466,-3.7364,-3.7506,-3.7506,-3.7711,-3.8001,-3.8001,-3.8177,0.0,-3.8408,-3.8408,-3.8408,-3.8408,-3.7954,-3.7501,-3.7421,-3.6436,-3.5461,-3.5331,-3.4796,-3.4333,-3.4413,-3.4742,-3.5505,-3.6952,-3.8087,-3.9059,-3.9741,-4.0154,-4.0207,-3.9535,-3.9615,-3.9767,-3.9905,-3.9192,-3.9029,-3.9905,-3.8693,-3.785,-3.785,-3.7325,-3.6636,-3.5884,-3.5868,-3.5504,-3.4765,-3.4005,-3.3438,-3.3132,-3.2986,-3.3697,-3.5204,-3.5347,-3.5543,0.0,0.0,0.0,0.0,0.0,0.0,0.0,0.0,0.0,0.0,0.0,-4.8596,-5.1259,0.0,-5.3803,-5.7094,-5.7633,-5.8015,-5.9111,-5.8279,-5.7574,-5.78,-5.7438,-5.7156,-5.7285,-5.7611,-5.7069,-5.5345,-5.5175,-5.4591,-5.3283,-5.2575,-5.1898,-5.1221,-5.0543,-4.9866,-4.9158,-4.8789,-4.8604,-4.8604,-4.7588,-4.6911,-4.6573,-4.5557,-4.4726,-4.4086,-4.3747,-4.3439,-4.3002,-4.2017,-4.1186,-4.0382,-3.9367,-3.9,-3.8877,-3.7861,-3.7403,-3.7188,-3.6878,-3.6938,-3.721,-3.721,-3.7387,-3.7653,-3.7653,-3.777,-3.7947,-3.8119,-3.8148,-3.8205,-3.8379,-3.8149,-3.776,-3.7376,-3.6529,-3.5655,-3.5292,-3.4619,-3.4101,-3.4101,-3.425,-3.4725,-3.5862,-3.65,-3.7507,-3.9324,-3.9488,-3.9437,-3.9354,-3.857,-3.834,-3.9054,-3.7795,-3.7353,-3.8476,-3.7741,-3.6954,-3.64,-3.5934,-3.5346,-3.4573,-3.4199,-3.371,-3.3153,-3.2678,-3.2439,-3.2421,-3.2318,-3.3002,-3.4479,-3.4305,-3.4978,0.0,0.0,0.0,0.0,0.0,0.0,0.0,-4.4885,-4.6411,-4.9075,-5.0242,-5.1858,-5.5299,-5.5628,-5.6436,-5.9757,-5.9398,-5.8949,-5.9608,-5.8601,-5.8044,-5.8683,-5.785,-5.7052,-5.6774,-5.7623,-5.7223,-5.4868,-5.5052,-5.4529,-5.279,-5.2082,-5.1374,-5.0728,-5.0051,-4.9343,-4.8635,-4.8481,-4.8419,-4.8389,-4.7065,-4.6388,-4.6357,-4.5126,-4.4486,-4.4178,-4.3377,-4.3008,-4.2879,-4.1678,-4.0847,-4.0166,-3.8846,-3.8323,-3.8231,-3.7554,-3.7061,-3.6661,-3.6538,-3.6693,-3.6908,-3.6908,-3.7089,-3.7298,-3.7298,-3.7358,-3.7476,-3.774,-3.7799,-3.7886,-3.8205,-3.8193,-3.7903,-3.7247,-3.6594,-3.5882,-3.5163,-3.4522,-3.4101,-3.4101,-3.4101,-3.4327,-3.5065,-3.5325,-3.6209,-3.8605,-3.8687,-3.8563,-3.8813,-3.7543,-3.6989,-3.8086,-3.6396,-3.5659,-3.6745,-3.6557,-3.5904,-3.4879,-3.453,-3.4028,-3.3292,-3.2549,-3.1975,-3.1579,-3.137,-3.1435,-3.1786,-3.1749,-3.2384,-3.3547,-3.3086,-3.4353,-4.295,-4.2381,-4.298,-4.4466,-4.4975,-4.5992,0.0,-5.0331,-5.1199,-5.3862,-5.5388,-5.6735,-5.8351,-5.9069,-5.9787,-6.0835,-6.0864,-6.1014,-6.1672,-6.0086,-5.9261,-6.0156,-5.8024,-5.6513,-5.647,-5.6234,-5.5684,-5.4745,-5.4191,-5.3591,-5.276,-5.2082,-5.1374,-5.0728,-5.0051,-4.9343,-4.8635,-4.8019,-4.7711,-4.7711,-4.6357,-4.5711,-4.568,-4.4949,-4.3925,-4.2756,-4.1397,-4.0843,-4.0782,-4.0013,-3.9708,-3.9459,-3.8138,-3.7615,-3.7523,-3.6846,-3.6938,-3.7307,-3.6692,-3.6507,-3.6569,-3.6569,-3.6785,-3.703,-3.703,-3.721,-3.7417,-3.7447,-3.7476,-3.7535,-3.7857,-3.7463,-3.6878,-3.6481,-3.5849,-3.513,-3.436,-3.4165,-3.4101,-3.4101,-3.4101,-3.4327,-3.5065,-3.5752,-3.6297,-3.6631,-3.74,-3.7536,-3.629,-3.6812,-3.7133,-3.6688,-3.5793,-3.5023,-3.4622,-3.4533,-3.4163,-3.3381,-3.329,-3.3244,-3.3122,-3.2396,-3.2042,-3.209,-3.1268,-3.105,-3.1454,-3.1298,-3.173,-3.2739,-3.2017,-3.2868,-4.5544,-4.4975,-4.4945,-4.6172,-4.6741,-4.7788,-5.0571,-5.1498,-5.2636,-5.5688,-5.7363,-5.868,-6.0027,-6.0805,-6.1463,-6.2151,-6.2241,-6.2211,-6.2121,-6.0685,-5.9542,-5.9171,-5.7915,-5.7031,-5.6934,-5.6923,-5.63,-5.4806,-5.3745,-5.2852,-5.2144,-5.1097,-5.0389,-5.0112,-4.9435,-4.8727,-4.8019,-4.7742,-4.7404,-4.7004,-4.6049,-4.5588,-4.5557,-4.4918,-4.3864,-4.2571,-4.1986,-4.1243,-4.0443,-3.9767,-3.949,-3.937,-3.8015,-3.7492,-3.743,-3.6753,-3.6661,-3.6876,-3.6599,-3.6507,-3.6507,-3.6507,-3.66,-3.6724,-3.6724,-3.6785,-3.6938,-3.7119,-3.715,-3.724,-3.7535,-3.7372,-3.7115,-3.6944,-3.6107,-3.524,-3.4925,-3.4354,-3.3873,-3.3873,-3.4,-3.4277,-3.4806,-3.4943,-3.5221,-3.59,-3.6907,-3.7351,-3.6704,-3.6331,-3.5868,-3.5144,-3.4421,-3.3862,-3.359,-3.3346,-3.2994,-3.2504,-3.2299,-3.2055,-3.1846,-3.1155,-3.0803,-3.0856,-3.0058,-2.9806,-3.0188,-3.0089,-3.0401,-3.1079,-3.0962,-3.1486,-4.6471,-4.6411,-4.6561,-4.7578,-4.8626,-4.9793,-5.1409,-5.2695,-5.4221,-5.6615,-5.8471,-6.0027,-6.1164,-6.1912,-6.251,-6.2989,-6.3079,-6.2839,-6.2181,-6.1104,-5.9877,-5.856,-5.7843,-5.7311,-5.6868,-5.7021,-5.6357,-5.4529,-5.3191,-5.2144,-5.1467,-5.0328,-4.9682,-4.9682,-4.8974,-4.8296,-4.7619,-4.7434,-4.7004,-4.6296,-4.5618,-4.5311,-4.528,-4.4418,-4.3402,-4.2325,-4.2109,-4.1427,-4.0443,-3.9767,-3.9367,-3.9123,-3.7954,-3.74,-3.7153,-3.6661,-3.6507,-3.6507,-3.6507,-3.6507,-3.6507,-3.6507,-3.6507,-3.6507,-3.6507,-3.6507,-3.6569,-3.6785,-3.6847,-3.6938,-3.721,-3.7268,-3.7266,-3.7166,-3.6248,-3.5331,-3.5142,-3.4292,-3.3565,-3.3565,-3.3745,-3.3957,-3.4261,-3.4232,-3.4438,-3.5277,-3.6181,-3.6759,-3.6729,-3.5655,-3.4619,-3.3906,-3.3388,-3.2935,-3.2514,-3.2252,-3.1883,-3.1468,-3.1187,-3.0915,-3.0635,-3.0172,-2.988,-2.988,-2.9394,-2.9132,-2.9153,-2.9153,-2.9224,-2.9365,-2.9847,-3.0212,-4.4407,-4.5334,-4.68,-4.876,-5.0661,-5.2276,-5.2965,-5.5119,-5.6974,-5.7064,-5.9219,-6.1253,-6.1942,-6.26,-6.3049,-6.3079,-6.3079,-6.2839,-6.2181,-6.1523,-6.0595,-5.9249,-5.8196,-5.7109,-5.5782,-5.5451,-5.4891,-5.3822,-5.2513,-5.1436,-5.0759,-5.0082,-4.9682,-4.9682,-4.8974,-4.8296,-4.7619,-4.6942,-4.6296,-4.5618,-4.4941,-4.4641,-4.461,-4.3248,-4.2294,-4.1586,-4.0843,-4.0536,-4.0443,-3.9767,-3.9123,-3.8477,-3.7769,-3.7092,-3.6507,-3.6507,-3.6507,-3.6507,-3.6507,-3.6507,-3.6507,-3.6507,-3.6507,-3.6507,-3.6507,-3.6507,-3.6507,-3.6538,-3.6538,-3.66,-3.6938,-3.6999,-3.6934,-3.654,-3.59,-3.5205,-3.4482,-3.3814,-3.3309,-3.3309,-3.3335,-3.3335,-3.334,-3.3873,-3.4315,-3.4347,-3.4976,-3.5418,-3.5279,-3.4586,-3.3874,-3.3194,-3.3097,-3.2514,-3.1098,-3.0937,-3.0668,-3.001,-2.9967,-2.9935,-2.9913,-2.9913,-2.988,-2.988,-2.988,-2.9524,-2.8811,-2.8811,-2.8454,-2.7794,-2.8644,-2.9044,-4.5394,-4.6292,-4.7668,-5.0511,-5.1379,-5.2187,-5.461,-5.5508,-5.5957,-5.6406,-5.7214,-5.7782,-5.7543,-5.877,-5.9937,-6.0356,-6.1553,-6.2361,-6.2121,-6.1523,-6.0446,-5.868,-5.8105,-5.7152,-5.5129,-5.5196,-5.4646,-5.2887,-5.2116,-5.1221,-5.0082,-4.9343,-4.8974,-4.8974,-4.8727,-4.8081,-4.6942,-4.6696,-4.6018,-4.4949,-4.4271,-4.3963,-4.3932,-4.3002,-4.2232,-4.1586,-4.134,-4.0935,-4.0413,-3.9275,-3.8723,-3.8385,-3.7277,-3.6692,-3.6507,-3.6507,-3.6507,-3.6507,-3.6507,-3.6507,-3.6507,-3.6507,-3.6507,-3.6507,-3.6507,-3.6507,-3.6507,-3.6507,-3.6507,-3.6538,-3.6662,-3.6662,-3.6631,-3.6506,-3.5604,-3.4734,-3.4485,-3.3692,-3.3173,-3.3607,-3.3491,-3.354,-3.4234,-3.4341,-3.4293,-3.4293,-3.4673,-3.5011,-3.4941,-3.4452,-3.4003,-3.3777,-3.2935,-3.219,-3.1648,-3.0765,-3.0139,-2.9913,-2.988,-2.988,-2.988,-2.988,-2.988,-2.988,-2.894,-2.8563,-2.8811,-2.8304,-2.8174,-2.8433,-2.9242,-2.9383,-4.6232,-4.716,-4.8327,-5.1139,-5.1708,-5.2127,-5.4281,-5.479,-5.482,-5.476,-5.5119,-5.5329,-5.491,-5.6077,-5.7214,-5.7633,-5.9159,-6.0296,-6.0296,-5.9937,-5.9189,-5.7902,-5.7363,-5.6278,-5.4288,-5.4304,-5.3708,-5.1956,-5.1448,-5.0598,-4.9289,-4.8839,-4.8604,-4.8604,-4.8604,-4.7958,-4.6603,-4.6603,-4.5926,-4.461,-4.3932,-4.347,-4.3187,-4.254,-4.1863,-4.1186,-4.097,-4.0601,-4.0043,-3.897,-3.8385,-3.8077,-3.7184,-3.6692,-3.6507,-3.6507,-3.6507,-3.6507,-3.6507,-3.6507,-3.6507,-3.6507,-3.6507,-3.6507,-3.6507,-3.6507,-3.6507,-3.6507,-3.6507,-3.6507,-3.6507,-3.6507,-3.6507,-3.6507,-3.5645,-3.4874,-3.4874,-3.3939,-3.3277,-3.3988,-3.3505,-3.3248,-3.4175,-3.3973,-3.3709,-3.3959,-3.4076,-3.416,-3.4266,-3.4085,-3.3827,-3.3469,-3.2555,-3.1851,-3.1499,-3.0493,-2.988,-2.988,-2.988,-2.988,-2.988,-2.9653,-2.9491,-2.9491,-2.8563,-2.8207,-2.8401,-2.8207,-2.8207,-2.8401,-2.9167,-2.9307,-4.683,-4.7848,-4.8805,-5.078,-5.1738,-5.2217,-5.2247,-5.3204,-5.3713,-5.2366,-5.3054,-5.3892,-5.3832,-5.4461,-5.4999,-5.5089,-5.6286,-5.7214,-5.7244,-5.7214,-5.7184,-5.7094,-5.5957,-5.467,-5.3324,-5.2785,-5.2087,-5.0985,-5.051,-4.9708,-4.8363,-4.848,-4.8563,-4.8604,-4.8573,-4.7927,-4.6603,-4.6542,-4.5834,-4.4548,-4.387,-4.3187,-4.254,-4.1863,-4.1155,-4.0413,-3.9767,-3.9459,-3.9398,-3.8754,-3.8077,-3.7492,-3.7461,-3.7061,-3.6507,-3.6507,-3.6507,-3.6507,-3.6507,-3.6507,-3.6507,-3.6507,-3.6507,-3.6507,-3.6507,-3.6507,-3.6507,-3.6507,-3.6507,-3.6507,-3.6507,-3.6507,-3.6507,-3.6507,-3.5984,-3.5521,-3.5521,-3.4414,-3.3675,-3.4412,-3.3488,-3.2752,-3.3398,-3.2936,-3.2721,-3.3367,-3.3129,-3.3025,-3.3256,-3.3487,-3.331,-3.2335,-3.2087,-3.1563,-3.0622,-3.0145,-2.988,-2.988,-2.988,-2.988,-2.988,-2.9232,-2.8876,-2.8876,-2.8843,-2.8466,-2.7818,-2.8466,-2.8466,-2.7818,-2.853,-2.8843,-4.7638,-4.8506,-4.9494,-5.1468,-5.2067,-5.2336,-5.2815,-5.2815,-5.2336,-5.102,-5.0242,-4.9494,-4.8506,-5.0481,-5.2546,-5.3533,-5.6466,-5.877,-5.9249,-5.889,-5.8231,-5.7214,-5.5957,-5.467,-5.3324,-5.2174,-5.1069,-4.984,-4.9926,-4.9535,-4.8363,-4.8343,-4.8469,-4.8604,-4.8112,-4.7465,-4.6603,-4.5588,-4.4702,-4.387,-4.3156,-4.2509,-4.1832,-4.1124,-4.0382,-3.9736,-3.9551,-3.9247,-3.8723,-3.8046,-3.7646,-3.7461,-3.6938,-3.663,-3.6507,-3.6507,-3.6507,-3.6507,-3.6507,-3.6507,-3.6507,-3.6507,-3.6507,-3.6507,-3.6507,-3.6507,-3.6507,-3.6507,-3.6507,-3.6507,-3.6507,-3.6507,-3.6507,-3.6507,-3.5984,-3.5521,-3.5521,-3.4844,-3.4443,-3.5121,-3.4967,-3.4752,-3.4937,-3.4412,-3.4043,-3.4197,-3.3671,-3.3222,-3.3025,-3.3229,-3.3293,-3.3056,-3.2051,-3.1405,-3.131,-3.0275,-2.9704,-2.988,-2.988,-2.988,-2.988,-2.9718,-2.9621,-2.9621,-2.907,-2.8973,-2.9329,-2.8973,-2.9005,-2.9329,-2.9524,-2.9329,-4.8775,-4.9404,-5.0032,-5.1439,-5.1558,-5.1349,-5.1439,-5.096,-5.0122,-4.8731,-4.7698,-4.6741,-4.6022,-4.8087,-5.0272,-5.1289,-5.4551,-5.7304,-5.8231,-5.7812,-5.7304,-5.7124,-5.5718,-5.4221,-5.2875,-5.1558,-5.0242,-4.897,-4.9191,-4.897,-4.8067,-4.8091,-4.826,-4.8438,-4.7794,-4.7077,-4.6172,-4.5095,-4.4271,-4.3593,-4.291,-4.2263,-4.1586,-4.0847,-4.029,-3.989,-3.9339,-3.8877,-3.8446,-3.7461,-3.7061,-3.703,-3.663,-3.6507,-3.6507,-3.6507,-3.6507,-3.6507,-3.6507,-3.6507,-3.6507,-3.6507,-3.6507,-3.6507,-3.6507,-3.6507,-3.6507,-3.6507,-3.6507,-3.6507,-3.6507,-3.6507,-3.6507,-3.6507,-3.6199,-3.5922,-3.5922,-3.5429,-3.4967,-3.5059,-3.5306,-3.5521,-3.5521,-3.4936,-3.4505,-3.4505,-3.386,-3.3239,-3.2726,-3.2935,-3.3069,-3.2904,-3.2143,-3.1514,-3.1279,-3.0355,-2.9745,-2.9726,-2.9726,-2.9792,-2.988,-2.9589,-2.9426,-2.9426,-2.8692,-2.8681,-2.9426,-2.9005,-2.9167,-2.988,-2.988,-2.9686,-4.9897,-5.0255,-5.0435,-5.0913,-5.0614,-5.0016,-4.9404,-4.8686,-4.7788,-4.6441,-4.5633,-4.5125,-4.5035,-4.6681,-4.8327,-4.9254,-5.1947,-5.4521,-5.6196,-5.5718,-5.5628,-5.6825,-5.5269,-5.3533,-5.2187,-5.087,-4.9613,-4.8386,-4.8383,-4.8213,-4.7611,-4.7837,-4.7958,-4.7985,-4.7446,-4.6578,-4.5426,-4.488,-4.424,-4.347,-4.2879,-4.2202,-4.1432,-4.0782,-4.0443,-4.029,-3.9062,-3.8446,-3.8292,-3.6999,-3.6507,-3.6507,-3.6507,-3.6507,-3.6507,-3.6507,-3.6507,-3.6507,-3.6507,-3.6507,-3.6507,-3.6507,-3.6507,-3.6507,-3.6507,-3.6507,-3.6507,-3.6507,-3.6507,-3.6507,-3.6507,-3.6507,-3.6507,-3.6507,-3.6507,-3.6507,-3.6507,-3.6014,-3.546,-3.4874,-3.5244,-3.5614,-3.5614,-3.5152,-3.472,-3.4536,-3.3981,-3.3275,-3.2505,-3.2664,-3.2718,-3.241,-3.2164,-3.1626,-3.0879,-3.027,-2.9785,-2.9457,-2.9448,-2.9538,-2.977,-2.92,-2.8876,-2.8876,-2.8283,-2.8304,-2.894,-2.894,-2.9264,-2.988,-2.988,-2.988,-5.0285,-5.0584,-5.0913,-5.0465,-5.0285,-5.0016,-4.9404,-4.8327,-4.71,-4.5753,-4.4945,-4.4317,-4.3738,-4.5263,-4.7355,-4.9657,-5.1468,-5.3773,-5.7304,-5.6286,-5.5478,-5.6226,-5.4581,-5.2845,-5.1498,-5.0212,-4.9105,-4.8356,-4.7832,-4.7559,-4.7611,-4.7624,-4.728,-4.6437,-4.6448,-4.5865,-4.4557,-4.4557,-4.3987,-4.2786,-4.2663,-4.1955,-4.0689,-4.0536,-4.0197,-3.9613,-3.8846,-3.82,-3.7615,-3.6815,-3.6507,-3.6507,-3.6507,-3.6507,-3.6507,-3.6507,-3.6507,-3.6507,-3.6507,-3.6507,-3.6507,-3.6507,-3.6507,-3.6507,-3.6507,-3.6507,-3.6507,-3.6507,-3.6507,-3.6507,-3.6507,-3.6507,-3.6507,-3.6507,-3.6507,-3.6507,-3.6507,-3.6415,-3.6292,-3.6168,-3.623,-3.6322,-3.6322,-3.623,-3.5799,-3.4659,-3.4382,-3.3858,-3.2567,-3.2468,-3.2468,-3.241,-3.1385,-3.0742,-3.0766,-2.9661,-2.8999,-2.916,-2.9183,-2.9206,-2.9252,-2.9329,-2.9399,-2.9399,-2.9469,-2.9589,-2.9718,-2.9718,-2.9751,-2.988,-2.988,-2.988,-5.1349,-5.1498,-5.1558,-5.0853,-5.0242,-4.9464,-4.8476,-4.7219,-4.5873,-4.4556,-4.4018,-4.3678,-4.3349,-4.4934,-4.6817,-4.8446,-5.0391,-5.2606,-5.5179,-5.473,-5.4251,-5.4581,-5.3174,-5.1648,-5.0331,-4.9314,-4.8476,-4.7818,-4.7489,-4.7352,-4.7439,-4.7207,-4.652,-4.5314,-4.5485,-4.5148,-4.4143,-4.4006,-4.3407,-4.2425,-4.2227,-4.1524,-4.0505,-4.0505,-4.032,-3.9951,-3.8939,-3.8539,-3.8446,-3.7061,-3.6692,-3.6999,-3.663,-3.6507,-3.6507,-3.6507,-3.632,-3.6132,-3.6383,-3.632,-3.61,-3.61,-3.6258,-3.6445,-3.6163,-3.6289,-3.6507,-3.6507,-3.6289,-3.6163,-3.6414,-3.6289,-3.6163,-3.6414,-3.6507,-3.6507,-3.6507,-3.6507,-3.6507,-3.6507,-3.6507,-3.6507,-3.6507,-3.6507,-3.6045,-3.469,-3.4505,-3.4012,-3.2567,-3.2382,-3.2382,-3.2382,-3.1828,-3.1204,-3.0655,-2.9973,-2.939,-2.8936,-2.8873,-2.8943,-2.9091,-2.922,-2.9289,-2.9289,-2.9185,-2.9317,-2.9704,-2.9426,-2.9524,-2.988,-2.988,-2.988,-5.2097,-5.2187,-5.2187,-5.1229,-5.0122,-4.897,-4.7608,-4.6262,-4.4915,-4.3559,-4.329,-4.329,-4.329,-4.4575,-4.595,-4.695,-4.8835,-5.081,-5.2695,-5.2845,-5.2815,-5.2965,-5.1947,0.0,-4.9239,-4.8596,-4.8027,-4.7369,-4.7189,-4.71,-4.71,-4.6731,-4.5913,-4.4589,-4.476,-4.4616,-4.3949,-4.3625,-4.3037,-4.2316,-4.1868,-4.1264,-4.047,-4.047,-4.047,-4.0378,-3.9059,-3.8877,-3.9336,-3.7338,-3.6907,-3.743,-3.6753,-3.6507,-3.6507,-3.6352,-3.6038,-3.5752,-3.6068,-3.5879,-3.5527,-3.5367,-3.5784,-3.6226,-3.5688,-3.5816,-3.6163,-3.6163,-3.5847,-3.5623,-3.6068,-3.5847,-3.5623,-3.6068,-3.6163,-3.6195,-3.6289,-3.6258,-3.6195,-3.632,-3.632,-3.632,-3.632,-3.632,-3.5922,-3.4696,-3.433,-3.378,-3.2583,-3.2252,-3.2132,-3.2216,-3.2121,-3.1658,-3.0694,-3.04,-2.9863,-2.89,-2.8831,-2.8864,-2.8951,-2.8998,-2.899,-2.899,-2.8771,-2.8926,-2.9493,-2.9189,-2.9329,-2.988,-2.988,-2.988,-5.1798,-5.2187,-5.2636,-5.0734,-4.9793,-4.897,-4.7608,-4.6262,-4.4915,-4.3559,-4.329,-4.329,-4.329,-4.3439,-4.4186,-4.607,-4.6578,-4.8057,-5.1768,-5.1768,-5.1618,-5.2217,0.0,0.0,-4.8566,-4.8327,-4.8027,-4.7369,-4.6741,-4.6369,-4.6369,-4.6352,-4.5693,-4.4347,-4.4529,-4.4348,-4.3744,-4.3849,-4.3411,-4.2316,-4.2071,-4.137,-4.0296,-4.0296,-4.0296,-4.027,-3.9026,-3.8877,-3.9336,-3.7338,-3.6907,-3.743,-3.6753,-3.6507,-3.6414,-3.5943,-3.5752,-3.5655,-3.5204,-3.5008,-3.4876,-3.4409,-3.4942,-3.5688,-3.5139,-3.5008,-3.5041,-3.5041,-3.5008,-3.4975,-3.5041,-3.5008,-3.4975,-3.5041,-3.5041,-3.5172,-3.5655,-3.5397,-3.5172,-3.5688,-3.5784,-3.5784,-3.5784,-3.5784,-3.5542,-3.4785,-3.3813,-3.3002,-3.2644,-3.1722,-3.1277,-3.1739,-3.1225,-3.0967,-3.1278,-3.038,-2.9633,-2.9366,-2.9329,-2.9052,-2.8515,-2.8645,-2.8732,-2.8732,-2.918,-2.9429,-2.9493,-2.9705,-2.9815,-2.988,-2.988,-2.988,-5.2396,-5.3084,-5.3503,-5.2306,-5.0631,-4.897,-4.7608,-4.5963,-4.4436,-4.3469,-4.329,-4.329,-4.329,-4.329,-4.3559,-4.4366,-4.4814,-4.5813,-4.7758,-4.8177,-4.8506,-4.9164,-4.9015,-4.8566,-4.7758,-4.7698,-4.7578,-4.7339,-4.707,-4.6561,-4.5753,-4.5334,-4.4676,-4.3708,-4.3798,-4.3718,-4.3478,-4.3253,-4.2924,-4.2485,-4.1735,-4.114,-4.0695,-4.0299,-4.0187,-4.0266,-3.9249,-3.9008,-3.9232,-3.7577,-3.7086,-3.724,-3.6722,-3.6507,-3.6414,-3.5879,-3.5494,-3.5172,-3.4975,-3.4677,-3.4375,-3.4172,-3.4375,-3.471,-3.4476,-3.4643,-3.4909,-3.4909,-3.4677,-3.4476,-3.481,-3.4909,-3.4909,-3.4909,-3.4909,-3.4942,-3.5172,-3.5041,-3.4942,-3.5172,-3.5204,-3.5204,-3.5204,-3.5204,-3.4996,-3.431,-3.3824,-3.3199,-3.2287,-3.1811,-3.1486,-3.1307,-3.104,-3.0913,-3.0967,-3.0558,-3.0216,-3.0022,-2.9617,-2.9304,-2.9027,-2.8669,-2.8525,-2.8525,-2.885,-2.9013,-2.9013,-2.9448,-2.9681,-2.9681,-2.9814,-2.988,-5.2067,-5.2965,-5.3443,-5.2785,-5.078,-4.8686,-4.7549,-4.5753,-4.4056,-4.3089,-4.29,-4.282,-4.2578,-4.2739,-4.29,-4.29,-4.3666,-4.4616,-4.5484,-4.6022,-4.6561,-4.7219,-4.713,-4.701,-4.701,-4.7189,-4.7309,-4.7309,-4.695,-4.6292,-4.5334,-4.4496,-4.3768,-4.329,-4.329,-4.329,-4.329,-4.2968,-4.2625,-4.2311,-4.1519,-4.0928,-4.0607,-4.0152,-3.9889,-3.9817,-3.9256,-3.8956,-3.8821,-3.7628,-3.714,-3.7143,-3.6597,-3.6352,-3.6195,-3.5655,-3.5106,-3.4643,-3.4476,-3.4201,-3.3859,-3.3859,-3.3859,-3.3859,-3.3859,-3.4133,-3.4438,-3.4438,-3.4167,-3.3962,-3.4337,-3.4438,-3.4438,-3.4438,-3.4438,-3.4471,-3.461,-3.4543,-3.4442,-3.4643,-3.4643,-3.4643,-3.4643,-3.4643,-3.4497,-3.4028,-3.366,-3.319,-3.2351,-3.1965,-3.1616,-3.1098,-3.092,-3.0836,-3.0766,-3.065,-3.0494,-3.03,-2.9685,-2.9229,-2.9017,-2.8379,-2.8039,-2.8039,-2.8229,-2.8391,-2.8518,-2.899,-2.9312,-2.9493,-2.9515,-2.9493,-5.0226,-5.1229,-5.2067,-5.1409,-4.9763,-4.8117,-4.7459,-4.5753,-4.3864,-4.2327,-4.2005,-4.1728,-4.0817,-4.1394,-4.2005,-4.2005,-4.3301,-4.4796,-4.607,-4.6279,-4.6561,-4.7219,-4.6741,-4.6279,-4.6279,-4.692,-4.7309,-4.7309,-4.6082,-4.5304,-4.5304,-4.4047,-4.329,-4.329,-4.329,-4.329,-4.329,-4.329,-4.2749,-4.1716,-4.1498,-4.0808,-3.9696,-3.9696,-3.9335,-3.8736,-3.894,-3.8614,-3.795,-3.7279,-3.7073,-3.7143,-3.6471,-3.6006,-3.5655,-3.5106,-3.4576,-3.4002,-3.3507,-3.3326,-3.3326,-3.3326,-3.3326,-3.3326,-3.3326,-3.3326,-3.3326,-3.3326,-3.3326,-3.3326,-3.3326,-3.3326,-3.3326,-3.3326,-3.3326,-3.3437,-3.3968,-3.3687,-3.3472,-3.4031,-3.4104,-3.4104,-3.4104,-3.4104,-3.4104,-3.4104,-3.3141,-3.2568,-3.3044,-3.2137,-3.1415,-3.1211,-3.0775,-3.0614,-3.0984,-3.0569,-3.0218,-3.0043,-2.9451,-2.8803,-2.8127,-2.745,-2.7122,-2.7122,-2.7378,-2.773,-2.81,-2.8367,-2.8842,-2.9493,-2.8958,-2.8551,-4.8775,-4.9853,-5.069,-5.0062,-4.8416,-4.6569,-4.5298,-4.3805,-4.2403,-4.1296,-4.1029,-4.0944,-4.0646,-4.0859,-4.1171,-4.1582,-4.2273,-4.3001,-4.3796,-4.4501,-4.5185,-4.5843,-4.6561,-4.698,-4.698,-4.7189,-4.713,-4.6681,-4.6232,-4.5603,-4.4676,-4.4227,-4.3768,-4.329,-4.329,-4.329,-4.329,-4.288,-4.25,-4.2158,-4.1183,-4.0524,-4.0177,-3.9691,-3.9193,-3.8732,-3.9113,-3.8456,-3.7113,-3.7385,-3.683,-3.5797,-3.5683,-3.5432,-3.5073,-3.4543,-3.424,-3.4002,-3.3472,-3.329,-3.329,-3.329,-3.329,-3.329,-3.329,-3.329,-3.329,-3.329,-3.329,-3.329,-3.329,-3.329,-3.329,-3.329,-3.329,-3.3361,-3.3507,-3.3403,-3.3361,-3.3507,-3.3542,-3.3542,-3.3542,-3.3542,-3.3542,-3.3542,-3.3262,-3.2911,-3.2659,-3.2331,-3.1763,-3.0821,-3.058,-3.0517,-3.0506,-3.0387,-3.0421,-3.069,-3.0071,-2.9601,-2.9395,-2.8363,-2.7983,-2.8368,-2.7646,-2.7509,-2.8088,-2.7916,-2.807,-2.8551,-2.8264,-2.8192,-4.7309,-4.8327,-4.8925,-4.8193,-4.6711,-4.5033,-4.3733,-4.241,-4.1197,-4.0303,-4.0087,-3.9956,-3.9634,-3.9869,-4.0198,-4.057,-4.1114,-4.1891,-4.3052,-4.3571,-4.4157,-4.5173,-4.6262,-4.692,-4.692,-4.692,-4.677,-4.6309,-4.5801,-4.5185,-4.4347,-4.4077,-4.3658,-4.3,-4.297,-4.297,-4.297,-4.2312,-4.1901,-4.1662,-4.0786,-4.0277,-4.0008,-3.9619,-3.8936,-3.8236,-3.8786,-3.7982,0.0,-3.6645,-3.6086,-3.4975,-3.4942,-3.471,-3.4341,-3.4002,-3.3831,-3.3722,-3.3262,-3.3157,-3.329,-3.329,-3.329,-3.329,-3.329,-3.329,-3.329,-3.329,-3.329,-3.329,-3.329,-3.329,-3.329,-3.329,-3.329,-3.329,-3.329,-3.329,-3.329,-3.329,-3.329,-3.329,-3.329,-3.329,-3.329,-3.329,-3.329,-3.315,-3.2792,-3.2764,-3.237,-3.1331,-3.1246,-3.0978,-3.0418,-3.0164,-3.0174,-3.0448,-2.987,-2.9522,-2.9522,-2.8307,-2.7786,-2.8163,-2.7178,-2.691,-2.7506,-2.7509,-2.7525,-2.7575,-2.7575,-2.7575,0.0,-4.6548,-4.6854,-4.5858,-4.4705,-4.3546,-4.2568,-4.1403,0.0,-3.9299,-3.9121,-3.8881,-3.8057,-3.8549,-3.9149,-3.9176,-3.994,-4.1212,-4.3344,-4.3255,-4.3549,-4.5066,-4.5836,-4.6267,-4.6279,-4.6279,-4.6249,-4.6219,-4.5035,-4.4287,-4.4257,-4.3589,-4.3,-4.241,-4.2321,-4.2291,-4.2321,-4.1662,-4.0995,-4.0397,-4.0337,-4.0008,-3.9373,-3.9343,-3.8631,-3.7434,-3.8063,-3.7255,-3.5484,-3.538,-3.5025,-3.4568,-3.4167,-3.3791,-3.3507,-3.3416,-3.3339,-3.3192,-3.281,-3.2945,-3.3255,-3.329,-3.329,-3.3255,-3.329,-3.329,-3.329,-3.329,-3.329,-3.329,-3.329,-3.329,-3.329,-3.329,-3.329,-3.329,-3.329,-3.329,-3.329,-3.329,-3.329,-3.329,-3.329,-3.329,-3.329,-3.329,-3.329,-3.329,-3.329,-3.329,-3.3101,-3.2455,-3.2398,-3.1893,-3.0596,-3.001,-2.9645,-2.9617,-2.9083,-2.8745,-2.8745,-2.7565,-2.6891,-2.6947,-2.6301,-2.6126,-2.6472,-2.7097,-2.7148,-2.6657,-2.689,-2.6762,-4.3113,0.0,-4.4679,-4.3274,-4.2686,-4.2034,0.0,-3.9755,-3.9254,-3.8395,-3.8194,-3.8148,-3.7946,-3.8057,-3.8326,-3.8747,-3.9222,-3.9854,-4.0845,-4.1948,-4.3195,-4.4705,-4.5508,-4.602,-4.6296,-4.6279,-4.6112,-4.5574,-4.4766,-4.4107,-4.3559,-4.294,-4.256,-4.241,-4.1422,-4.1115,-4.1632,-4.0965,-4.0546,-4.0397,-3.9888,-3.9559,-3.9409,-3.8871,-3.8182,-3.7434,-3.7584,-3.6836,-3.5484,-3.538,-3.5045,-3.4552,-3.3473,-3.3231,-3.3476,-3.2726,-3.2596,-3.281,-3.2739,-3.2775,-3.2881,-3.3192,-3.3086,-3.2881,-3.322,-3.329,-3.329,-3.329,-3.329,-3.329,-3.329,-3.329,-3.329,-3.329,-3.329,-3.329,-3.329,-3.329,-3.329,-3.329,-3.329,-3.329,-3.329,-3.329,-3.329,-3.329,-3.329,-3.329,-3.329,-3.329,-3.3101,-3.2455,-3.2398,-3.1893,-3.0596,-3.0371,-3.0062,-2.9645,-2.9476,-2.9392,-2.9392,-2.8212,-2.7762,-2.824,-2.7172,-2.6412,-2.6042,-2.6204,-2.6258,-2.6231,-2.6204,-2.6204,-4.2129,-4.2609,-4.2825,-4.1156,-4.0731,-4.0262,-3.8576,-3.8167,-3.798,-3.7206,0.0,-3.7168,-3.7429,-3.7482,-3.7665,-3.824,-3.8515,-3.8961,-4.0006,-4.1557,-4.298,-4.4024,-4.4486,-4.4931,-4.5563,-4.5312,-4.5082,-4.4844,-4.4227,-4.3569,-4.291,-4.259,-4.2111,-4.1512,-4.0756,-4.0576,-4.0935,-4.0277,-3.9948,-3.9948,-3.9553,-3.9373,-3.9409,-3.8721,-3.7858,-3.6891,-3.6566,-3.5887,-3.4902,-3.4139,-3.4066,-3.4292,-3.2781,-3.2544,-3.2969,-3.2189,-3.2092,-3.2417,-3.2237,-3.2309,-3.2453,-3.2696,-3.2704,-3.2739,-3.298,-3.3157,-3.329,-3.329,-3.329,-3.329,-3.329,-3.329,-3.329,-3.329,-3.329,-3.329,-3.329,-3.329,-3.329,-3.329,-3.329,-3.329,-3.329,-3.329,-3.329,-3.329,-3.329,-3.329,-3.329,-3.329,-3.315,-3.2876,-3.282,-3.2314,-3.1078,-3.0965,-3.0572,-2.9673,-2.9617,-2.9617,-2.9617,-2.8689,-2.8071,-2.7846,-2.6891,-2.6217,-2.5907,-2.5907,-2.5962,-2.6016,-2.5935,-2.5989,-4.1645,-4.1619,-4.1298,-3.9607,-3.9129,-3.8701,-3.7314,0.0,0.0,0.0,0.0,0.0,-3.6907,-3.709,-3.7299,-3.7821,-3.7978,-3.8563,-4.0003,-4.1388,-4.2478,-4.3072,-4.3174,-4.3511,-4.4367,-4.3834,-4.36,-4.3867,-4.3407,-4.2832,-4.2216,-4.2213,-4.1692,-4.0427,-4.0307,-4.0247,-4.0247,-3.9709,-3.9373,-3.9373,-3.9373,-3.9379,-3.923,-3.8542,-3.7469,-3.6089,-3.545,-3.4772,-3.4041,-3.2684,-3.2882,-3.3871,-3.2179,-3.1931,-3.2437,-3.1772,-3.1726,-3.1982,-3.169,-3.1763,-3.2019,-3.2092,-3.2309,-3.2561,-3.2596,-3.2909,-3.322,-3.322,-3.3255,-3.329,-3.329,-3.329,-3.329,-3.329,-3.329,-3.329,-3.329,-3.329,-3.329,-3.329,-3.329,-3.329,-3.329,-3.329,-3.329,-3.329,-3.329,-3.329,-3.329,-3.329,-3.329,-3.329,-3.329,-3.2876,-3.1724,-3.1527,-3.0993,-2.9813,-2.9645,-2.956,-2.9476,-2.897,-2.8155,-2.6975,-2.6441,-2.6132,-2.6048,-2.6048,-2.5992,-2.5907,-2.5907,-2.5907,-4.0087,-3.9991,-4.022,-3.939,-3.8857,-3.826,-3.7235,-3.6593,0.0,0.0,0.0,0.0,0.0,-3.7429,-3.7795,-3.7874,-3.8292,-3.8993,-4.0184,-4.0588,-4.1053,-4.1944,-4.2085,-4.2287,-4.2789,-4.2301,-4.1964,-4.2009,-4.2116,-4.1919,-4.1237,-4.1418,-4.1175,-4.0427,-3.9858,-3.9559,-3.9559,-3.9433,-3.9373,-3.9373,-3.9373,-3.911,-3.8512,-3.7853,-3.6788,-3.5421,-3.4719,-3.4059,-3.3318,-3.247,-3.2789,-3.3647,-3.1781,-3.1932,-3.2983,-3.1593,-3.1347,-3.1653,-3.1643,-3.1643,-3.1726,-3.2019,-3.1946,-3.18,-3.2092,-3.2489,-3.2775,-3.2775,-3.3051,-3.329,-3.329,-3.329,-3.329,-3.329,-3.329,-3.329,-3.329,-3.329,-3.329,-3.329,-3.329,-3.329,-3.329,-3.329,-3.329,-3.329,-3.329,-3.329,-3.329,-3.329,-3.329,-3.329,-3.329,-3.3045,-3.2314,-3.178,-3.1162,-3.0399,-2.9897,-2.9364,-2.8858,-2.8745,-2.8352,-2.7679,-2.7566,-2.7228,-2.6666,-2.6666,-2.6413,-2.5907,-2.5907,-2.5907,-3.9141,-3.8854,-3.8884,-3.891,-3.8964,-3.8686,-3.731,-3.7037,-3.6907,0.0,0.0,0.0,-3.6933,-3.7508,-3.8109,-3.8736,-3.9024,-3.939,-3.9913,-3.9991,-4.0215,-4.094,-4.0797,-4.0931,-4.1608,-4.1138,-4.0863,-4.1053,-4.0887,-4.0674,-4.0445,-4.0266,-3.985,-3.9231,-3.9341,-3.9013,-3.823,-3.8266,-3.8654,-3.9373,-3.8973,-3.8654,-3.8362,-3.7286,-3.5985,-3.4654,-3.399,-3.3283,-3.2541,-3.1809,-3.2423,-3.3592,-3.1721,-3.1794,-3.2843,-3.1494,-3.1123,-3.1272,-3.1272,-3.1272,-3.131,-3.1458,-3.1569,-3.1643,-3.1763,-3.2237,-3.2668,-3.2453,-3.2668,-3.3016,-3.3255,-3.3122,-3.3051,-3.3255,-3.3122,-3.3051,-3.3255,-3.3122,-3.3051,-3.3255,-3.329,-3.329,-3.329,-3.329,-3.329,-3.329,-3.329,-3.329,-3.329,-3.329,-3.329,-3.329,-3.329,-3.2932,-3.1977,-3.164,-3.1078,-3.0094,-2.9757,-2.9476,-2.9195,-2.8858,-2.8549,-2.8268,-2.7988,-2.7651,-2.734,-2.6975,-2.6835,-2.6891,-2.6217,-2.6076,-3.8369,-3.7909,-3.7769,-3.8031,-3.8449,-3.8507,-3.7521,-3.7365,-3.7163,-3.6467,-3.6337,-3.6467,-3.7026,-3.7645,-3.8423,-3.9442,-3.973,-3.986,-3.9991,-4.0017,-4.0174,-4.0566,-4.0017,-3.9886,-4.0589,-4.0011,-3.9708,-3.9968,-3.9617,-3.9423,-3.9384,-3.9061,-3.8544,-3.7938,-3.8472,-3.8289,-3.7215,-3.7105,-3.7572,-3.8644,-3.7886,-3.7463,-3.7393,-3.6257,-3.4975,-3.3673,-3.319,-3.2506,-3.1809,-3.1235,-3.1997,-3.3361,-3.1645,-3.1522,-3.2202,-3.1313,-3.0973,-3.0973,-3.0973,-3.0973,-3.0973,-3.0973,-3.1198,-3.1458,-3.1458,-3.1909,-3.2381,-3.2055,-3.22,-3.2561,-3.3016,-3.2945,-3.2775,-3.3086,-3.2917,-3.2739,-3.298,-3.2874,-3.2775,-3.298,-3.3086,-3.3122,-3.3016,-3.3016,-3.3016,-3.3016,-3.3086,-3.3157,-3.3157,-3.3255,-3.329,-3.329,-3.329,-3.2876,-3.1808,-3.1583,-3.1021,-2.9897,-2.9701,-2.9617,-2.9617,-2.9167,-2.8914,-2.8914,-2.8436,-2.8157,-2.8016,-2.7509,-2.7425,-2.7791,-2.6807,-2.6582,-3.7537,-3.7082,-3.6933,-3.641,-3.6332,-3.6661,-3.794,-3.6968,-3.6096,-3.6873,-3.7006,-3.7099,-3.7428,-3.8127,-3.8867,-3.9494,-4.0043,-4.054,-4.1115,-4.1193,-4.1219,-4.1246,-4.0278,-3.9599,-3.9695,-3.8699,-3.809,-3.8083,-3.8326,-3.8226,-3.7627,-3.7823,-3.7659,-3.7011,-3.7049,-3.7149,-3.7215,-3.655,-3.6302,-3.6509,-3.5796,-3.5091,-3.4497,-3.4405,-3.3573,-3.2264,-3.2209,-3.1773,-3.1086,-3.1011,-3.1691,-3.2647,-3.1482,-3.1026,-3.1104,-3.1026,-3.0973,-3.0973,-3.0973,-3.0973,-3.0973,-3.0973,-3.1011,-3.1048,-3.1048,-3.1347,-3.1653,-3.1616,-3.1653,-3.1836,-3.2561,-3.2739,-3.2704,-3.2739,-3.2739,-3.2596,-3.2273,-3.2453,-3.2596,-3.2237,-3.2489,-3.2632,-3.2237,-3.22,-3.22,-3.22,-3.2489,-3.2739,-3.2739,-3.3086,-3.329,-3.329,-3.329,-3.3045,-3.2398,-3.1808,-3.119,-3.0484,-2.9926,-2.9617,-2.9617,-2.956,-2.956,-2.956,-2.9504,-2.9195,-2.8633,-2.8577,-2.8296,-2.7819,-2.7707,-2.7707,-3.6432,-3.6462,-3.6959,-3.6724,-3.6296,-3.6267,-3.7505,-3.7469,-3.733,-3.8031,-3.8137,-3.8185,-3.8302,-3.8674,-3.9203,-3.9823,-4.0494,-4.1063,-4.1272,-4.0984,-4.0749,-4.0749,-3.973,-3.905,-3.905,-3.8344,-3.79,-3.79,-3.7342,-3.7117,-3.7373,-3.6852,-3.6423,-3.6175,-3.666,-3.634,-3.5095,-3.4841,-3.438,-3.3701,-3.4159,-3.4326,-3.4176,-3.367,-3.2937,-3.211,-3.211,-3.1663,-3.0973,-3.0973,-3.1444,-3.2084,-3.1679,-3.1287,-3.0973,-3.0973,-3.0973,-3.0973,-3.0973,-3.0973,-3.0973,-3.0973,-3.0973,-3.0973,-3.0973,-3.1272,-3.1569,-3.131,-3.1421,-3.169,-3.22,-3.2164,-3.2055,-3.2273,-3.2164,-3.2019,-3.2092,-3.2055,-3.2019,-3.2092,-3.2237,-3.2273,-3.2128,-3.2092,-3.2092,-3.2092,-3.2237,-3.2417,-3.2668,-3.281,-3.3016,-3.329,-3.2988,-3.2651,-3.2426,-3.1836,-3.1218,-3.054,-2.9954,-2.9617,-2.9617,-2.9617,-2.9617,-2.9617,-2.9617,-2.9504,-2.9251,-2.8886,-2.8774,-2.8886,-2.8157,-2.8016,-3.577,-3.573,-3.6175,-3.6175,-3.5843,-3.5797,-3.6825,-3.736,-3.7836,-3.8657,-3.8758,-3.8628,-3.8472,-3.8768,-3.922,-3.9607,-4.0504,-4.1095,-4.0913,-4.0621,-4.0357,-4.0174,-3.9311,-3.871,-3.871,-3.8057,-3.7612,-3.7612,-3.6515,-3.6121,-3.6695,-3.5814,-3.5277,-3.5277,-3.5665,-3.521,-3.3804,-3.3434,-3.2853,-3.2137,-3.2691,-3.3067,-3.3175,-3.2614,-3.2139,-3.1736,-3.1736,-3.1468,-3.0973,-3.0973,-3.1209,-3.1562,-3.1719,-3.1458,-3.0973,-3.0973,-3.0973,-3.0973,-3.0973,-3.0973,-3.0973,-3.0973,-3.0973,-3.0973,-3.0973,-3.1198,-3.1347,-3.1086,-3.1198,-3.1458,-3.169,-3.1653,-3.1653,-3.1873,-3.1763,-3.1643,-3.1726,-3.1653,-3.1643,-3.1726,-3.1998,-3.2142,-3.2021,-3.2021,-3.2021,-3.2021,-3.1971,-3.2019,-3.2309,-3.2561,-3.2846,-3.3255,-3.2932,-3.2679,-3.2679,-3.2117,-3.1583,-3.1134,-3.0347,-2.9813,-2.9617,-2.9617,-2.9617,-2.9617,-2.9617,-2.9617,-2.9617,-2.9195,-2.9195,-2.9588,-2.8745,-2.8577,-3.577,-3.4842,-3.4397,-3.4397,-3.4673,-3.5141,-3.6006,-3.6447,-3.7099,-3.8592,-3.8616,-3.8256,-3.7698,-3.827,-3.8774,-3.8774,-3.9971,-4.0663,-4.007,-4.0213,-4.02,-3.9651,-3.9076,-3.871,-3.871,-3.7665,-3.6985,-3.7011,-3.594,-3.5286,-3.5286,-3.4737,-3.4397,-3.4397,-3.3875,-3.3661,-3.3777,-3.2472,-3.1902,-3.2074,-3.1357,-3.0973,-3.0973,-3.0973,-3.0973,-3.0973,-3.0973,-3.0973,-3.0973,-3.0973,-3.0973,-3.1052,-3.1562,-3.1496,-3.0973,-3.0973,-3.0973,-3.0973,-3.0973,-3.0973,-3.0973,-3.0973,-3.0973,-3.0973,-3.0973,-3.0973,-3.0973,-3.0973,-3.0973,-3.0973,-3.0973,-3.131,-3.1606,-3.1606,-3.1606,-3.1495,-3.1086,-3.131,-3.1495,-3.1075,-3.1747,-3.2296,-3.1874,-3.1823,-3.1823,-3.1823,-3.1679,-3.1606,-3.1606,-3.2237,-3.2846,-3.3255,-3.329,-3.329,-3.329,-3.2764,-3.2426,-3.2398,-3.1218,-3.0231,-2.9645,-2.9617,-2.9617,-2.9617,-2.9617,-2.9617,-2.9617,-2.9617,-2.9617,-2.9617,-2.9617,-2.9617,-3.4788,-3.4241,-3.4397,-3.4397,-3.4673,-3.5141,-3.6051,-3.6467,0.0,-3.8567,-3.8844,-3.8591,-3.7962,-3.8258,-3.838,-3.8046,-3.8777,-3.9432,-3.9424,-3.9206,-3.899,-3.895,-3.8475,-3.8135,-3.8135,-3.7063,-3.6541,-3.6959,-3.5547,-3.4842,-3.5286,-3.4737,-3.4397,-3.4397,-3.3875,-3.342,-3.3027,-3.2201,-3.1663,-3.132,-3.1086,-3.0973,-3.0973,-3.0973,-3.0973,-3.0973,-3.0973,-3.0973,-3.0973,-3.0973,-3.0973,-3.0999,-3.1182,-3.113,-3.0973,-3.0973,-3.0973,-3.0973,-3.0973,-3.0973,-3.0973,-3.0973,-3.0973,-3.0973,-3.0973,-3.0973,-3.0973,-3.0973,-3.0973,-3.0973,-3.0973,-3.1086,-3.1161,-3.1161,-3.1161,-3.1161,-3.1011,-3.1363,-3.1689,-3.1601,-3.2123,-3.2594,-3.2437,-3.2437,-3.2437,-3.2437,-3.2397,-3.2328,-3.2171,-3.2509,-3.2739,-3.2846,-3.3122,-3.329,-3.329,-3.3122,-3.2876,-3.2426,-3.164,-3.0909,-3.0259,-2.9841,-2.9617,-2.9617,-2.9617,-2.9617,-2.9617,-2.9617,-2.9617,-2.9617,-2.9617,-2.9617,-3.4338,-3.3883,-3.4136,-3.4345,-3.4871,-3.5608,-3.6431,-3.693,-3.7556,-3.8668,-3.8693,-3.8366,-3.7789,-3.7835,-3.7832,-3.7478,-3.8151,-3.8625,-3.8566,-3.8471,-3.835,-3.821,-3.8063,-3.7821,-3.756,-3.6671,-3.6175,-3.6305,-3.5129,-3.4554,-3.492,-3.4397,-3.4084,-3.4084,-3.33,-3.2725,-3.2359,-3.1784,-3.1339,-3.0973,-3.0973,-3.0973,-3.0973,-3.0973,-3.0973,-3.0973,-3.0973,-3.0973,-3.0973,-3.0973,-3.0973,-3.0973,-3.0973,-3.0973,-3.0973,-3.0973,-3.0973,-3.0973,-3.0973,-3.0973,-3.0973,-3.0973,-3.0973,-3.0973,-3.0973,-3.0973,-3.0973,-3.0973,-3.0973,-3.0973,-3.0973,-3.0973,-3.0973,-3.0973,-3.0973,-3.1052,-3.1287,-3.1562,-3.1876,-3.2084,-3.2646,-3.3064,-3.3064,-3.2855,-3.2698,-3.2698,-3.2306,-3.2042,-3.2091,-3.2199,-3.2381,-3.2668,-3.2945,-3.3122,-3.329,-3.329,-3.3122,-3.2792,-3.2202,-3.1583,-3.0937,-3.0066,-2.9617,-2.9617,-2.9617,-2.9617,-2.9617,-2.9617,-2.9617,-2.9617,-2.9617,-2.9617,-3.441,-3.3794,-3.3744,-3.4397,-3.5417,-3.6389,-3.7021,-3.7597,-3.814,-3.8668,-3.8341,-3.7839,-3.7287,-3.7186,-3.7161,-3.7111,-3.7733,-3.803,-3.7571,-3.7925,-3.8075,-3.7557,-3.7716,-3.7619,-3.7063,-3.641,-3.5835,-3.5338,-3.4685,-3.4319,-3.4319,-3.3849,-3.3561,-3.3509,-3.2372,-3.1797,-3.1797,-3.1287,-3.0973,-3.0973,-3.0973,-3.0973,-3.0973,-3.0973,-3.0973,-3.0973,-3.0973,-3.0973,-3.0973,-3.0973,-3.0973,-3.0973,-3.0973,-3.0973,-3.0973,-3.0973,-3.0973,-3.0973,-3.0973,-3.0973,-3.0973,-3.0973,-3.0973,-3.0973,-3.0973,-3.0973,-3.0973,-3.0973,-3.0973,-3.0973,-3.0973,-3.0973,-3.0973,-3.0973,-3.0973,-3.113,-3.1667,-3.185,-3.2058,-3.2646,-3.3247,-3.3666,-3.3666,-3.3169,-3.2751,-3.2698,-3.1757,-3.1202,-3.1575,-3.1633,-3.1836,-3.2525,-3.2632,-3.281,-3.3192,-3.3255,-3.3255,-3.329,-3.2736,-3.2145,-3.1583,-3.0431,-2.9729,-2.9617,-2.9645,-2.9645,-2.9617,-2.9617,-2.9617,-2.9617,-2.9617,-2.9617,-3.5581,-3.4486,-3.3927,-3.5391,-3.6486,-3.7298,-3.7668,-3.7741,-3.7655,-3.7561,-3.7789,-3.7839,-3.7287,-3.7186,-3.7036,-3.6656,-3.6729,-3.6849,-3.6865,-3.7006,-3.719,-3.7485,-3.7551,-3.741,-3.7063,-3.607,-3.5417,-3.5312,-3.4345,-3.377,-3.377,-3.3666,-3.3378,-3.2908,-3.2163,-3.1797,-3.1797,-3.1287,-3.0973,-3.0973,-3.0973,-3.0973,-3.0973,-3.0973,-3.0973,-3.0973,-3.0973,-3.0973,-3.0973,-3.0973,-3.0973,-3.0973,-3.0973,-3.0973,-3.0973,-3.0973,-3.0973,-3.0973,-3.0973,-3.0973,-3.0973,-3.0973,-3.0973,-3.0973,-3.0973,-3.0973,-3.0973,-3.0973,-3.0973,-3.0973,-3.0973,-3.0973,-3.0973,-3.0973,-3.0973,-3.113,-3.1667,-3.2163,-3.2672,-3.3273,-3.3849,-3.4214,-3.4214,-3.377,-3.3247,-3.2751,-3.2097,-3.1653,-3.173,-3.1675,-3.1653,-3.18,-3.2055,-3.2381,-3.2775,-3.281,-3.298,-3.329,-3.2736,-3.2342,-3.2202,-3.1499,-3.0628,-2.9617,-3.0062,-3.0062,-2.9617,-2.9617,-2.9617,-2.9617,-2.9617,-2.9617,-3.5753,-3.5031,-3.4909,-3.6184,-3.713,-3.7675,-3.7727,-3.7522,-3.726,-3.7023,-3.7333,-3.7437,-3.6933,-3.6832,-3.6757,-3.6455,-3.6405,-3.6452,-3.6546,-3.6615,-3.6803,-3.7062,-3.7108,-3.6904,-3.6467,-3.5722,-3.5182,-3.4894,-3.4084,-3.3587,-3.3587,-3.3064,-3.262,-3.2306,-3.1731,-3.1444,-3.1444,-3.113,-3.0973,-3.0973,-3.0973,-3.0973,-3.0973,-3.0973,-3.0973,-3.0973,-3.0973,-3.0973,-3.0973,-3.0973,-3.0973,-3.0973,-3.0973,-3.0973,-3.0973,-3.0973,-3.0973,-3.0973,-3.0973,-3.0973,-3.0973,-3.0973,-3.0973,-3.0973,-3.0973,-3.0973,-3.0973,-3.0973,-3.0973,-3.0973,-3.0973,-3.0973,-3.0973,-3.0973,-3.0973,-3.113,-3.1667,-3.2032,-3.2542,-3.343,-3.3587,-3.3666,-3.3953,-3.3535,-3.296,-3.2385,-3.198,-3.1797,-3.1797,-3.1529,-3.1384,-3.1606,-3.1763,-3.2019,-3.2381,-3.2596,-3.2775,-3.3016,-3.2912,-3.2707,-3.2426,-3.2398,-3.164,-3.0066,-3.0315,-3.0175,-2.9617,-2.9617,-2.9617,-2.9617,-2.9617,-2.9617,-3.5926,-3.5764,-3.6128,-3.6709,-3.7377,-3.7854,-3.7551,-3.732,-3.7108,-3.6803,-3.69,-3.6958,-3.648,-3.6405,-3.6405,-3.6405,-3.6405,-3.6405,-3.6405,-3.6546,-3.6662,-3.6709,-3.6596,-3.6373,-3.5875,-3.5522,-3.5051,-3.445,-3.3901,-3.3535,-3.343,-3.2372,-3.1771,-3.1667,-3.1235,-3.0973,-3.0973,-3.0973,-3.0973,-3.0973,-3.0973,-3.0973,-3.0973,-3.0973,-3.0973,-3.0973,-3.0764,-3.0817,-3.0973,-3.0869,-3.0895,-3.0973,-3.0973,-3.0973,-3.0973,-3.0973,-3.0973,-3.0973,-3.0973,-3.0973,-3.0973,-3.0973,-3.0973,-3.0973,-3.0973,-3.0973,-3.0973,-3.0973,-3.0973,-3.0973,-3.0973,-3.0973,-3.0973,-3.0973,-3.1052,-3.1261,-3.1693,-3.1797,-3.2111,-3.3221,-3.3038,-3.2855,-3.3352,-3.3012,-3.2515,-3.1876,-3.1876,-3.1928,-3.1823,-3.1418,-3.1228,-3.1458,-3.1495,-3.1616,-3.1982,-3.2309,-3.2525,-3.2596,-3.298,-3.2968,-3.2464,-3.301,-3.2505,-3.0848,-3.0708,-3.0375,-2.9757,-2.9757,-2.9757,-2.9757,-2.9757,-2.9701,-3.7543,-3.733,-3.6972,-3.6393,-3.7063,-3.7854,-3.7551,-3.7459,-3.7366,-3.7108,-3.6738,-3.6505,-3.643,-3.6405,-3.6405,-3.6405,-3.6405,-3.6405,-3.6405,-3.6405,-3.6499,-3.6662,-3.6458,-3.6193,-3.583,-3.5522,-3.5051,-3.445,-3.3901,-3.3352,-3.2829,-3.2163,-3.1562,-3.1104,-3.1026,-3.0973,-3.0973,-3.0973,-3.0973,-3.0973,-3.0973,-3.0973,-3.0973,-3.0973,-3.0973,-3.0921,-2.9964,-3.0095,-3.0947,-3.0451,-3.0529,-3.0973,-3.0973,-3.0973,-3.0973,-3.0973,-3.0973,-3.0973,-3.0973,-3.0973,-3.0973,-3.0973,-3.0973,-3.0973,-3.0973,-3.0973,-3.0973,-3.0973,-3.0973,-3.0973,-3.0973,-3.0973,-3.0973,-3.0973,-3.1365,-3.1719,-3.1771,-3.1797,-3.198,-3.2698,-3.2751,-3.2725,-3.2803,-3.2751,-3.2515,-3.1876,-3.2254,-3.2411,-3.1876,-3.1745,-3.1548,-3.1101,-3.1086,-3.1235,-3.1643,-3.1726,-3.1873,-3.2164,-3.2561,-3.2747,-3.2664,-3.3094,-3.296,-3.2174,-3.164,-3.105,-3.0371,-3.0371,-3.0371,-3.0371,-3.0371,-3.0091,-3.797,-3.745,-3.6911,-3.724,-3.7342,-3.7358,-3.7241,-3.7105,-3.6864,-3.649,-3.6095,-3.5897,-3.6109,-3.6298,-3.6304,-3.5956,-3.5906,-3.6006,-3.6355,-3.6107,-3.5952,-3.6045,-3.5907,-3.5641,-3.5164,-3.4942,-3.4685,-3.4424,-3.3901,-3.3326,-3.2725,-3.2111,-3.1536,-3.0999,-3.0973,-3.0973,-3.0973,-3.0973,-3.0973,-3.0973,-3.0973,-3.0973,-3.0973,-3.066,-3.0503,-3.0477,-2.998,-2.9849,-3.0032,-3.0111,-3.0257,-3.0529,-3.0869,-3.0973,-3.0973,-3.0973,-3.0973,-3.0973,-3.0973,-3.0973,-3.0973,-3.0973,-3.0973,-3.0973,-3.0973,-3.0973,-3.0973,-3.0973,-3.0973,-3.0973,-3.0973,-3.0973,-3.0973,-3.0973,-3.1418,-3.1797,-3.1797,-3.1797,-3.1771,-3.1757,-3.2254,-3.2594,-3.2254,-3.2489,-3.2725,-3.2803,-3.3038,-3.2986,-3.2385,-3.2006,-3.1719,-3.1458,-3.1182,-3.1179,-3.1645,-3.1644,-3.1653,-3.18,-3.2381,-3.2704,-3.2704,-3.3086,-3.3045,-3.2426,-3.2145,-3.1696,-3.105,-3.105,-3.105,-3.105,-3.0652,-3.0343,-3.7448,-3.7013,-3.6755,-3.7271,-3.7267,-3.7042,-3.682,-3.6642,-3.6378,-3.5963,-3.5664,-3.5519,-3.5641,-3.6003,-3.6074,-3.5475,-3.5579,-3.5805,-3.5931,-3.583,-3.5608,-3.5332,-3.5384,-3.5168,-3.4648,-3.4484,-3.4397,-3.4397,-3.3901,-3.3326,-3.2725,-3.2111,-3.1536,-3.0999,-3.0973,-3.0973,-3.0973,-3.0973,-3.0973,-3.0973,-3.0973,-3.0973,-3.0973,-3.0529,-3.0231,-3.01,-2.9944,-2.9771,-2.9536,-2.9918,-3.0179,-3.0361,-3.0817,-3.0973,-3.0973,-3.0973,-3.0973,-3.0973,-3.0973,-3.0973,-3.0973,-3.0973,-3.0973,-3.0973,-3.0973,-3.0973,-3.1026,-3.1156,-3.1209,-3.1235,-3.1392,-3.1418,-3.1418,-3.1418,-3.1862,-3.2215,-3.2058,-3.2032,-3.1902,-3.1496,-3.2097,-3.2568,-3.2084,-3.2542,-3.3064,-3.3509,-3.3718,-3.3587,-3.2986,-3.2542,-3.2189,-3.2032,-3.1679,-3.1522,-3.1771,-3.171,-3.1617,-3.1458,-3.2055,-3.2417,-3.2417,-3.2909,-3.2961,-3.2485,-3.2554,-3.2342,-3.1724,-3.1724,-3.1724,-3.1696,-3.1078,-3.0652,-3.5658,-3.6237,-3.6702,-3.5264,-3.6129,-3.7144,-3.6323,-3.6149,-3.6105,-3.6079,-3.5929,-3.5598,-3.5081,-3.5507,-3.575,-3.5193,-3.584,-3.6003,-3.4951,-3.568,-3.5931,-3.4901,-3.5156,-3.5168,-3.4648,-3.4484,-3.4397,-3.4397,-3.3901,-3.3326,-3.2725,-3.2111,-3.1536,-3.0999,-3.0973,-3.0973,-3.0973,-3.0973,-3.0973,-3.0973,-3.0973,-3.0973,-3.0973,-3.0947,-3.0634,-3.0074,-2.9562,-2.9614,-3.0048,-3.01,-3.0451,-3.0947,-3.0973,-3.0973,-3.0973,-3.0973,-3.0973,-3.0973,-3.0973,-3.0973,-3.0973,-3.0973,-3.0973,-3.0973,-3.0973,-3.0973,-3.1104,-3.1615,-3.1771,-3.1876,-3.2463,-3.2594,-3.2594,-3.2594,-3.3064,-3.3352,-3.2777,-3.2646,-3.2646,-3.262,-3.2646,-3.2672,-3.2646,-3.3143,-3.3561,-3.3587,-3.4031,-3.4162,-3.3613,-3.3509,-3.3273,-3.2698,-3.262,-3.2385,-3.185,-3.1771,-3.1575,-3.1063,-3.1421,-3.1653,-3.1653,-3.2345,-3.2739,-3.2684,-3.3058,-3.2988,-3.2342,-3.2342,-3.2342,-3.2342,-3.1724,-3.1106,-3.6234,-3.6318,-3.6445,-3.6119,-3.61,-3.5977,-3.5168,-3.5312,-3.5391,-3.4633,-3.4705,-3.4845,-3.4611,-3.5156,-3.5392,-3.4875,-3.4882,-3.5102,-3.5431,-3.537,-3.5303,-3.5207,-3.5288,-3.5168,-3.4648,-3.4484,-3.4397,-3.4397,-3.4214,-3.3692,-3.2751,-3.2515,-3.194,-3.1026,-3.0973,-3.0973,-3.0973,-3.0973,-3.0973,-3.0973,-3.0973,-3.0973,-3.0973,-3.0973,-3.0477,-2.9614,-3.0137,-3.0085,-2.9614,-2.9944,-3.0231,-3.0477,-3.0843,-3.0973,-3.0973,-3.0973,-3.0973,-3.0973,-3.0973,-3.0973,-3.0973,-3.0973,-3.0973,-3.0973,-3.0973,-3.0973,-3.1104,-3.1641,-3.1797,-3.1928,-3.2542,-3.2698,-3.2803,-3.3169,-3.343,-3.3639,-3.377,-3.3796,-3.3561,-3.2829,-3.2698,-3.2803,-3.3195,-3.3117,-3.3273,-3.4005,-3.4267,-3.4214,-3.3666,-3.3587,-3.3509,-3.33,-3.2934,-3.2594,-3.2411,-3.2006,-3.1562,-3.1026,-3.1384,-3.1606,-3.1606,-3.2055,-3.2453,-3.2704,-3.2846,-3.2939,-3.2988,-3.2988,-3.2988,-3.2988,-3.237,-3.1949,-3.6267,-3.6225,-3.6341,-3.6541,-3.5958,-3.5246,-3.4911,-3.4605,-3.4319,-3.3953,-3.4005,-3.4188,-3.4371,-3.4769,-3.4925,-3.4495,-3.4535,-3.4749,-3.5243,-3.5183,-3.5123,-3.5207,-3.5359,-3.5168,-3.4648,-3.4666,-3.4607,-3.4424,-3.458,-3.411,-3.2751,-3.2698,-3.2176,-3.1026,-3.0973,-3.0973,-3.0973,-3.0973,-3.0973,-3.0973,-3.0973,-3.0973,-3.0973,-3.0973,-3.0581,-2.9938,-3.066,-3.0346,-2.9388,-3.0111,-3.0388,-3.0451,-3.0843,-3.0973,-3.0973,-3.0973,-3.0973,-3.0973,-3.0973,-3.0973,-3.0973,-3.0973,-3.0973,-3.0973,-3.0973,-3.0973,-3.1104,-3.1641,-3.1954,-3.2215,-3.2855,-3.3143,-3.3352,-3.377,-3.3875,-3.3953,-3.4319,-3.4397,-3.411,-3.3169,-3.3143,-3.3326,-3.3561,-3.3404,-3.3509,-3.4293,-3.4397,-3.4267,-3.3901,-3.3875,-3.3875,-3.3875,-3.3509,-3.3195,-3.3012,-3.2463,-3.185,-3.1313,-3.1525,-3.1596,-3.1421,-3.1914,-3.2235,-3.2309,-3.2453,-3.2704,-3.3086,-3.3086,-3.3157,-3.3262,-3.2541,-3.215,0.0,0.0,0.0,-3.6225,-3.5653,-3.519,-3.5568,-3.414,-3.3052,-3.4151,-3.3994,-3.3744,-3.4293,-3.4397,-3.4356,-3.4173,-3.4804,-3.5123,-3.4368,-3.5212,-3.5654,-3.4871,-3.5156,-3.5237,-3.4699,-3.5055,-3.5077,-3.4476,-3.4972,-3.4528,-3.2777,-3.2646,-3.2123,-3.1026,-3.0973,-3.0973,-3.0947,-3.0973,-3.0973,-3.0947,-3.0973,-3.0973,-3.0973,-3.0973,-3.0973,-3.0947,-3.0973,-3.0346,-2.9405,-3.0566,-3.0973,-3.0973,-3.0973,-3.0973,-3.0973,-3.0973,-3.0973,-3.0973,-3.0973,-3.0973,-3.0973,-3.0973,-3.0973,-3.0973,-3.0973,-3.0973,-3.1104,-3.1667,-3.2254,-3.2829,-3.3456,-3.4005,-3.4397,-3.4397,-3.4397,-3.4397,-3.4397,-3.4397,-3.4241,-3.3718,-3.4031,-3.4214,-3.3692,-3.4031,-3.4397,-3.4424,-3.4424,-3.4424,-3.445,-3.4424,-3.4424,-3.4424,-3.4397,-3.4188,-3.3639,-3.3064,-3.2463,-3.185,-3.1823,-3.1562,-3.1052,-3.1929,-3.2117,-3.1633,-3.1936,-3.2273,-3.2668,-3.2704,-3.2881,-3.3262,-3.2298,-3.1749,-3.5519,0.0,0.0,0.0,0.0,0.0,-3.4659,-3.4001,-3.3575,-3.3897,-3.378,-3.3744,-3.4293,-3.4397,-3.4397,-3.4314,-3.4727,-3.5123,-3.5318,-3.5827,-3.6228,-3.6437,-3.6334,-3.618,-3.607,-3.5947,-3.5652,-3.5077,-3.5208,-3.4528,-3.2777,-3.1914,-3.1313,-3.0999,-3.0973,-3.079,-3.0335,-3.079,-3.079,-3.0335,-3.079,-3.0973,-3.0973,-3.0973,-3.0764,-3.0361,-3.0817,-3.0581,-2.9954,-3.0686,-3.0973,-3.0973,-3.0973,-3.0973,-3.0973,-3.0973,-3.0973,-3.0973,-3.0973,-3.0973,-3.0973,-3.0973,-3.0973,-3.0973,-3.0973,-3.0973,-3.1182,-3.2176,-3.2568,-3.2908,-3.3927,-3.4293,-3.4397,-3.4397,-3.4397,-3.4397,-3.4397,-3.4397,-3.4345,-3.4214,-3.3979,-3.3901,-3.4136,-3.3979,-3.4084,-3.492,-3.5051,-3.5182,-3.5574,-3.5286,-3.5051,-3.5051,-3.4659,-3.4188,-3.3639,-3.343,-3.3091,-3.2489,-3.2463,-3.2385,-3.2228,-3.2044,-3.2026,-3.2182,-3.1893,-3.1909,-3.2273,-3.2561,-3.2775,-3.2846,-3.2573,-3.2583,-3.5519,-3.5519,-3.5541,-3.5697,0.0,0.0,-3.4961,-3.424,-3.3679,-3.4163,-3.3742,-3.3529,-3.4046,-3.4079,-3.4058,-3.4058,-3.4611,-3.5236,-3.5719,-3.5948,-3.6347,-3.7006,-3.6779,-3.6625,-3.6625,-3.6538,-3.6149,-3.5365,-3.5286,-3.4424,-3.2437,-3.147,-3.0973,-3.0973,-3.0973,-3.0712,-3.01,-3.0477,-3.0477,-3.01,-3.0477,-3.0764,-3.0973,-3.0973,-3.0817,-3.0503,-3.0843,-3.079,-3.0503,-3.0843,-3.0973,-3.0973,-3.0973,-3.0973,-3.0973,-3.0973,-3.0973,-3.0973,-3.0973,-3.0973,-3.0973,-3.0973,-3.0973,-3.0973,-3.0973,-3.1156,-3.147,-3.215,-3.2698,-3.3273,-3.4162,-3.4397,-3.4397,-3.4397,-3.4397,-3.4397,-3.4397,-3.4607,-3.4685,-3.445,-3.4345,-3.4319,-3.4397,-3.4528,-3.4789,-3.5234,-3.5495,-3.5757,-3.607,-3.5835,-3.5626,-3.5626,-3.5312,-3.4894,-3.4345,-3.4084,-3.3692,-3.3117,-3.3064,-3.296,-3.2698,-3.262,-3.2516,-3.2551,-3.2246,-3.2117,-3.225,-3.2264,-3.2237,-3.2237,-3.2561,-3.281,-3.5519,-3.5519,-3.5639,-3.6237,-3.5473,0.0,-3.5863,-3.4724,-3.3741,-3.4731,-3.3984,-3.3288,-3.3788,-3.3794,-3.3709,-3.3587,-3.4502,-3.5331,-3.5686,-3.5823,-3.6218,-3.6996,-3.6896,-3.6774,-3.6774,-3.6955,-3.6619,-3.5469,-3.5155,-3.411,-3.2006,-3.1339,-3.0973,-3.0973,-3.0973,-3.0686,-3.0022,-3.0074,-3.0048,-2.9892,-3.0048,-3.0361,-3.0895,-3.0947,-3.0973,-3.0973,-3.0921,-3.0921,-3.0973,-3.0921,-3.0921,-3.0973,-3.0973,-3.0973,-3.0973,-3.0973,-3.0973,-3.0973,-3.0973,-3.0973,-3.0973,-3.0973,-3.0973,-3.0973,-3.0973,-3.1392,-3.1823,-3.1954,-3.2829,-3.3796,-3.4267,-3.4397,-3.4397,-3.4397,-3.4397,-3.4397,-3.4397,-3.4816,-3.5051,-3.458,-3.4972,-3.5208,-3.4685,-3.5443,-3.5966,-3.5547,-3.5887,-3.6227,-3.6305,-3.6253,-3.6201,-3.6201,-3.6149,-3.5913,-3.5443,-3.4894,-3.4371,-3.3901,-3.3822,-3.3535,-3.3012,-3.3378,-3.3352,-3.2803,-3.2725,-3.2633,-3.2452,-3.1862,-3.1643,-3.1653,-3.2309,-3.2596,-3.5519,-3.5519,-3.5549,-3.5669,-3.5869,0.0,-3.5707,-3.5229,-3.4946,-3.5101,-3.4476,-3.4002,-3.4446,-3.4509,-3.43,-3.3709,-3.4136,-3.4789,-3.5348,-3.6165,-3.6843,-3.7007,-3.7417,-3.7625,-3.7625,-3.7671,-3.722,-3.6044,-3.4241,-3.3012,-3.2542,-3.1548,-3.0973,-3.0973,-3.0973,-3.0477,-2.9457,-2.9865,-2.9631,-2.8726,-2.9631,-3.0153,-3.0283,-3.079,-3.0973,-3.0947,-3.0503,-3.0555,-3.0947,-3.0503,-3.0581,-3.0973,-3.0973,-3.0973,-3.0973,-3.0973,-3.0973,-3.0973,-3.0973,-3.0973,-3.0973,-3.0973,-3.0973,-3.0973,-3.0973,-3.1392,-3.2006,-3.2986,-3.3718,-3.4267,-3.4371,-3.4397,-3.4397,-3.4397,-3.4397,-3.4397,-3.4397,-3.4476,-3.4685,-3.5051,-3.5574,-3.5913,-3.5783,-3.5966,-3.6227,-3.6619,-3.675,-3.7011,-3.7482,-3.7116,-3.6828,-3.6828,-3.6384,-3.607,-3.594,-3.5835,-3.573,-3.5626,-3.5208,-3.492,-3.4789,-3.4005,-3.3535,-3.343,-3.2934,-3.266,-3.2633,-3.1925,-3.1726,-3.1982,-3.1873,-3.1946,-3.5519,-3.5519,-3.5579,-3.5908,-3.5998,0.0,0.0,-3.5703,-3.5406,-3.5339,-3.4737,-3.4249,-3.4478,-3.4464,-3.4241,-3.3779,-3.3914,-3.4271,-3.4753,-3.5835,-3.6671,-3.6959,-3.7534,-3.79,-3.79,-3.79,-3.7299,-3.5809,-3.411,-3.2881,-3.2267,-3.1444,-3.0973,-3.0973,-3.0973,-3.0581,-2.9719,-2.9719,-2.9405,-2.8865,-2.9431,-2.9813,-3.0127,-3.0712,-3.0843,-3.0529,-3.0231,-3.0257,-3.0529,-3.0205,-3.0477,-3.0973,-3.0973,-3.0973,-3.0973,-3.0973,-3.0973,-3.0973,-3.0973,-3.0973,-3.0973,-3.0973,-3.1182,-3.1418,-3.1418,-3.2019,-3.2881,-3.3744,-3.4188,-3.4397,-3.4397,-3.4397,-3.4397,-3.4397,-3.4397,-3.4397,-3.4397,-3.4633,-3.4946,-3.5234,-3.5992,-3.6462,-3.6149,-3.6358,-3.6645,-3.6959,-3.7246,-3.756,-3.7874,-3.7639,-3.7456,-3.7456,-3.7194,-3.6881,-3.6567,-3.6541,-3.6436,-3.6123,-3.5861,-3.5704,-3.5704,-3.5155,-3.4711,-3.445,-3.3587,-3.3143,-3.3143,-3.2488,-3.2231,-3.2384,-3.2128,-3.2268,-3.5848,-3.5878,-3.5968,-3.6387,-3.6178,-3.5938,0.0,0.0,0.0,-3.5519,-3.4971,-3.4539,-3.4486,-3.4403,-3.4228,-3.4087,-3.4,-3.4095,-3.4413,-3.5293,-3.6175,-3.675,-3.7168,-3.7534,-3.7874,-3.7691,-3.7011,-3.573,-3.4371,-3.3169,-3.2189,-3.1522,-3.1104,-3.0973,-3.0973,-3.0712,-3.01,-2.9562,-2.931,-2.931,-2.9205,-2.9457,-3.0127,-3.0607,-3.0634,-3.0257,-3.0022,-3.0048,-3.0257,-3.0022,-3.0372,-3.0973,-3.0973,-3.0973,-3.0973,-3.0973,-3.0973,-3.0973,-3.0973,-3.0973,-3.0973,-3.0973,-3.1365,-3.1823,-3.1928,-3.2751,-3.3718,-3.4241,-3.4397,-3.4397,-3.4397,-3.4397,-3.4397,-3.4397,-3.4397,-3.4397,-3.4397,-3.4789,-3.5155,-3.5286,-3.594,-3.6462,-3.6305,-3.6776,-3.7168,-3.7168,-3.7586,-3.79,-3.79,-3.79,-3.79,-3.79,-3.79,-3.7717,-3.722,-3.7168,-3.6959,-3.6488,-3.6332,-3.6279,-3.6279,-3.6175,-3.5887,-3.5469,-3.4554,-3.4031,-3.3927,-3.33,-3.2908,-3.2672,-3.2513,-3.272,-3.7045,-3.7195,-3.7075,-3.6596,-3.6836,-3.6926,-3.5848,0.0,-3.6207,-3.5639,0.0,-3.5311,-3.5131,0.0,0.0,-3.4975,-3.475,-3.4615,-3.475,-3.5133,-3.56,-3.6149,-3.5835,-3.6201,-3.7743,-3.6933,-3.6436,-3.6776,-3.4816,-3.3535,-3.3404,-3.2293,-3.1496,-3.0999,-3.0973,-3.0712,-3.01,-2.9562,-2.931,-2.931,-2.8786,-2.9065,-3.01,-3.0153,-3.0477,-3.0817,-2.9823,-2.9954,-3.0817,-2.9797,-3.0006,-3.0973,-3.0973,-3.0973,-3.0973,-3.0973,-3.0973,-3.0973,-3.0973,-3.0973,-3.0973,-3.0973,-3.1365,-3.1902,-3.2437,-3.3064,-3.3718,-3.4241,-3.4397,-3.4397,-3.4397,-3.4397,-3.4397,-3.4397,-3.4397,-3.4397,-3.4397,-3.445,-3.4659,-3.5182,-3.4972,-3.5155,-3.6645,-3.7403,-3.7795,-3.7795,-3.7874,-3.79,-3.79,-3.79,-3.79,-3.79,-3.79,-3.7874,-3.7795,-3.7795,-3.7769,-3.7717,-3.7194,-3.6907,-3.6907,-3.6384,-3.607,-3.6018,-3.5887,-3.5574,-3.5103,-3.4502,-3.3692,-3.2698,-3.266,-3.2699,-3.7345,-3.7135,-3.6896,-3.6985,-3.6656,-3.6267,-3.6118,-3.5998,-3.5848,-3.5579,0.0,0.0,0.0,0.0,0.0,0.0,-3.5123,-3.4855,-3.4294,-3.4095,-3.4419,-3.5486,-3.5704,-3.6044,-3.6776,-3.641,-3.607,-3.6018,-3.4789,-3.377,-3.3117,-3.2241,-3.1536,-3.0999,-3.0973,-3.0869,-3.0634,-3.0059,-2.9771,-2.9771,-2.951,-2.9631,-3.01,-3.0477,-3.0581,-3.0451,-2.964,-2.9745,-3.0424,-2.9614,-2.9954,-3.0973,-3.0973,-3.0973,-3.0973,-3.0973,-3.0973,-3.0973,-3.0973,-3.0973,-3.1104,-3.1757,-3.215,-3.2515,-3.3404,-3.3849,-3.411,-3.4345,-3.4659,-3.492,-3.492,-3.5155,-3.5312,-3.4999,-3.5155,-3.5208,-3.4528,-3.4685,-3.4894,-3.4789,-3.4868,-3.526,-3.6305,-3.6698,-3.6985,-3.7325,-3.7691,-3.79,-3.79,-3.79,-3.79,-3.79,-3.79,-3.79,-3.79,-3.79,-3.79,-3.79,-3.7665,-3.7534,-3.7534,-3.6959,-3.6619,-3.6619,-3.6279,-3.5992,-3.5757,-3.5521,-3.5129,-3.4659,-3.3666,-3.3378,-3.7584,-3.7345,-3.7075,-3.7345,-3.6716,-3.6058,-3.6178,-3.5998,-3.5759,-3.5759,-3.5908,0.0,0.0,0.0,-3.5948,-3.5815,0.0,-3.5375,-3.4788,-3.4248,-3.4151,-3.4942,-3.5809,-3.6279,-3.6123,-3.6096,-3.594,-3.5547,-3.4685,-3.3744,-3.2751,-3.2111,-3.1536,-3.0999,-3.0973,-3.0973,-3.0973,-3.0388,-3.0179,-3.0335,-3.0022,-3.0022,-3.0335,-3.0634,-3.0607,-3.0346,-2.9771,-2.9823,-3.0283,-2.9745,-3.0085,-3.0973,-3.0973,-3.0973,-3.0973,-3.0973,-3.0973,-3.0973,-3.0973,-3.1078,-3.1365,-3.2176,-3.2672,-3.3091,-3.3927,-3.4267,-3.4424,-3.4607,-3.4946,-3.5338,-3.5469,-3.5809,-3.5992,-3.56,-3.5809,-3.5887,-3.5051,-3.5077,-3.5208,-3.492,-3.4972,-3.5286,-3.5992,-3.6253,-3.6541,-3.7168,-3.7612,-3.79,-3.79,-3.79,-3.79,-3.79,-3.79,-3.79,-3.79,-3.79,-3.79,-3.79,-3.79,-3.79,-3.79,-3.7482,-3.7246,-3.7246,-3.6828,-3.6515,-3.6358,-3.6358,-3.6253,-3.607,-3.4842,-3.4424,-3.8033,-3.8332,-3.8182,-3.7554,-3.7375,-3.7015,-3.5818,-3.5998,-3.6447,-3.6447,-3.6926,-3.7345,-3.7345,-3.7345,-3.7345,-3.734,-3.6687,0.0,0.0,-3.6353,-3.5471,-3.4553,-3.594,-3.675,-3.6149,-3.6096,-3.6096,-3.607,-3.4554,-3.3352,-3.2725,-3.2111,-3.1536,-3.0999,-3.0973,-3.0973,-3.0973,-3.0388,-3.0361,-3.0947,-2.9823,-2.9876,-3.0947,-3.0361,-3.0451,-3.0921,-3.0346,-3.0424,-3.0921,-3.0309,-3.0451,-3.0973,-3.0973,-3.0973,-3.0973,-3.0973,-3.0973,-3.0973,-3.0973,-3.1339,-3.1771,-3.1823,-3.2646,-3.3561,-3.3613,-3.3979,-3.4528,-3.5103,-3.5286,-3.5417,-3.594,-3.6096,-3.6096,-3.6096,-3.6096,-3.6096,-3.6044,-3.5652,-3.5443,-3.594,-3.5182,-3.4789,-3.5913,-3.6593,-3.7194,-3.7795,-3.79,-3.79,-3.79,-3.79,-3.79,-3.79,-3.79,-3.79,-3.79,-3.79,-3.79,-3.79,-3.79,-3.79,-3.79,-3.7874,-3.7874,-3.7874,-3.7848,-3.756,-3.6985,-3.6985,-3.6671,-3.6096,-3.6044,-3.5757,-3.7614,-3.7434,-3.7165,-3.7375,-3.6776,-3.6148,-3.6148,-3.6327,-3.6477,-3.6477,-3.6985,-3.7404,-3.7404,-3.7404,-3.7404,-3.7404,-3.7555,-3.7382,0.0,-3.5894,-3.5404,-3.5515,-3.574,-3.5626,-3.5025,-3.4972,-3.4816,-3.4476,-3.3535,-3.2751,-3.2111,-3.1902,-3.1536,-3.0999,-3.0973,-3.0973,-3.0973,-3.079,-3.079,-3.1011,-3.0581,-3.0644,-3.0973,-3.079,-3.0817,-3.0947,-3.0335,-3.0451,-3.0947,-3.0335,-3.0477,-3.0973,-3.0973,-3.0973,-3.0973,-3.0973,-3.0973,-3.1026,-3.1418,-3.1914,-3.2463,-3.2855,-3.3273,-3.3666,-3.4005,-3.4267,-3.4528,-3.5129,-3.5547,-3.5966,-3.6541,-3.6985,-3.7194,-3.6802,-3.7011,-3.7063,-3.6279,-3.6279,-3.6253,-3.5678,-3.526,-3.5129,-3.5495,-3.573,-3.607,-3.6619,-3.7403,-3.7769,-3.7351,-3.7665,-3.79,-3.79,-3.79,-3.79,-3.79,-3.79,-3.79,-3.79,-3.79,-3.79,-3.79,-3.79,-3.79,-3.79,-3.79,-3.7795,-3.7612,-3.7612,-3.7508,-3.7299,-3.7299,-3.6776,-3.7015,-3.6776,-3.6567,-3.6985,-3.6477,-3.5968,-3.6387,-3.6656,-3.6806,-3.6806,-3.7524,-3.7973,-3.7494,-3.7793,-3.7973,-3.7494,-3.7973,-3.8012,0.0,-3.6411,-3.6276,-3.6484,-3.5816,-3.5235,-3.4921,-3.4789,-3.4319,-3.3352,-3.2908,-3.2359,-3.1536,-3.1548,-3.1365,-3.0999,-3.0973,-3.0973,-3.0973,-3.0973,-3.0973,-3.0973,-3.0973,-3.0973,-3.0973,-3.0973,-3.0973,-3.0973,-3.0607,-3.0634,-3.0947,-3.0581,-3.066,-3.0973,-3.0973,-3.0973,-3.0973,-3.0973,-3.1104,-3.1339,-3.1667,-3.2359,-3.3064,-3.3456,-3.3718,-3.3953,-3.4293,-3.4554,-3.4789,-3.5182,-3.5678,-3.6253,-3.6854,-3.7299,-3.7534,-3.7351,-3.7612,-3.7691,-3.6907,-3.6724,-3.6593,-3.6279,-3.573,-3.5417,-3.5835,-3.573,-3.5704,-3.6044,-3.6776,-3.7116,-3.6724,-3.722,-3.7586,-3.7586,-3.7769,-3.79,-3.79,-3.79,-3.79,-3.79,-3.79,-3.79,-3.79,-3.79,-3.79,-3.79,-3.79,-3.79,-3.79,-3.79,-3.79,-3.79,-3.79,-3.7482]},{"header":{"parameterUnit":"m.s-1","parameterCategory":1,"la1":30.6,"la2":29.2853,"lo1":-89.7004,"lo2":-87.6739,"dy":0.0162,"dx":0.0183,"nx":112,"ny":82,"refTime":"2024-04-30T12:00:00:Z","depth":0,"parameterNumber":3,"parameterNumberName":"V-component_of_WINDS"},"data":[0.0,0.0,0.0,0.0,0.0,0.0,0.0,0.0,0.0,0.0,0.0,0.0,0.0,0.0,0.0,0.0,0.0,0.0,0.0,0.0,0.0,0.0,0.0,0.0,0.0,0.0,0.0,0.0,0.0,0.0,0.0,0.0,0.0,0.0,0.0,0.0,0.0,0.0,0.0,0.0,0.0,0.0,0.0,0.0,0.0,0.0,0.0,0.0,0.0,0.0,0.0,0.0,0.0,0.0,0.0,0.0,0.0,0.0,0.0,0.0,0.0,0.0,0.0,0.0,0.0,0.0,0.0,0.0,0.0,0.0,0.0,0.0,0.0,0.0,0.0,0.0,0.0,0.0,0.0,0.0,0.0,0.0,0.0,0.0,0.0,0.0,0.0,0.0,0.0,0.0,0.7209,0.7491,0.7823,0.8068,0.8171,0.816,0.791,0.7345,0.0,0.0,0.0,0.0,0.0,0.0,0.0,0.0,0.0,0.0,0.0,0.0,0.0,0.0,0.0,0.0,0.0,0.0,0.0,0.0,0.0,0.0,0.0,0.0,0.0,0.0,0.0,0.0,0.0,0.0,0.0,0.0,0.0,0.0,0.0,0.0,0.0,0.0,0.0,0.0,0.0,0.0,0.0,0.0,0.0,0.0,0.0,0.0,0.0,0.0,0.0,0.0,0.0,0.0,0.0,0.0,0.0,0.0,0.0,0.0,0.0,0.0,0.0,0.0,0.0,0.0,0.0,0.0,0.0,0.0,0.0,0.0,0.0,0.0,0.0,0.0,0.0,0.0,0.0,0.0,0.0,0.0,0.0,0.0,0.0,0.0,0.0,0.0,0.0,0.0,0.0,0.0,0.0,0.0,0.0,0.0,0.0,0.0,0.0,0.0,0.0,0.0,0.0,0.0,0.7024,0.747,0.7747,0.7905,0.7926,0.7839,0.7611,0.7265,0.0,0.0,0.0,0.0,0.0,0.0,0.0,0.0,0.0,0.0,0.0,0.0,0.0,0.0,0.0,0.0,0.0,0.0,0.0,0.0,0.0,0.0,0.0,0.0,0.0,0.0,0.0,0.0,0.0,0.0,0.0,0.0,0.0,0.0,0.0,0.0,0.0,0.0,0.0,0.0,0.0,0.0,0.0,0.0,0.0,0.0,0.0,0.0,0.0,0.0,0.0,0.0,0.0,0.0,0.0,0.0,0.0,0.0,0.0,0.0,0.0,0.0,0.0,0.0,0.0,0.0,0.0,0.0,0.0,0.0,0.0,0.0,0.0,0.0,0.0,0.0,0.0,0.0,0.0,0.0,0.0,0.0,0.0,0.0,0.0,0.0,0.0,0.0,0.0,0.0,0.0,0.0,0.0,0.0,0.0,0.0,0.0,0.0,0.0,0.0,0.0,0.0,0.0,0.7421,0.7062,0.7475,0.7557,0.7606,0.7676,0.7573,0.7377,0.7084,0.7051,0.0,0.0,0.0,0.0,0.0,0.0,0.0,0.0,0.0,0.0,0.0,0.0,0.0,0.0,0.0,0.0,0.0,0.0,0.0,0.0,0.0,0.0,0.0,0.0,0.0,0.0,0.0,0.0,0.0,0.0,0.0,0.0,0.0,0.0,0.0,0.0,0.0,0.0,0.0,0.0,0.0,0.0,0.0,0.0,0.0,0.0,0.0,0.0,0.0,0.0,0.0,0.0,0.0,0.0,0.0,0.0,0.0,0.0,0.0,0.0,0.0,0.0,0.0,0.0,0.0,0.0,0.0,0.0,0.0,0.0,0.0,0.0,0.0,0.0,0.0,0.0,0.0,0.0,0.0,0.0,0.0,0.0,0.0,0.0,0.0,0.0,0.0,0.0,0.0,0.0,0.0,0.0,0.0,0.0,0.0,0.0,0.0,0.0,0.0,0.0,0.0,0.0,0.721,0.7133,0.7404,0.7372,0.7361,0.7426,0.7345,0.7192,0.6959,0.6828,0.0,0.0,0.0,0.0,0.0,0.0,0.0,0.0,0.0,0.0,0.0,0.0,0.0,0.0,0.0,0.0,0.0,0.0,0.0,0.0,0.0,0.0,0.0,0.0,0.0,0.0,0.0,0.0,0.0,0.0,0.0,0.0,0.0,0.0,0.0,0.0,0.0,0.0,0.0,0.0,0.0,0.0,0.0,0.0,0.0,0.0,0.0,0.0,0.0,0.0,0.0,0.0,0.0,0.0,0.0,0.0,0.0,0.0,0.0,0.0,0.0,0.0,0.0,0.0,0.0,0.0,0.0,0.0,0.0,0.0,0.0,0.0,0.0,0.0,0.0,0.0,0.0,0.0,0.0,0.0,0.0,0.0,0.0,0.0,0.0,0.0,0.0,0.0,0.0,0.0,0.0,0.0,0.0,0.0,0.0,0.0,0.0,0.0,0.0,0.0,0.0,0.0,0.7503,0.7204,0.7232,0.7274,0.7296,0.7243,0.7226,0.7122,0.6828,0.6698,0.0,0.0,0.0,0.0,0.0,0.0,0.0,0.0,0.0,0.0,0.0,0.0,0.0,0.0,0.0,0.0,0.0,0.0,0.0,0.0,0.0,0.0,0.0,0.0,0.0,0.0,0.0,0.0,0.0,0.0,0.0,0.0,0.0,0.0,0.0,0.0,0.0,0.0,0.0,0.0,0.0,0.0,0.0,0.0,0.0,0.0,0.0,0.0,0.0,0.0,0.0,0.0,0.0,0.0,0.0,0.0,0.0,0.0,0.0,0.0,0.0,0.0,0.0,0.0,0.0,0.0,0.0,0.0,0.0,0.0,0.0,0.0,0.0,0.0,0.0,0.0,0.0,0.0,0.0,0.0,0.0,0.0,0.0,0.0,0.0,0.0,0.0,0.0,0.0,0.0,0.0,0.0,0.0,0.0,0.0,0.0,0.0,0.0,0.0,0.0,0.0,0.0,0.7911,0.7725,0.7254,0.7248,0.7203,0.7215,0.721,0.7106,0.6817,0.0,0.0,0.0,0.0,0.0,0.0,0.0,0.0,0.0,0.0,0.0,0.0,0.0,0.0,0.0,0.0,0.0,0.0,0.0,0.0,0.0,0.0,0.0,0.0,0.0,0.0,0.0,0.0,0.0,0.0,0.0,0.0,0.0,0.0,0.0,0.0,0.0,0.0,0.0,0.0,0.0,0.0,0.0,0.0,0.0,0.0,0.0,0.0,0.0,0.0,0.0,0.0,0.0,0.0,0.0,0.0,0.0,0.0,0.0,0.0,0.0,0.0,0.0,0.0,0.0,0.0,0.0,0.0,0.0,0.0,0.0,0.0,0.0,0.0,0.0,0.0,0.0,0.0,0.0,0.0,0.0,0.0,0.0,0.0,0.0,0.0,0.0,0.0,0.0,0.0,0.0,0.0,0.0,0.0,0.0,0.0,0.0,0.0,0.0,0.0,0.0,0.0,0.9495,0.8909,0.8423,0.7913,0.7482,0.721,0.721,0.7139,0.6975,0.6812,0.0,0.0,0.0,0.0,0.0,0.0,0.0,0.0,0.0,0.0,0.0,0.0,0.0,0.0,0.0,0.0,0.0,0.0,0.0,0.0,0.0,0.0,0.0,0.0,0.0,0.0,0.0,0.0,0.0,0.0,0.0,0.0,0.0,0.0,0.0,0.0,0.0,0.0,0.0,0.0,0.0,0.0,0.0,0.0,0.0,0.0,0.0,0.0,0.0,0.0,0.0,0.0,0.0,0.0,0.0,0.0,0.0,0.0,0.0,0.0,0.0,0.0,0.0,0.0,0.0,0.0,0.0,0.0,0.0,0.0,0.0,0.0,0.0,0.0,0.0,0.0,0.0,0.0,0.0,0.0,0.0,0.0,0.0,0.0,0.0,0.0,0.0,0.0,0.0,0.0,0.0,0.0,0.0,0.0,0.0,0.0,0.0,0.0,0.0,0.0,0.0,0.0,1.2064,1.0482,0.934,0.934,0.8085,0.721,0.721,0.6991,0.6801,0.0,0.0,0.0,0.0,0.0,0.0,0.0,0.0,0.0,0.0,0.0,0.0,0.0,0.0,0.0,0.0,0.0,0.0,0.0,0.0,0.0,0.0,0.0,0.0,0.0,0.0,0.0,0.0,0.0,0.0,0.0,0.0,0.0,0.0,0.0,0.0,0.0,0.0,0.0,0.0,0.0,0.0,0.0,0.0,0.0,0.0,0.0,0.0,0.0,0.0,0.0,0.0,0.0,0.0,0.0,0.0,0.0,0.0,0.0,0.0,0.0,0.0,0.0,0.0,0.0,0.0,0.0,0.0,0.0,0.0,0.0,0.0,0.0,0.0,0.0,0.0,0.0,0.0,0.0,0.0,0.0,0.0,0.0,0.0,0.0,0.0,0.0,0.0,0.0,0.0,0.0,0.0,0.0,0.0,0.0,0.0,0.0,0.0,0.0,0.0,0.0,0.0,0.0,1.1901,1.1674,1.1175,1.0108,0.9781,0.9519,0.9078,0.8852,0.8388,0.7613,0.0,0.0,0.0,0.0,0.0,0.0,0.0,0.0,0.0,0.0,0.0,0.0,0.0,0.0,0.0,0.0,0.0,0.0,0.0,0.0,0.0,0.0,0.0,0.0,0.0,0.0,0.0,0.0,0.0,0.0,0.0,0.0,0.0,0.0,0.0,0.0,0.0,0.0,0.0,0.0,0.0,0.0,0.0,0.0,0.0,0.0,0.0,0.0,0.0,0.0,0.0,0.0,0.0,0.0,0.0,0.0,0.0,0.0,0.0,0.0,0.0,0.0,0.0,0.0,0.0,0.0,0.0,0.0,0.0,0.0,0.0,0.0,0.0,0.0,0.0,0.0,0.0,0.0,0.0,0.0,0.0,0.0,0.0,0.0,0.0,0.0,0.0,0.0,0.0,0.0,0.0,0.0,0.0,0.0,0.0,0.0,0.0,0.0,0.0,0.0,0.0,0.0,1.3079,1.2812,1.2379,1.1566,1.1085,1.072,1.0341,0.9976,0.9452,0.8721,0.0,0.0,0.0,0.0,0.0,0.0,0.0,0.0,0.0,0.0,0.0,0.0,0.0,0.0,0.0,0.0,0.0,0.0,0.0,0.0,0.0,0.0,0.0,0.0,0.0,0.0,0.0,0.0,0.0,0.0,0.0,0.0,0.0,0.0,0.0,0.0,0.0,0.0,0.0,0.0,0.0,0.0,0.0,0.0,0.0,0.0,0.0,0.0,0.0,0.0,0.0,0.0,0.0,0.0,0.0,0.0,0.0,0.0,0.0,0.0,0.0,0.0,0.0,0.0,0.0,0.0,0.0,0.0,0.0,0.0,0.0,0.0,0.0,0.0,0.0,0.0,0.0,0.0,0.0,0.0,0.0,0.0,0.0,0.0,0.0,0.0,0.0,0.0,0.0,0.0,0.0,0.0,0.0,0.0,0.0,0.0,0.0,0.0,0.0,0.0,0.0,0.0,1.4932,1.3841,1.309,1.3299,1.2126,1.1353,1.1318,1.0784,1.0347,1.0104,0.0,0.0,0.0,0.0,0.0,0.0,0.0,0.0,0.0,0.0,0.0,0.0,0.0,0.0,0.0,0.0,0.0,0.0,0.0,0.0,0.0,0.0,0.0,0.0,0.0,0.0,0.0,0.0,0.0,0.0,0.0,0.0,0.0,0.0,0.0,0.0,0.0,0.0,0.0,0.0,0.0,0.0,0.0,0.0,0.0,0.0,0.0,0.0,0.0,0.0,0.0,0.0,0.0,0.0,0.0,0.0,0.0,0.0,0.0,0.0,2.3214,2.1461,0.0,0.0,0.0,0.0,0.0,0.0,0.0,0.0,0.0,0.0,0.0,0.0,0.0,0.0,0.0,0.0,0.0,0.0,0.0,0.0,0.0,0.0,0.0,0.0,0.0,0.0,0.0,0.0,0.0,0.0,0.0,0.0,0.0,0.0,0.0,0.0,0.0,0.0,0.0,0.0,1.4425,1.4218,1.3852,1.3418,1.3286,1.3116,1.2946,1.2649,1.2174,1.1353,1.0085,0.0,0.0,0.0,0.0,0.0,0.0,0.0,0.0,0.0,0.0,0.0,0.0,0.0,0.0,0.0,0.0,0.0,0.0,0.0,0.0,0.0,0.0,0.0,0.0,0.0,0.0,0.0,0.0,0.0,0.0,0.0,0.0,0.0,0.0,0.0,0.0,0.0,0.0,0.0,0.0,0.0,0.0,0.0,0.0,0.0,0.0,0.0,0.0,0.0,0.0,0.0,0.0,0.0,0.0,0.0,0.0,0.0,0.0,0.0,2.5344,2.4035,0.0,0.0,0.0,0.0,0.0,0.0,0.0,0.0,0.0,0.0,0.0,0.0,0.0,0.0,0.0,0.0,0.0,0.0,0.0,0.0,0.0,0.0,0.0,0.0,0.0,0.0,0.0,0.0,0.0,0.0,0.0,0.0,0.0,0.0,0.0,0.0,0.0,0.0,0.0,0.0,1.4449,1.4377,1.4256,1.4047,1.4126,1.4167,1.4054,1.3679,1.3199,1.2454,1.1308,0.0,0.0,0.0,0.0,0.0,0.0,0.0,0.0,0.0,0.0,0.0,0.0,0.0,0.0,0.0,0.0,0.0,0.0,0.0,0.0,0.0,0.0,0.0,0.0,0.0,0.0,0.0,0.0,0.0,0.0,0.0,0.0,0.0,0.0,0.0,0.0,0.0,0.0,0.0,0.0,0.0,0.0,0.0,0.0,0.0,0.0,0.0,0.0,0.0,0.0,0.0,0.0,0.0,2.705,2.7068,2.7013,2.7086,2.7251,2.7471,2.7215,2.6756,2.6151,2.5396,0.0,0.0,0.0,0.0,0.0,0.0,0.0,0.0,0.0,0.0,0.0,0.0,0.0,0.0,0.0,0.0,0.0,0.0,0.0,0.0,0.0,0.0,2.0406,2.0879,2.0864,2.0293,1.8598,0.0,0.0,0.0,0.0,0.0,0.0,0.0,0.0,0.0,0.0,0.0,1.4716,1.4569,1.446,1.4545,1.457,1.4594,1.4642,1.4237,1.3805,1.3437,1.2394,1.1521,0.0,0.0,0.0,0.0,0.0,0.0,0.0,0.0,0.0,0.0,0.0,0.0,0.0,0.0,0.0,0.0,0.0,0.0,0.0,0.0,0.0,0.0,0.0,0.0,0.0,0.0,0.0,0.0,0.0,0.0,0.0,0.0,3.184,3.1162,0.0,0.0,0.0,0.0,0.0,0.0,0.0,0.0,0.0,0.0,0.0,0.0,0.0,2.7787,2.7437,2.8555,2.8772,2.8168,2.8847,2.8993,2.8682,2.903,2.9012,2.8755,2.9048,0.0,2.7013,2.6903,0.0,0.0,0.0,0.0,0.0,0.0,0.0,0.0,0.0,0.0,0.0,0.0,0.0,0.0,0.0,0.0,0.0,0.0,0.0,0.0,0.0,0.0,2.0849,2.1315,2.1131,2.0798,2.0556,1.9839,1.891,1.7807,1.7292,1.6598,0.0,0.0,0.0,0.0,0.0,0.0,1.4905,1.49,1.4667,1.4049,1.4014,1.4099,1.4328,1.4304,1.422,1.4148,1.2866,1.214,1.2167,1.1125,0.0,0.0,0.0,0.0,0.0,0.0,0.0,0.0,0.0,0.0,0.0,0.0,0.0,0.0,0.0,0.0,0.0,0.0,0.0,0.0,0.0,0.0,0.0,0.0,0.0,0.0,0.0,0.0,0.0,3.1781,3.2153,3.0862,3.0241,2.9336,0.0,0.0,0.0,0.0,0.0,0.0,0.0,0.0,0.0,2.878,2.8841,2.8994,2.9146,2.9521,2.9533,2.9247,2.9602,2.9677,2.9527,2.9758,2.9791,2.9642,2.9806,2.9269,2.815,2.7691,2.683,2.5748,0.0,0.0,0.0,0.0,2.3327,2.3126,2.3806,2.3877,2.3698,2.3645,0.0,0.0,0.0,0.0,0.0,0.0,0.0,2.0577,2.0881,2.1101,2.1375,2.1859,2.1772,2.1573,2.1573,2.0853,1.9915,1.8968,1.8288,1.7512,1.6672,1.5994,0.0,0.0,0.0,1.5765,1.5852,1.5656,1.5537,1.5431,1.4833,1.4612,1.4889,1.4532,1.4171,1.3882,1.3288,1.275,1.2376,1.1744,1.1547,0.0,0.0,0.0,0.0,0.0,0.0,0.0,0.0,0.0,0.0,0.0,0.0,0.0,0.0,0.0,0.0,0.0,0.0,0.0,0.0,0.0,0.0,0.0,0.0,0.0,0.0,0.0,0.0,3.3154,3.3512,3.1728,3.2055,3.1596,0.0,0.0,0.0,0.0,0.0,0.0,2.9892,2.9368,2.945,3.0413,3.0626,3.0898,3.1172,3.1033,3.0975,3.0976,3.0644,3.0469,3.0392,3.0577,3.0591,3.0515,3.0354,3.0133,2.9636,2.8568,2.7545,2.6664,2.5968,2.5381,2.4941,2.4941,2.4643,2.4349,2.5359,2.5451,2.5065,2.4721,2.4262,2.3657,2.263,0.0,0.0,0.0,0.0,2.0762,2.1212,2.1481,2.1787,2.229,2.2304,2.2149,2.2149,2.1561,2.0771,2.0067,1.9268,1.8597,1.8148,1.7244,0.0,1.6901,1.6647,1.6512,1.6729,1.6554,1.6419,1.6448,1.5765,1.5398,1.5544,1.5038,1.4543,1.4176,1.398,1.3617,1.3033,1.2899,1.2887,1.292,0.0,0.0,0.0,0.0,0.0,0.0,0.0,0.0,0.0,0.0,0.0,0.0,0.0,0.0,0.0,0.0,0.0,0.0,0.0,0.0,0.0,0.0,0.0,0.0,0.0,0.0,0.0,0.0,0.0,3.535,3.7111,0.0,0.0,0.0,0.0,3.4527,3.2462,3.1981,3.38,3.2295,3.1542,3.2051,3.3619,3.4041,3.3234,3.376,3.3955,3.3859,3.272,3.2013,3.1632,3.1994,3.1974,3.1594,3.0937,3.1067,3.159,2.9734,2.8223,2.7105,2.6683,2.6041,2.5396,2.5396,2.4882,2.4275,2.4735,2.4624,2.4257,2.4238,2.3657,2.2876,2.2419,2.1998,0.0,0.0,2.1642,2.1733,2.2144,2.198,2.188,2.2693,2.2584,2.2309,2.2309,2.1895,2.1415,2.084,2.0457,1.9973,1.9255,0.0,1.8164,1.79,1.7705,1.7518,1.7204,1.7444,1.7226,1.6155,1.6346,1.6355,1.6017,1.5943,1.5883,1.5902,1.5362,1.5016,1.4974,1.506,1.4978,1.4587,1.4241,0.0,0.0,0.0,0.0,0.0,0.0,0.0,0.0,0.0,0.0,0.0,0.0,0.0,0.0,0.0,0.0,0.0,0.0,0.0,0.0,0.0,0.0,0.0,0.0,0.0,0.0,0.0,0.0,3.7103,3.8387,0.0,3.565,3.5442,3.5398,3.521,3.4715,3.4762,3.5752,3.5193,3.5023,3.5465,3.5482,3.5302,3.5013,3.4566,3.4354,3.4294,3.3841,3.3586,3.3438,3.3338,3.3056,3.2637,3.2055,3.1754,3.1503,3.1029,3.0227,2.9202,2.8501,2.7783,2.7002,2.6104,2.5451,2.501,2.5157,2.512,2.4914,2.4564,2.3928,2.3153,2.2737,2.2511,2.2309,2.182,2.2043,2.2346,2.2005,2.2154,2.234,2.2189,2.2016,2.1906,2.1906,2.1771,2.159,2.1409,2.0787,2.0201,1.9957,1.9574,1.9322,1.9422,1.922,1.8962,1.8758,1.8632,1.8295,1.7583,1.6996,1.671,1.6752,1.6111,1.5715,1.5729,1.5339,1.5019,1.4866,1.4895,1.4839,1.4699,1.4223,1.4053,0.0,0.0,0.0,0.0,0.0,0.0,0.0,0.0,0.0,0.0,0.0,0.0,0.0,0.0,0.0,0.0,0.0,0.0,0.0,0.0,0.0,0.0,0.0,0.0,0.0,3.8907,4.0042,3.8843,4.0546,4.0955,3.8729,3.8602,3.8589,3.843,3.7915,3.7755,3.8089,3.761,3.7369,3.7309,3.6957,3.668,3.6525,3.5724,3.5379,3.5608,3.5223,3.5002,3.5002,3.4527,3.4208,3.39,3.3031,3.2478,3.2229,3.2331,3.1823,3.0946,2.9822,2.8887,2.7983,2.6926,2.6229,2.5737,2.5535,2.5308,2.4998,2.4639,2.4095,2.3496,2.3223,2.3125,2.3038,2.2555,2.2775,2.2994,2.2555,2.2775,2.295,2.222,2.1975,2.1882,2.1838,2.1551,2.1408,2.1757,2.1284,2.0789,2.0789,2.049,2.0269,2.0512,2.0204,1.9956,1.9849,1.9619,1.9284,1.884,1.8147,1.773,1.7809,1.6967,1.6432,1.636,1.6009,1.5703,1.5367,1.5511,1.5511,1.5367,1.4702,1.435,1.4414,0.0,0.0,0.0,0.0,0.0,0.0,0.0,0.0,0.0,0.0,0.0,0.0,0.0,0.0,0.0,0.0,0.0,0.0,0.0,0.0,0.0,0.0,0.0,3.8094,4.0355,4.1653,4.0691,4.3721,4.5092,4.3108,4.3241,4.3721,4.4189,4.2046,4.077,4.0831,3.9556,3.8371,3.7451,3.8069,3.8229,3.777,3.7298,3.7372,3.7974,3.6827,3.6231,3.6185,3.5657,3.5405,3.5336,3.3727,3.3407,3.3993,3.3427,3.2926,3.2267,3.0508,2.926,2.8396,2.7895,2.718,2.6403,2.5886,2.5117,2.4395,2.444,2.4183,2.3844,2.3844,2.3844,2.3844,2.38,2.3844,2.3844,2.38,2.3844,2.3671,2.3013,2.251,2.2225,2.2159,2.1306,2.0885,2.1935,2.1858,2.1713,2.1687,2.1311,2.1042,2.1042,2.0637,0.0,2.0337,2.0337,2.0183,1.9849,1.9676,1.9443,1.9051,1.86,1.8173,1.7882,1.7488,1.7137,1.6746,1.7064,1.708,1.6689,1.5729,1.503,1.4629,0.0,0.0,0.0,0.0,0.0,0.0,0.0,0.0,0.0,0.0,0.0,0.0,0.0,0.0,0.0,0.0,0.0,0.0,0.0,0.0,0.0,3.9668,4.0867,4.0419,4.1918,4.3409,4.4299,4.4972,4.5116,4.4539,4.389,4.3433,4.3216,4.2245,4.1627,4.1686,4.0952,4.0364,4.0165,3.958,3.9228,3.9086,3.816,3.7798,3.7974,3.7655,3.7281,3.6901,3.6379,3.5928,3.5473,3.466,3.4404,3.4532,3.4007,3.3482,3.2889,3.1401,3.0439,2.9743,2.8263,2.6925,2.5911,2.5742,2.5108,2.4484,2.5016,2.4925,2.4594,2.4594,2.4594,2.4509,2.393,2.4188,2.4466,2.393,2.4188,2.4423,2.3671,2.3179,2.2862,2.2839,2.2316,2.1958,2.2241,2.1919,2.1612,2.1684,2.1597,2.1508,2.1508,2.1419,2.1195,2.0862,2.0817,2.0542,1.9849,1.9768,1.9696,1.9594,1.8912,1.859,1.8818,1.7689,1.7057,1.718,1.675,1.646,1.6349,1.6079,1.5634,0.0,0.0,0.0,0.0,0.0,0.0,0.0,0.0,0.0,0.0,0.0,0.0,0.0,0.0,0.0,0.0,0.0,0.0,0.0,0.0,0.0,0.0,4.1558,4.2618,4.293,4.359,4.4484,4.5453,4.5269,4.5149,4.539,4.49,4.4227,4.3481,4.3144,4.2687,4.2014,4.1677,4.1317,4.086,4.0042,3.9513,3.9272,3.8407,3.7974,3.7974,3.7757,3.7493,3.7156,3.6411,3.5905,3.5593,3.5015,3.4655,3.4414,3.3933,3.3428,3.2855,0.0,0.0,0.0,0.0,2.765,2.6605,2.6605,2.6043,2.5357,2.5808,2.5679,2.5338,2.5338,2.5338,2.5253,2.4807,2.4978,2.5211,2.4807,2.4978,2.5062,2.4155,2.3617,2.3207,2.2982,2.2372,2.203,2.2432,2.2029,0.0,2.2198,2.1826,2.1485,2.1668,2.1687,2.1597,2.1329,2.1167,2.0953,2.0634,2.0114,1.9931,2.0288,1.9393,0.0,0.0,0.0,1.7493,1.7209,1.6756,0.0,0.0,0.0,1.5586,1.5189,1.5417,0.0,0.0,1.592,1.6095,0.0,0.0,0.0,0.0,0.0,0.0,0.0,0.0,0.0,0.0,0.0,0.0,0.0,0.0,0.0,0.0,4.3259,4.4023,4.5601,4.5454,4.5157,4.5155,4.5092,4.5197,4.579,4.579,4.5269,4.4261,4.4141,4.3529,4.2062,4.1918,0.0,0.0,0.0,3.9345,3.8815,3.8262,3.7974,3.7974,3.7445,3.7156,3.706,3.6074,3.5545,3.54,3.4895,3.439,3.3862,3.3404,3.2875,3.2349,3.18,3.1311,3.0796,2.9769,2.881,2.7985,2.7939,0.0,0.0,2.6569,2.6302,2.5968,2.5968,2.5948,2.5906,2.5906,2.5906,2.5906,2.5906,2.5863,2.5521,2.449,2.3881,2.3395,2.2916,2.2069,2.1671,2.2587,2.2241,2.209,2.2977,2.2144,2.1454,2.188,2.1865,2.1802,2.1765,2.1372,2.1255,2.1577,2.0591,0.0,2.0962,1.987,1.9221,1.9281,1.8876,1.8121,1.699,1.6957,1.6448,1.5365,1.5317,1.5269,1.5125,1.52,1.5391,1.572,1.5999,1.6317,0.0,0.0,0.0,0.0,0.0,0.0,0.0,0.0,0.0,0.0,0.0,0.0,0.0,0.0,0.0,4.5153,4.6355,4.7308,4.8277,4.7555,4.6636,4.5605,4.488,4.4645,4.5173,4.4837,4.4309,4.3721,4.3289,4.2735,4.2014,4.1581,4.1052,4.0427,3.9874,3.9345,3.8815,3.8262,3.7974,3.7974,3.7445,0.0,3.6531,3.5905,3.516,3.4294,3.4198,3.3909,3.338,3.2875,3.2322,3.1793,3.1249,3.0989,3.0774,2.969,2.8964,2.8397,2.8041,2.7522,2.7062,2.7062,2.6775,2.6362,2.6362,2.6177,0.0,2.5906,2.5906,2.5906,2.5906,2.56,2.5295,2.5063,2.4288,2.3638,2.3551,2.3086,2.2724,2.2886,2.2454,2.2348,2.3202,2.2998,2.2893,2.3351,2.295,2.2459,2.2141,2.1509,2.1145,2.1218,2.0729,2.0534,2.1051,2.025,1.9756,1.9756,1.9069,1.8266,1.7405,1.7349,1.6935,1.6119,1.6083,1.5637,1.4708,1.5033,1.5357,1.572,1.5784,1.5825,0.0,0.0,0.0,0.0,0.0,0.0,0.0,0.0,0.0,0.0,0.0,4.0777,4.3011,0.0,4.5146,4.7908,4.836,4.8573,4.9271,4.8255,4.7145,4.6182,4.5382,4.4856,4.4756,4.4909,4.4587,4.3241,4.3205,4.2747,4.1629,4.1076,4.0547,4.0018,3.9489,3.896,3.8407,3.8118,3.7974,3.7974,3.718,3.6651,3.6386,3.5593,3.4944,3.4366,3.4102,3.3862,3.3597,3.2827,3.2178,3.1621,3.0826,3.047,3.0374,2.9581,2.8961,2.8536,2.8298,2.7898,2.7534,2.7534,2.7226,2.6857,2.6857,2.6693,2.6509,2.626,2.6218,2.6135,2.5948,2.5732,2.5469,2.527,2.4639,2.405,2.3749,2.3351,2.3001,2.3001,2.2777,2.2767,2.3456,2.3477,2.3494,2.3745,2.3318,2.2942,2.3008,2.21,2.1636,2.2039,2.1329,2.108,2.1713,2.0866,2.0431,2.0542,1.9612,1.8893,1.8431,1.8136,1.7642,1.6847,1.683,1.644,1.5594,1.5806,1.5829,1.5713,1.6088,1.6218,0.0,0.0,0.0,0.0,0.0,0.0,0.0,3.7663,3.8944,4.1178,4.2158,4.3514,4.6401,4.6677,4.7355,5.0142,4.9841,4.9464,5.0017,4.8846,4.7742,4.7204,4.6119,4.5178,4.4457,4.502,4.4708,4.2964,4.3108,4.2699,4.1244,4.0691,4.0138,3.9633,3.9104,3.8551,3.7998,3.7878,3.7829,3.7805,3.6771,3.6242,3.6218,3.5256,3.4679,3.4438,3.3814,3.3526,3.3501,3.2563,3.1913,3.1452,3.035,2.9941,2.9869,2.934,2.8955,2.8643,2.8546,2.8283,2.8002,2.8002,2.7696,2.7348,2.7348,2.7267,2.7103,2.6734,2.6652,2.6528,2.6135,2.5944,2.5747,2.5182,2.4683,2.4203,2.3662,2.3285,2.3001,2.3001,2.3001,2.3154,2.3596,2.3771,2.3853,2.3948,2.3591,2.3343,2.361,2.2614,2.2171,2.2772,2.1869,2.1426,2.197,2.1213,2.0781,2.0905,2.0036,1.9498,1.9367,1.8935,1.8368,1.764,1.7613,1.7335,1.6768,1.6837,1.6634,1.6136,1.6632,1.6802,3.5959,3.5483,3.5984,3.7312,3.7739,3.8592,0.0,4.2233,4.2961,4.5196,4.6476,4.7606,4.8962,4.9565,5.0167,5.1046,5.1071,5.1197,5.1749,5.0419,4.9396,4.9479,4.6777,4.4852,4.4717,4.4133,4.3505,4.2867,4.2434,4.187,4.122,4.0691,4.0138,3.9633,3.9104,3.8551,3.7998,3.7517,3.7276,3.7276,3.6218,3.5713,3.5689,3.5039,3.4318,3.3404,3.2415,3.1982,3.1934,3.1332,3.1023,3.0898,2.9797,2.9388,2.9316,2.8787,2.8859,2.9148,2.8667,2.8459,2.8443,2.8443,2.8163,2.7841,2.7841,2.7534,2.7185,2.7144,2.7103,2.7021,2.6569,2.611,2.5583,2.4781,2.4181,2.364,2.3176,2.3045,2.3001,2.3001,2.3001,2.3154,2.3596,2.4115,2.4425,2.4418,2.4172,2.3741,2.3008,2.2614,2.2312,2.199,2.1507,2.1044,2.0649,2.0494,2.0275,1.9909,1.9756,1.968,1.9657,1.9273,1.8874,1.8481,1.8418,1.8017,1.7301,1.7662,1.777,1.7637,1.7248,1.6974,3.8216,3.7739,3.7713,3.8743,3.922,4.0099,4.2434,4.3212,4.4166,4.6728,4.8134,4.9238,5.0368,5.1021,5.1574,5.2151,5.2226,5.2201,5.2126,5.0921,4.9851,4.9321,4.753,4.608,4.5389,4.4774,4.3986,4.2916,4.199,4.1293,4.0739,3.9922,3.9369,3.9152,3.8623,3.807,3.7517,3.73,3.7036,3.6723,3.5978,3.5617,3.5593,3.5015,3.427,3.326,3.2803,3.2295,3.1669,3.1139,3.0922,3.0759,2.9701,2.9292,2.9244,2.8715,2.8643,2.8811,2.8595,2.8522,2.8522,2.8522,2.8403,2.8243,2.8243,2.8099,2.7898,2.7655,2.7615,2.7493,2.7021,2.678,2.6535,2.617,2.5459,2.479,2.4626,2.3944,2.3335,2.3335,2.315,2.3229,2.3977,2.3847,2.3925,2.4731,2.4777,2.4605,2.4237,2.3594,2.3016,2.2552,2.2087,2.1729,2.1502,2.0938,2.0617,2.0807,2.0182,1.9982,2.0386,1.9944,1.9624,1.9469,1.9195,1.8716,1.8094,1.8258,1.8042,1.7494,1.8012,1.8042,3.8994,3.8944,3.9069,3.9923,4.0802,4.1781,4.3137,4.4217,4.5497,4.7506,4.9063,5.0368,5.1322,5.195,5.2452,5.2854,5.2929,5.2729,5.2176,5.1272,5.0243,4.9138,4.8108,4.7034,4.5846,4.5154,4.4229,4.2699,4.1557,4.0739,4.021,3.932,3.8815,3.8815,3.8262,3.7733,3.7204,3.706,3.6723,3.617,3.5641,3.54,3.5376,3.4703,3.3909,3.3068,3.2899,3.244,3.1669,3.1139,3.0826,3.0567,2.9653,2.922,2.9027,2.8643,2.8522,2.8522,2.8522,2.8522,2.8522,2.8522,2.8522,2.8522,2.8522,2.8522,2.8443,2.8163,2.8082,2.7962,2.7534,2.7389,2.7325,2.7065,2.6335,2.567,2.5532,2.4573,2.3776,2.3776,2.3519,2.3557,2.4213,2.3914,2.3891,2.4873,2.5217,2.5205,2.4832,2.405,2.3351,2.287,2.2521,2.2215,2.1931,2.1196,2.0904,2.1176,2.0398,2.0172,2.0664,2.0303,2.0107,2.0107,1.978,1.9328,1.8797,1.8797,1.8394,1.7644,1.8651,1.8878,3.7262,3.804,3.927,4.0824,4.2509,4.3865,4.4443,4.625,4.7807,4.7883,4.969,5.1398,5.1975,5.2528,5.2904,5.2929,5.2929,5.2729,5.2176,5.1624,5.0845,4.9715,4.8294,4.6973,4.5881,4.4803,4.3565,4.2145,4.1028,4.0186,3.9657,3.9128,3.8815,3.8815,3.8262,3.7733,3.7204,3.6675,3.617,3.5641,3.5112,3.4799,3.4775,3.3789,3.3044,3.2491,3.1982,3.1741,3.1669,3.1139,3.0567,3.0062,2.9508,2.8979,2.8522,2.8522,2.8522,2.8522,2.8522,2.8522,2.8522,2.8522,2.8522,2.8522,2.8522,2.8522,2.8522,2.8483,2.8483,2.8403,2.7962,2.7881,2.7643,2.6731,2.6083,2.5578,2.511,2.4568,2.42,2.42,2.4164,2.4164,2.4223,2.4554,2.4875,2.4897,2.5295,2.5147,2.3908,2.3329,2.2848,2.239,2.2324,2.1931,2.1025,2.0916,2.0686,2.0194,2.0118,2.0096,2.0129,2.0129,2.0107,2.0107,2.0107,1.9867,1.9387,1.9387,1.9147,1.8659,1.9004,1.9178,3.809,3.8843,3.9998,4.2384,4.3112,4.379,4.5824,4.6577,4.6954,4.733,4.8008,4.8485,4.8284,4.9314,5.0293,5.0645,5.1649,5.2327,5.2126,5.1624,5.072,4.9238,4.8648,4.7533,4.5445,4.4497,4.337,4.188,4.0901,4.0018,3.9128,3.8551,3.8262,3.8262,3.807,3.7565,3.6675,3.6483,3.5954,3.5039,3.451,3.427,3.4246,3.3597,3.2996,3.2491,3.2298,3.2054,3.1645,3.0754,3.0254,2.9989,2.9124,2.8667,2.8522,2.8522,2.8522,2.8522,2.8522,2.8522,2.8522,2.8522,2.8522,2.8522,2.8522,2.8522,2.8522,2.8522,2.8522,2.8483,2.8323,2.8323,2.8235,2.7885,2.7135,2.6472,2.6283,2.5389,2.4715,2.4982,2.4613,2.448,2.5448,2.5237,2.4972,2.4972,2.4846,2.4572,2.4126,2.3457,2.2936,2.2783,2.2215,2.1712,2.1397,2.0751,2.0282,2.0129,2.0107,2.0107,2.0107,2.0107,2.0107,2.0107,1.9475,1.9266,1.9387,1.9091,1.9004,1.9179,1.9585,1.9586,3.8793,3.9572,4.0551,4.2911,4.3388,4.374,4.5547,4.5974,4.5999,4.5949,4.625,4.6426,4.6075,4.7054,4.8008,4.836,4.964,5.0594,5.0594,5.0293,4.9665,4.8586,4.8134,4.7118,4.5051,4.4171,4.3105,4.1606,4.074,3.9799,3.8683,3.8243,3.7974,3.7974,3.7974,3.7469,3.6411,3.6411,3.5881,3.4775,3.4246,3.3886,3.3741,3.3236,3.2707,3.2178,3.201,3.1721,3.1356,3.0446,2.9989,2.9749,2.9051,2.8667,2.8522,2.8522,2.8522,2.8522,2.8522,2.8522,2.8522,2.8522,2.8522,2.8522,2.8522,2.8522,2.8522,2.8522,2.8522,2.8522,2.8522,2.8522,2.8522,2.8522,2.7849,2.7186,2.7186,2.616,2.5419,2.5904,2.5248,2.494,2.6046,2.5601,2.5172,2.5359,2.4872,2.4422,2.4273,2.3646,2.3195,2.3164,2.2218,2.1585,2.1548,2.0665,2.0107,2.0107,2.0107,2.0107,2.0107,1.9954,1.9845,1.9845,1.9266,1.9026,1.9157,1.9026,1.9026,1.9157,1.9627,1.9629,3.9295,4.0149,4.0953,4.261,4.3413,4.3815,4.384,4.4644,4.507,4.394,4.4518,4.5221,4.5171,4.5698,4.615,4.6225,4.723,4.8008,4.8033,4.8008,4.7983,4.7908,4.6954,4.5874,4.4744,4.3804,4.2747,4.1379,4.0538,3.9539,3.8469,3.8133,3.8027,3.7974,3.795,3.7445,3.6411,3.6362,3.5809,3.4727,3.4198,3.3741,3.3236,3.2707,3.2154,3.1645,3.1139,3.0898,3.085,3.0278,2.9749,2.9292,2.9268,2.8955,2.8522,2.8522,2.8522,2.8522,2.8522,2.8522,2.8522,2.8522,2.8522,2.8522,2.8522,2.8522,2.8522,2.8522,2.8522,2.8522,2.8522,2.8522,2.8522,2.8522,2.8114,2.769,2.769,2.6887,2.631,2.6825,2.6105,2.5588,2.6093,2.5733,2.5564,2.6069,2.542,2.4717,2.4273,2.3886,2.3596,2.3547,2.2415,2.1592,2.1442,2.0621,2.0107,2.0107,2.0107,2.0107,2.0107,1.9671,1.9431,1.9431,1.9409,1.92,1.8763,1.92,1.92,1.8763,1.9244,1.9409,3.9973,4.0701,4.153,4.3187,4.3689,4.3915,4.4317,4.4317,4.3915,4.2811,4.2158,4.153,4.0701,4.2359,4.4091,4.492,4.738,4.9314,4.9715,4.9414,4.8862,4.8008,4.6954,4.5874,4.4744,4.3683,4.2568,4.1359,4.0701,3.9756,3.8469,3.8368,3.821,3.7974,3.7589,3.7084,3.6411,3.5617,3.4847,3.4198,3.3717,3.3212,3.2683,3.213,3.1621,3.1115,3.097,3.0663,3.0254,2.9725,2.9412,2.9268,2.8859,2.8619,2.8522,2.8522,2.8522,2.8522,2.8522,2.8522,2.8522,2.8522,2.8522,2.8522,2.8522,2.8522,2.8522,2.8522,2.8522,2.8522,2.8522,2.8522,2.8522,2.8522,2.8114,2.769,2.769,2.7162,2.6849,2.7378,2.7258,2.7152,2.7296,2.6825,2.6537,2.6657,2.6188,2.5492,2.4717,2.4309,2.4022,2.4016,2.3073,2.2298,2.2026,2.1052,2.0367,2.0107,2.0107,2.0107,2.0107,1.9998,1.9933,1.9933,1.9562,1.9496,1.9736,1.9496,1.9518,1.9736,1.9867,1.9736,4.0927,4.1455,4.1982,4.3162,4.3263,4.3087,4.3162,4.276,4.2057,4.0981,4.0023,3.922,3.8617,4.035,4.2183,4.3037,4.5773,4.8083,4.8862,4.851,4.8083,4.7933,4.6753,4.5497,4.4367,4.3263,4.2158,4.1,4.055,3.9833,3.8838,3.8684,3.8473,3.8185,3.7678,3.6946,3.6074,3.5232,3.451,3.3982,3.3525,3.302,3.2491,3.1913,3.1548,3.1235,3.0735,3.0374,3.0037,2.9268,2.8955,2.8931,2.8619,2.8522,2.8522,2.8522,2.8522,2.8522,2.8522,2.8522,2.8522,2.8522,2.8522,2.8522,2.8522,2.8522,2.8522,2.8522,2.8522,2.8522,2.8522,2.8522,2.8522,2.8522,2.8282,2.8065,2.8065,2.7618,2.7258,2.733,2.7522,2.769,2.769,2.7234,2.6898,2.6898,2.6454,2.5853,2.5111,2.4706,2.4526,2.4683,2.3676,2.2949,2.2674,2.1752,2.0924,2.0335,2.0335,2.0237,2.0107,1.9911,1.9802,1.9802,1.9353,1.93,1.9802,1.9518,1.9627,2.0107,2.0107,1.9976,4.1961,4.2263,4.2414,4.2816,4.2564,4.2062,4.1455,4.0852,4.0099,3.8969,3.8291,3.7864,3.7789,3.917,4.0551,4.1329,4.3589,4.5748,4.7154,4.6753,4.6677,4.7682,4.6376,4.492,4.379,4.2685,4.163,4.0601,4.024,3.9832,3.9335,3.8998,3.8662,3.8254,3.774,3.6885,3.557,3.5064,3.4486,3.3886,3.3501,3.2971,3.237,3.1934,3.1669,3.1548,3.0518,3.0037,2.9917,2.8907,2.8522,2.8522,2.8522,2.8522,2.8522,2.8522,2.8522,2.8522,2.8522,2.8522,2.8522,2.8522,2.8522,2.8522,2.8522,2.8522,2.8522,2.8522,2.8522,2.8522,2.8522,2.8522,2.8522,2.8522,2.8522,2.8522,2.8522,2.8138,2.7642,2.7186,2.7474,2.7825,2.7825,2.7402,2.7066,2.6922,2.6489,2.5997,2.5396,2.5064,2.4992,2.5264,2.4237,2.3456,2.3216,2.2399,2.1541,2.0722,2.0667,2.0539,2.027,1.9788,1.9569,1.9569,1.9122,1.9091,1.9475,1.9475,1.9693,2.0107,2.0107,2.0107,4.2288,4.2539,4.2816,4.2439,4.2288,4.2062,4.1455,4.0551,3.9521,3.8391,3.7713,3.7186,3.6782,3.8064,3.9824,4.176,4.3187,4.5121,4.8083,4.723,4.6552,4.7179,4.5799,4.4342,4.3212,4.2133,4.1204,4.0576,4.0047,3.9642,3.9335,3.9258,3.863,3.7437,3.7112,3.6401,3.5284,3.4969,3.4366,3.3428,3.3332,3.2779,3.1862,3.1741,3.1476,3.1019,3.035,2.9845,2.9388,2.8763,2.8522,2.8522,2.8522,2.8522,2.8522,2.8522,2.8522,2.8522,2.8522,2.8522,2.8522,2.8522,2.8522,2.8522,2.8522,2.8522,2.8522,2.8522,2.8522,2.8522,2.8522,2.8522,2.8522,2.8522,2.8522,2.8522,2.8522,2.845,2.8354,2.8258,2.8306,2.8378,2.8378,2.8306,2.7906,2.7018,2.6801,2.6393,2.5444,2.5253,2.5253,2.5264,2.4355,2.3589,2.3236,2.2301,2.1556,2.1138,2.1106,2.1074,2.101,2.0632,2.0395,2.0395,2.0018,1.9911,1.9998,1.9998,2.002,2.0107,2.0107,2.0107,4.3087,4.3212,4.3263,4.2766,4.2158,4.1505,4.0676,3.9622,3.8492,3.7387,3.6935,3.6732,3.6455,3.7788,3.9372,4.0651,4.2283,4.4141,4.6301,4.5924,4.5522,4.5799,4.4618,4.3338,4.2233,4.1379,4.0676,4.0124,3.9848,3.9645,3.9542,3.9088,3.8263,3.7023,3.6751,3.6235,3.5428,3.4847,3.4219,3.3446,3.3066,3.2442,3.1717,3.1717,3.1573,3.1284,3.0422,3.011,3.0037,2.8955,2.8667,2.8907,2.8619,2.8522,2.8522,2.8522,2.8697,2.8934,2.8618,2.8697,2.8973,2.8973,2.8776,2.8538,2.8895,2.8736,2.8522,2.8522,2.8736,2.8895,2.8578,2.8736,2.8895,2.8578,2.8522,2.8522,2.8522,2.8522,2.8522,2.8522,2.8522,2.8522,2.8522,2.8522,2.8162,2.7042,2.6898,2.6513,2.5444,2.53,2.53,2.53,2.4867,2.427,2.3575,2.3051,2.24,2.1509,2.1463,2.1368,2.1233,2.0987,2.0892,2.0892,2.0293,2.0102,2.0367,1.9942,1.9867,2.0107,2.0107,2.0107,4.3714,4.379,4.379,4.2986,4.2057,4.1,3.9948,3.8818,3.7688,3.6631,3.6405,3.6405,3.6405,3.7486,3.8642,3.9396,4.0978,4.2635,4.4217,4.4342,4.4317,4.4443,4.3589,0.0,4.1225,4.0777,4.03,3.9747,3.9597,3.9521,3.9521,3.8866,3.8016,3.692,3.6652,3.621,3.5668,3.5013,3.431,3.3584,3.308,3.2457,3.1761,3.1761,3.1761,3.1689,3.0585,3.0374,3.0802,2.9172,2.8835,2.9244,2.8715,2.8522,2.8522,2.8657,2.8988,2.9341,2.9013,2.9184,2.9613,2.9742,2.9302,2.8816,2.9419,2.9263,2.8895,2.8895,2.9223,2.9496,2.9013,2.9223,2.9496,2.9013,2.8895,2.8855,2.8736,2.8776,2.8855,2.8697,2.8697,2.8697,2.8697,2.8697,2.8382,2.7413,2.7246,2.687,2.5802,2.5654,2.5616,2.5511,2.5379,2.4957,2.4035,2.3966,2.3384,2.2076,2.1973,2.18,2.1423,2.136,2.1305,2.1305,2.0475,2.0254,2.0603,1.9874,1.9736,2.0107,2.0107,2.0107,4.3463,4.379,4.4166,4.2665,4.1781,4.1,3.9948,3.8818,3.7688,3.6631,3.6405,3.6405,3.6405,3.6531,3.7159,3.8743,3.917,4.0325,4.3438,4.3438,4.3313,4.3815,0.0,0.0,4.0752,4.0551,4.03,3.9747,3.922,3.8994,3.8994,3.8894,3.8341,3.7211,3.687,3.6476,3.598,3.5667,3.4841,3.3584,3.3766,3.3203,3.1981,3.1981,3.1981,3.1889,3.0628,3.0374,3.0802,2.9172,2.8835,2.9244,2.8715,2.8522,2.8578,2.9106,2.9341,2.9457,2.9935,3.0165,3.0317,3.0846,3.0241,2.9419,3.0012,3.0165,3.0126,3.0126,3.0165,3.0203,3.0126,3.0165,3.0203,3.0126,3.0126,2.9973,2.9457,2.9767,2.9973,2.9419,2.9302,2.9302,2.9302,2.9302,2.9104,2.8548,2.8435,2.8062,2.697,2.6854,2.6654,2.6164,2.5682,2.5133,2.4492,2.4492,2.405,2.2943,2.2863,2.2647,2.2128,2.1831,2.1651,2.1651,2.091,2.0558,2.0603,2.0226,2.0063,2.0107,2.0107,2.0107,4.3966,4.4543,4.4895,4.389,4.2484,4.1,3.9948,3.8567,3.7287,3.6556,3.6405,3.6405,3.6405,3.6405,3.6631,3.731,3.7687,3.8442,4.0074,4.0425,4.0701,4.1254,4.1128,4.0752,4.0074,4.0023,3.9923,3.9722,3.9496,3.9069,3.8391,3.804,3.7487,3.6757,3.6589,3.6441,3.6241,3.5655,3.5071,3.4558,3.3871,3.324,3.2734,3.2416,3.2181,3.1957,3.129,3.1028,3.0997,2.969,2.9302,2.9423,2.8755,2.8522,2.8578,2.9184,2.9651,2.9973,3.0203,3.0545,3.0884,3.1108,3.0884,3.0507,3.0771,3.0582,3.0279,3.0279,3.0545,3.0771,3.0393,3.0279,3.0279,3.0279,3.0279,3.0241,2.9973,3.0126,3.0241,2.9973,2.9935,2.9935,2.9935,2.9935,2.9758,2.9238,2.9145,2.8733,2.7697,2.7531,2.731,2.6739,2.6511,2.5996,2.5133,2.5078,2.4633,2.3562,2.3192,2.2895,2.2678,2.2248,2.1987,2.1987,2.1494,2.1273,2.1273,2.0667,2.0399,2.0399,2.0205,2.0107,4.3689,4.4443,4.4844,4.4292,4.261,4.0852,3.9898,3.8391,3.7132,3.6883,3.6803,3.6896,3.7176,3.6989,3.6803,3.6803,3.7048,3.7437,3.8165,3.8617,3.9069,3.9622,3.9546,3.9446,3.9446,3.9597,3.9697,3.9697,3.9396,3.8843,3.804,3.7337,3.6807,3.6405,3.6405,3.6405,3.6405,3.5815,3.5372,3.4956,3.4074,3.3439,3.303,3.266,3.2302,3.1956,3.1718,3.1406,3.0949,3.0065,2.9675,2.9545,2.8851,2.8657,2.8855,2.9457,3.005,3.0582,3.0771,3.1134,3.1505,3.1505,3.1505,3.1505,3.1505,3.1209,3.0872,3.0872,3.1172,3.1394,3.0985,3.0872,3.0872,3.0872,3.0872,3.0835,3.062,3.0696,3.0809,3.0582,3.0582,3.0582,3.0582,3.0582,3.0453,3.004,3.0043,2.9689,2.8811,2.8656,2.8343,2.7574,2.7657,2.7222,2.5988,2.6005,2.5644,2.4591,2.3985,2.3617,2.3445,2.2929,2.2604,2.2604,2.2304,2.2032,2.1932,2.1305,2.086,2.0603,2.0571,2.0603,4.2238,4.2986,4.3689,4.3137,4.1756,4.0375,3.9823,3.8391,3.7298,3.7696,3.7821,3.8069,3.8988,3.8432,3.7821,3.7821,3.7475,3.7588,3.8743,3.8919,3.9069,3.9622,3.922,3.8919,3.8919,3.9371,3.9697,3.9697,3.8668,3.8015,3.8015,3.696,3.6405,3.6405,3.6405,3.6405,3.6405,3.6405,3.5712,3.4388,3.459,3.4015,3.2723,3.2723,3.2425,3.1861,3.1674,3.1269,3.0663,3.0188,2.9821,2.9545,2.901,2.9028,2.9457,3.005,3.0658,3.1294,3.1936,3.2182,3.2182,3.2182,3.2182,3.2182,3.2182,3.2182,3.2182,3.2182,3.2182,3.2182,3.2182,3.2182,3.2182,3.2182,3.2182,3.2009,3.1331,3.169,3.1973,3.132,3.1182,3.1182,3.1182,3.1182,3.1182,3.1182,3.1244,3.111,3.0546,3.043,2.9942,2.8788,2.9141,2.8799,2.7113,2.7464,2.7328,2.6231,2.5602,2.5038,2.4505,2.3915,2.3577,2.3577,2.328,2.2859,2.2402,2.2063,2.1439,2.0603,2.1282,2.176,4.0927,4.1831,4.2534,4.2007,4.0626,3.9424,3.9464,3.8501,3.7846,3.8594,3.8765,3.8854,3.9166,3.8944,3.8899,3.9374,3.8398,3.7877,3.8748,3.8176,3.7914,3.8467,3.9069,3.9421,3.9421,3.9597,3.9546,3.917,3.8793,3.8266,3.7487,3.7111,3.6807,3.6405,3.6405,3.6405,3.6405,3.5981,3.5583,3.514,3.448,3.3928,3.3489,3.3158,3.2596,3.1928,3.2386,3.1771,3.0391,3.0613,3.0428,2.9838,2.9546,2.9665,3.0088,3.0696,3.1033,3.1294,3.1973,3.2218,3.2218,3.2218,3.2218,3.2218,3.2218,3.2218,3.2218,3.2218,3.2218,3.2218,3.2218,3.2218,3.2218,3.2218,3.2218,3.2146,3.1936,3.2046,3.2146,3.1936,3.19,3.19,3.19,3.19,3.19,3.19,3.1911,3.1712,3.1128,3.1018,3.0539,2.9376,2.9402,2.8959,2.7649,2.7723,2.7511,2.6796,2.6198,2.5846,2.5666,2.471,2.4433,2.4823,2.3927,2.3547,2.3831,2.3063,2.2378,2.176,2.2132,2.2224,3.9697,4.0551,4.1235,4.1252,4.016,3.9233,3.9812,3.9117,3.8585,3.9519,3.9738,3.9869,4.0244,3.9956,3.9848,4.0305,3.9186,3.847,3.8935,3.8295,3.7797,3.7989,3.8818,3.9371,3.9371,3.9371,3.9245,3.8944,3.8517,3.7914,3.7211,3.6985,3.6634,3.6081,3.6056,3.6056,3.6056,3.5504,3.5082,3.4881,3.4223,3.3796,3.3571,3.3244,3.2599,3.173,3.2474,3.173,0.0,3.0954,3.0888,3.0203,3.0241,3.0507,3.0921,3.1294,3.1479,3.1653,3.2191,3.23,3.2218,3.2218,3.2218,3.2218,3.2218,3.2218,3.2218,3.2218,3.2218,3.2218,3.2218,3.2218,3.2218,3.2218,3.2218,3.2218,3.2218,3.2218,3.2218,3.2218,3.2218,3.2218,3.2218,3.2218,3.2218,3.2218,3.2218,3.2083,3.1667,3.1639,3.126,3.0256,3.0174,2.972,2.8552,2.8252,2.7954,2.7597,2.7072,2.6757,2.6757,2.5656,2.5183,2.5581,2.4633,2.423,2.4442,2.3547,2.3045,2.2985,2.2985,2.2985,0.0,3.9145,3.9752,4.0661,4.0076,3.9554,4.0661,4.0069,0.0,4.0518,4.0689,4.0972,4.1897,4.1339,4.0717,4.0745,3.994,3.9366,3.9544,3.9118,3.8614,3.8236,3.8717,3.8995,3.8919,3.8919,3.8894,3.8869,3.7789,3.7161,3.7136,3.6656,3.6081,3.5508,3.5433,3.5408,3.5433,3.4881,3.4399,3.3897,3.3847,3.3571,3.3111,3.3086,3.2416,3.1411,3.1938,3.126,2.9907,3.1164,3.1329,3.0785,3.1172,3.1579,3.1936,3.1919,3.2055,3.2264,3.2596,3.2516,3.2255,3.2218,3.2218,3.2255,3.2218,3.2218,3.2218,3.2218,3.2218,3.2218,3.2218,3.2218,3.2218,3.2218,3.2218,3.2218,3.2218,3.2218,3.2218,3.2218,3.2218,3.2218,3.2218,3.2218,3.2218,3.2218,3.2218,3.2218,3.2218,3.2218,3.1965,3.1341,3.1287,3.0798,2.9611,2.898,2.8627,2.86,2.8085,2.7759,2.7759,2.6619,2.5968,2.6022,2.5398,2.4847,2.4363,2.3607,2.3547,2.416,2.3842,2.4044,3.7809,0.0,3.7907,3.8454,3.835,3.8602,0.0,4.0455,4.056,4.1535,4.1773,4.1814,4.2051,4.1897,4.1917,4.2378,4.1241,4.0467,4.1024,4.0686,4.028,3.9901,4.035,4.0182,3.902,3.8919,3.8693,3.8241,3.7563,3.701,3.6631,3.6031,3.5633,3.5508,3.468,3.45,3.4856,3.4374,3.4022,3.3897,3.347,3.3194,3.3068,3.2616,3.2039,3.1411,3.1537,3.0909,2.9907,3.1164,3.1832,3.208,3.2254,3.2727,3.3257,3.3012,3.281,3.2596,3.2668,3.2632,3.2525,3.2264,3.2372,3.2525,3.2291,3.2218,3.2218,3.2218,3.2218,3.2218,3.2218,3.2218,3.2218,3.2218,3.2218,3.2218,3.2218,3.2218,3.2218,3.2218,3.2218,3.2218,3.2218,3.2218,3.2218,3.2218,3.2218,3.2218,3.2218,3.2218,3.1965,3.1341,3.1287,3.0798,2.9611,2.9393,2.9094,2.8627,2.8465,2.8383,2.8383,2.7244,2.6809,2.7271,2.624,2.5395,2.4821,2.465,2.4593,2.4622,2.465,2.465,3.7684,3.7614,3.7723,3.88,3.9077,3.9393,4.0562,4.084,4.0907,4.114,0.0,4.1279,4.157,4.1628,4.1831,4.2469,4.1849,4.1327,4.1518,4.1196,4.0965,4.1053,4.1302,4.0992,3.9695,3.9389,3.8759,3.7712,3.7111,3.6558,3.6006,3.5658,3.5257,3.4756,3.4198,3.4048,3.4349,3.3796,3.352,3.352,3.3262,3.3111,3.3068,3.2491,3.212,3.1928,3.1647,3.1059,3.0406,3.1835,3.254,3.2755,3.3068,3.3627,3.414,3.3698,3.3304,3.2988,3.3164,3.3094,3.2952,3.2767,3.2704,3.2668,3.248,3.23,3.2218,3.2218,3.2218,3.2218,3.2218,3.2218,3.2218,3.2218,3.2218,3.2218,3.2218,3.2218,3.2218,3.2218,3.2218,3.2218,3.2218,3.2218,3.2218,3.2218,3.2218,3.2218,3.2218,3.2218,3.2083,3.1748,3.1694,3.1205,3.0011,2.9903,2.9523,2.8655,2.86,2.86,2.86,2.7705,2.7108,2.6891,2.5968,2.5317,2.5018,2.5018,2.4962,2.4905,2.499,2.4934,3.816,3.8304,3.8764,4.0216,4.0519,4.0605,4.0989,0.0,0.0,0.0,0.0,0.0,4.0989,4.1192,4.1424,4.2005,4.2179,4.2176,4.2062,4.1751,4.1652,4.2051,4.2058,4.1653,4.0566,3.9991,3.9086,3.7715,3.6991,3.6341,3.5739,3.55,3.4906,3.3922,3.3822,3.3771,3.3771,3.3319,3.3111,3.3111,3.3111,3.3043,3.2918,3.234,3.2215,3.2424,3.185,3.1377,3.1193,3.2613,3.3243,3.3357,3.3762,3.4317,3.486,3.4145,3.3652,3.3409,3.3687,3.3618,3.3374,3.3304,3.3094,3.2846,3.281,3.2552,3.2291,3.2291,3.2255,3.2218,3.2218,3.2218,3.2218,3.2218,3.2218,3.2218,3.2218,3.2218,3.2218,3.2218,3.2218,3.2218,3.2218,3.2218,3.2218,3.2218,3.2218,3.2218,3.2218,3.2218,3.2218,3.2218,3.2218,3.1748,3.0635,3.0446,2.993,2.879,2.8627,2.8546,2.8465,2.7976,2.7189,2.605,2.5534,2.5236,2.5154,2.5154,2.51,2.5018,2.5018,2.5018,3.9738,4.0606,4.0928,4.0701,4.0238,4.0054,4.0903,4.0641,0.0,0.0,0.0,0.0,0.0,4.157,4.1976,4.2063,4.2528,4.3211,4.4239,4.4294,4.4024,4.3339,4.3202,4.2565,4.1051,4.0318,3.9822,3.9604,3.8339,3.7332,3.6805,3.5531,3.455,3.3922,3.3445,3.3194,3.3194,3.3162,3.3111,3.3111,3.3111,3.2817,3.2315,3.1763,3.1629,3.1823,3.1261,3.1347,3.1965,3.2826,3.388,3.4843,3.4456,3.4848,3.5525,3.4629,3.4059,3.3722,3.3785,3.3785,3.3652,3.3374,3.3444,3.3583,3.3304,3.2917,3.2632,3.2632,3.2408,3.2218,3.2218,3.2218,3.2218,3.2218,3.2218,3.2218,3.2218,3.2218,3.2218,3.2218,3.2218,3.2218,3.2218,3.2218,3.2218,3.2218,3.2218,3.2218,3.2218,3.2218,3.2218,3.2218,3.2218,3.1911,3.1205,3.069,3.0093,2.942,2.8872,2.8356,2.7868,2.7759,2.7379,2.6671,2.6562,2.6294,2.5751,2.5751,2.5507,2.5018,2.5018,2.5018,3.9743,4.0944,4.1881,4.1909,4.1966,4.1851,4.1256,4.1134,4.0989,0.0,0.0,0.0,4.1018,4.1657,4.2324,4.3021,4.334,4.3747,4.4327,4.4414,4.437,4.4289,4.3942,4.3227,4.1973,4.1228,4.0508,3.9644,3.8631,3.7599,3.6577,3.5546,3.4717,3.4178,3.3452,3.3174,3.3306,3.3264,3.3233,3.3111,3.3581,3.3233,3.219,3.2128,3.2189,3.2315,3.1766,3.2001,3.2755,3.352,3.4391,3.5167,3.4617,3.5079,3.592,3.4824,3.4264,3.4128,3.4128,3.4128,3.4094,3.3957,3.3854,3.3785,3.3618,3.3164,3.2739,3.2952,3.2739,3.2444,3.2255,3.2336,3.2408,3.2255,3.2336,3.2408,3.2255,3.2336,3.2408,3.2255,3.2218,3.2218,3.2218,3.2218,3.2218,3.2218,3.2218,3.2218,3.2218,3.2218,3.2218,3.2218,3.2218,3.1802,3.088,3.0554,3.0011,2.9062,2.8736,2.8465,2.8193,2.7868,2.7569,2.7298,2.6969,2.6644,2.6402,2.605,2.5914,2.5968,2.5317,2.5181,3.9732,4.092,4.1947,4.2237,4.2702,4.286,4.1855,4.168,4.1546,4.0858,4.0712,4.0858,4.1302,4.1901,4.2673,4.3805,4.4124,4.4269,4.4414,4.4443,4.4618,4.5053,4.4443,4.3719,4.2959,4.2162,4.1209,3.9968,3.9102,3.807,3.6807,3.595,3.5242,3.4688,3.4037,3.3653,3.3509,3.363,3.3461,3.3005,3.3814,3.3584,3.2363,3.2646,3.2829,3.2946,3.2545,3.2791,3.352,3.4162,3.4842,3.5386,3.4687,3.5009,3.5764,3.4777,3.4399,3.4399,3.4399,3.4399,3.4399,3.4399,3.4196,3.3957,3.3957,3.3479,3.3023,3.3339,3.3199,3.2846,3.2444,3.2516,3.2632,3.2372,3.2489,3.2668,3.248,3.2588,3.2632,3.248,3.2372,3.2336,3.2444,3.2444,3.2444,3.2444,3.2372,3.23,3.23,3.2255,3.2218,3.2218,3.2218,3.1748,3.0717,3.05,2.9957,2.8872,2.8682,2.86,2.86,2.8166,2.7922,2.7922,2.7461,2.7131,2.6996,2.6565,2.6484,2.6779,2.583,2.567,4.0519,4.1094,4.1018,4.0437,4.035,4.0895,4.2789,4.1876,4.0979,4.2324,4.257,4.2489,4.2304,4.2623,4.3166,4.3863,4.4472,4.5024,4.5663,4.575,4.5779,4.5808,4.4734,4.3979,4.3892,4.2792,4.2026,4.1926,4.0476,3.9326,3.871,3.725,3.6129,3.5507,3.5467,3.4794,3.3509,3.4233,3.3926,3.2658,3.3381,3.3446,3.288,3.2863,3.2992,3.3192,3.3136,3.3555,3.4298,3.4366,3.512,3.6099,3.4888,3.4457,3.4545,3.4457,3.4399,3.4399,3.4399,3.4399,3.4399,3.4399,3.4366,3.4332,3.4332,3.4059,3.3722,3.3756,3.3722,3.3548,3.2846,3.2668,3.2704,3.2668,3.2668,3.281,3.3129,3.2952,3.281,3.3164,3.2917,3.2775,3.3164,3.3199,3.3199,3.3199,3.2917,3.2668,3.2668,3.2372,3.2218,3.2218,3.2218,3.1911,3.1287,3.0717,3.012,2.9502,2.8899,2.86,2.86,2.8546,2.8546,2.8546,2.8492,2.8193,2.7651,2.7596,2.7325,2.6806,2.6698,2.6698,3.9412,4.0495,4.1047,4.0786,4.0488,4.0723,4.2392,4.2632,4.2754,4.3749,4.3968,4.3926,4.3772,4.3809,4.4019,4.4618,4.5171,4.5605,4.5837,4.5518,4.5256,4.5256,4.4124,4.3369,4.3369,4.2586,4.2092,4.2092,4.0752,3.9629,3.8956,3.7501,3.6662,3.6413,3.5869,3.5246,3.4563,3.4765,3.4231,3.2973,3.401,3.3953,3.2932,3.345,3.3517,3.3178,3.3178,3.3659,3.4399,3.4399,3.4922,3.5712,3.5183,3.4748,3.4399,3.4399,3.4399,3.4399,3.4399,3.4399,3.4399,3.4399,3.4399,3.4399,3.4399,3.4128,3.3854,3.4094,3.3991,3.3687,3.3199,3.3234,3.3339,3.3129,3.3234,3.3374,3.3304,3.3339,3.3374,3.3304,3.3164,3.3129,3.3269,3.3304,3.3304,3.3304,3.3164,3.2988,3.2739,3.2596,3.2444,3.2218,3.1857,3.1531,3.1314,3.0744,3.0147,2.9556,2.8926,2.86,2.86,2.86,2.86,2.86,2.86,2.8492,2.8248,2.7895,2.7786,2.7895,2.7131,2.6996,3.8695,3.9683,4.0176,4.0176,4.0159,4.0461,4.1898,4.2883,4.3815,4.4963,4.498,4.4731,4.4453,4.4402,4.4526,4.4965,4.558,4.5943,4.5739,4.5214,4.4821,4.4618,4.366,4.2992,4.2992,4.2266,4.1773,4.1773,4.0554,3.9592,3.9008,3.7905,3.7337,3.7337,3.6532,3.583,3.5235,3.5155,3.4469,3.3206,3.4299,3.4317,3.3392,3.3994,3.4015,3.3589,3.3589,3.3894,3.4399,3.4399,3.4661,3.5131,3.5305,3.5014,3.4399,3.4399,3.4399,3.4399,3.4399,3.4399,3.4399,3.4399,3.4399,3.4399,3.4399,3.4196,3.4059,3.4298,3.4196,3.3957,3.3687,3.3722,3.3722,3.3514,3.3618,3.3785,3.3652,3.3722,3.3785,3.3652,3.3718,3.3797,3.3965,3.3965,3.3965,3.3965,3.369,3.3374,3.3094,3.2846,3.2561,3.2255,3.1802,3.1558,3.1558,3.1015,3.05,3.0066,2.9306,2.879,2.86,2.86,2.86,2.86,2.86,2.86,2.86,2.8193,2.8193,2.8573,2.7759,2.7596,3.8695,3.8696,3.8202,3.8202,3.8847,3.9894,4.142,4.2485,4.3726,4.5891,4.5615,4.4793,4.4139,4.4317,4.4604,4.4604,4.5478,4.5961,4.5391,4.5055,4.4647,4.4037,4.3398,4.2992,4.2992,4.1831,4.1076,4.1105,3.9915,3.9189,3.9189,3.858,3.8202,3.8202,3.7622,3.6654,3.5207,3.536,3.4663,3.3213,3.3997,3.4399,3.4399,3.4399,3.4399,3.4399,3.4399,3.4399,3.4399,3.4399,3.4399,3.4486,3.5131,3.498,3.4399,3.4399,3.4399,3.4399,3.4399,3.4399,3.4399,3.4399,3.4399,3.4399,3.4399,3.4399,3.4399,3.4399,3.4399,3.4399,3.4399,3.4094,3.3819,3.3819,3.3819,3.3922,3.4298,3.4094,3.3922,3.4361,3.4646,3.4938,3.5323,3.5421,3.5421,3.5421,3.4496,3.3819,3.3819,3.3164,3.2561,3.2255,3.2218,3.2218,3.2218,3.1639,3.1314,3.1287,3.0147,2.9257,2.8627,2.86,2.86,2.86,2.86,2.86,2.86,2.86,2.86,2.86,2.86,2.86,3.7634,3.8028,3.8202,3.8202,3.8847,3.9894,4.1381,4.2416,0.0,4.5861,4.6087,4.5687,4.5042,4.4894,4.4739,4.4252,4.4706,4.4963,4.4658,4.412,4.3685,4.3354,4.2731,4.2353,4.2353,4.1163,4.0583,4.1047,3.9479,3.8696,3.9189,3.858,3.8202,3.8202,3.7622,3.6874,3.5964,3.5607,3.4935,3.4031,3.4298,3.4399,3.4399,3.4399,3.4399,3.4399,3.4399,3.4399,3.4399,3.4399,3.4399,3.4428,3.4632,3.4574,3.4399,3.4399,3.4399,3.4399,3.4399,3.4399,3.4399,3.4399,3.4399,3.4399,3.4399,3.4399,3.4399,3.4399,3.4399,3.4399,3.4399,3.4298,3.423,3.423,3.423,3.423,3.4366,3.4679,3.4964,3.5096,3.552,3.5883,3.6025,3.6025,3.6025,3.6025,3.5745,3.528,3.4574,3.3444,3.2668,3.2561,3.2336,3.2218,3.2218,3.2055,3.1748,3.1314,3.0554,2.9849,2.9285,2.8817,2.86,2.86,2.86,2.86,2.86,2.86,2.86,2.86,2.86,2.86,3.6344,3.7139,3.7912,3.8144,3.8984,4.0159,4.1724,4.3049,4.4363,4.598,4.6112,4.5723,4.5035,4.4792,4.459,4.4173,4.4472,4.463,4.4268,4.3675,4.3157,4.2811,4.2366,4.2005,4.1715,4.0728,4.0176,4.0321,3.9015,3.8376,3.8783,3.8202,3.7854,3.7854,3.6983,3.6344,3.5938,3.5299,3.4806,3.4399,3.4399,3.4399,3.4399,3.4399,3.4399,3.4399,3.4399,3.4399,3.4399,3.4399,3.4399,3.4399,3.4399,3.4399,3.4399,3.4399,3.4399,3.4399,3.4399,3.4399,3.4399,3.4399,3.4399,3.4399,3.4399,3.4399,3.4399,3.4399,3.4399,3.4399,3.4399,3.4399,3.4399,3.4399,3.4399,3.4486,3.4748,3.5131,3.5479,3.5712,3.6257,3.6722,3.6722,3.6489,3.6315,3.6315,3.588,3.5276,3.4489,3.3635,3.3023,3.2739,3.2516,3.2336,3.2218,3.2218,3.2055,3.1667,3.1097,3.05,2.9876,2.9034,2.86,2.86,2.86,2.86,2.86,2.86,2.86,2.86,2.86,2.86,3.5246,3.6319,3.7476,3.8202,3.9334,4.0771,4.2401,4.402,4.5352,4.598,4.5693,4.5095,4.4436,4.4317,4.4287,4.4227,4.4571,4.4626,4.3991,4.3531,4.3036,4.245,4.2257,4.1872,4.1163,4.0437,3.9799,3.9247,3.8522,3.8115,3.8115,3.7593,3.7273,3.7215,3.6031,3.5392,3.5392,3.4748,3.4399,3.4399,3.4399,3.4399,3.4399,3.4399,3.4399,3.4399,3.4399,3.4399,3.4399,3.4399,3.4399,3.4399,3.4399,3.4399,3.4399,3.4399,3.4399,3.4399,3.4399,3.4399,3.4399,3.4399,3.4399,3.4399,3.4399,3.4399,3.4399,3.4399,3.4399,3.4399,3.4399,3.4399,3.4399,3.4399,3.4399,3.4574,3.5247,3.545,3.5683,3.6257,3.6925,3.7389,3.7389,3.6838,3.6373,3.6315,3.527,3.4351,3.4008,3.3848,3.3548,3.2881,3.2775,3.2596,3.2264,3.2255,3.2255,3.2218,3.1612,3.1042,3.05,2.9387,2.8709,2.86,2.8627,2.8627,2.86,2.86,2.86,2.86,2.86,2.86,3.6286,3.6901,3.768,3.9305,4.0789,4.2158,4.3237,4.3897,4.4381,4.4665,4.5035,4.5095,4.4436,4.4317,4.4137,4.3589,4.3578,4.3528,4.3259,4.3138,4.2876,4.2462,4.2351,4.2006,4.1163,4.006,3.9334,3.9218,3.8144,3.7506,3.7506,3.7389,3.707,3.6548,3.5799,3.5392,3.5392,3.4748,3.4399,3.4399,3.4399,3.4399,3.4399,3.4399,3.4399,3.4399,3.4399,3.4399,3.4399,3.4399,3.4399,3.4399,3.4399,3.4399,3.4399,3.4399,3.4399,3.4399,3.4399,3.4399,3.4399,3.4399,3.4399,3.4399,3.4399,3.4399,3.4399,3.4399,3.4399,3.4399,3.4399,3.4399,3.4399,3.4399,3.4399,3.4574,3.5247,3.5799,3.6286,3.6954,3.7593,3.7999,3.7999,3.7506,3.6925,3.6373,3.5648,3.5154,3.5085,3.4341,3.3722,3.3583,3.3339,3.3023,3.2632,3.2596,3.248,3.2218,3.1612,3.1232,3.1097,3.0418,2.9577,2.86,2.9094,2.9094,2.86,2.86,2.86,2.86,2.86,2.86,3.5288,3.6276,3.7682,4.001,4.1418,4.2398,4.2925,4.326,4.3434,4.3637,4.4295,4.4616,4.3917,4.3798,4.3708,4.3349,4.329,4.325,4.317,4.3061,4.29,4.2729,4.2221,4.162,4.0858,3.9848,3.9073,3.8754,3.7854,3.7302,3.7302,3.6722,3.6228,3.588,3.5241,3.4922,3.4922,3.4574,3.4399,3.4399,3.4399,3.4399,3.4399,3.4399,3.4399,3.4399,3.4399,3.4399,3.4399,3.4399,3.4399,3.4399,3.4399,3.4399,3.4399,3.4399,3.4399,3.4399,3.4399,3.4399,3.4399,3.4399,3.4399,3.4399,3.4399,3.4399,3.4399,3.4399,3.4399,3.4399,3.4399,3.4399,3.4399,3.4399,3.4399,3.4574,3.5247,3.5654,3.6141,3.7128,3.7302,3.7389,3.7709,3.7244,3.6606,3.5967,3.5595,3.5392,3.5392,3.4634,3.4025,3.3819,3.3618,3.3374,3.3023,3.281,3.2632,3.2444,3.1992,3.1585,3.1314,3.1287,3.0554,2.9034,2.9339,2.9203,2.86,2.86,2.86,2.86,2.86,2.86,3.387,3.5609,3.7822,4.0325,4.1512,4.2133,4.2351,4.2555,4.2688,4.29,4.3588,4.3947,4.3379,4.329,4.329,4.329,4.329,4.329,4.329,4.317,4.3021,4.2981,4.2099,4.1203,4.0549,3.9712,3.8928,3.826,3.7651,3.7244,3.7128,3.6031,3.5363,3.5247,3.469,3.4399,3.4399,3.4399,3.4399,3.4399,3.4399,3.4399,3.4399,3.4399,3.4399,3.4399,3.4167,3.4225,3.4399,3.4283,3.4312,3.4399,3.4399,3.4399,3.4399,3.4399,3.4399,3.4399,3.4399,3.4399,3.4399,3.4399,3.4399,3.4399,3.4399,3.4399,3.4399,3.4399,3.4399,3.4399,3.4399,3.4399,3.4399,3.4399,3.4486,3.4719,3.5276,3.5392,3.5741,3.6896,3.6693,3.6489,3.7041,3.6664,3.6112,3.5479,3.5479,3.5537,3.5421,3.4893,3.438,3.3957,3.3922,3.3756,3.3409,3.3094,3.2881,3.281,3.248,3.2046,3.1556,3.1947,3.1458,2.9855,2.9719,2.9333,2.8736,2.8736,2.8736,2.8736,2.8736,2.8682,3.4252,3.6525,3.896,3.9978,4.1163,4.2133,4.2351,4.2433,4.2514,4.2688,4.311,4.3409,4.3319,4.329,4.329,4.329,4.329,4.329,4.329,4.329,4.321,4.3021,4.2218,4.1361,4.0588,3.9712,3.8928,3.826,3.7651,3.7041,3.646,3.5799,3.5131,3.4545,3.4457,3.4399,3.4399,3.4399,3.4399,3.4399,3.4399,3.4399,3.4399,3.4399,3.4399,3.4341,3.3206,3.3351,3.437,3.3819,3.3906,3.4399,3.4399,3.4399,3.4399,3.4399,3.4399,3.4399,3.4399,3.4399,3.4399,3.4399,3.4399,3.4399,3.4399,3.4399,3.4399,3.4399,3.4399,3.4399,3.4399,3.4399,3.4399,3.4399,3.4835,3.5305,3.5363,3.5392,3.5595,3.6315,3.6373,3.6344,3.6431,3.6373,3.6112,3.5479,3.5822,3.5996,3.5479,3.5334,3.5038,3.439,3.4298,3.4162,3.3785,3.3652,3.3514,3.3234,3.2846,3.2605,3.2522,3.2309,3.1829,3.107,3.0554,2.9984,2.9393,2.9393,2.9393,2.9393,2.9393,2.9122,3.4188,3.6402,3.8642,3.9674,4.0752,4.1581,4.1634,4.1755,4.1759,4.1517,4.1706,4.203,4.2465,4.2971,4.317,4.2851,4.2791,4.291,4.323,4.303,4.2751,4.2673,4.1764,4.091,4.0185,3.9235,3.8522,3.8231,3.7651,3.7012,3.6344,3.5741,3.5101,3.4428,3.4399,3.4399,3.4399,3.4399,3.4399,3.4399,3.4399,3.4399,3.4399,3.4051,3.3877,3.3848,3.3296,3.3151,3.3354,3.3441,3.3678,3.3906,3.4283,3.4399,3.4399,3.4399,3.4399,3.4399,3.4399,3.4399,3.4399,3.4399,3.4399,3.4399,3.4399,3.4399,3.4399,3.4399,3.4399,3.4399,3.4399,3.4399,3.4399,3.4399,3.4893,3.5392,3.5392,3.5392,3.5363,3.527,3.5822,3.6199,3.5822,3.6083,3.6344,3.6431,3.6693,3.6635,3.5967,3.5625,3.5305,3.5014,3.4632,3.4477,3.4687,3.4157,3.3722,3.3583,3.3023,3.2704,3.2704,3.2372,3.1911,3.1314,3.1042,3.0608,2.9984,2.9984,2.9984,2.9984,2.9665,2.9366,3.3424,3.5278,3.7158,3.8511,3.9703,4.0602,4.0804,4.0964,4.0938,4.047,4.0578,4.086,4.1272,4.2248,4.2802,4.2183,4.2402,4.2671,4.2821,4.2701,4.253,4.2201,4.1338,4.0545,3.9858,3.8806,3.8202,3.8202,3.7651,3.7012,3.6344,3.5741,3.5101,3.4428,3.4399,3.4399,3.4399,3.4399,3.4399,3.4399,3.4399,3.4399,3.4399,3.3906,3.3649,3.3503,3.3329,3.3064,3.2803,3.33,3.359,3.3794,3.4225,3.4399,3.4399,3.4399,3.4399,3.4399,3.4399,3.4399,3.4399,3.4399,3.4399,3.4399,3.4399,3.4399,3.4457,3.4603,3.4661,3.469,3.4864,3.4893,3.4893,3.4893,3.5386,3.5857,3.5683,3.5654,3.5508,3.498,3.5648,3.617,3.5712,3.6141,3.6722,3.7215,3.7447,3.7302,3.6635,3.6141,3.5828,3.5654,3.5183,3.5009,3.5363,3.4681,3.4129,3.3957,3.3339,3.2988,3.2988,3.2552,3.2109,3.1646,3.1575,3.1232,3.0635,3.0635,3.0635,3.0608,3.0011,2.9665,3.1617,3.2843,3.43,3.5885,3.7659,3.9228,3.9989,4.0147,4.0187,4.0157,4.0344,4.0324,3.9739,4.1026,4.195,4.1296,4.2335,4.2811,4.1654,4.2521,4.2821,4.1594,4.1071,4.0545,3.9858,3.8806,3.8202,3.8202,3.7651,3.7012,3.6344,3.5741,3.5101,3.4428,3.4399,3.4399,3.4399,3.4399,3.4399,3.4399,3.4399,3.4399,3.4399,3.437,3.4022,3.3474,3.2832,3.289,3.3445,3.3503,3.3819,3.437,3.4399,3.4399,3.4399,3.4399,3.4399,3.4399,3.4399,3.4399,3.4399,3.4399,3.4399,3.4399,3.4399,3.4399,3.4545,3.5189,3.5363,3.5479,3.6054,3.6199,3.6199,3.6199,3.6722,3.7041,3.6402,3.6257,3.6257,3.6228,3.6257,3.6286,3.6257,3.6809,3.7273,3.7302,3.7796,3.7941,3.7331,3.7215,3.6954,3.6315,3.6228,3.5967,3.545,3.5363,3.5067,3.4424,3.3991,3.3722,3.3722,3.3058,3.2668,3.2613,3.2345,3.1857,3.1232,3.1232,3.1232,3.1232,3.0635,3.0038,3.1015,3.1991,3.3542,3.5417,3.6816,3.7912,3.8717,3.9218,3.9305,3.8463,3.8713,3.8955,3.8693,4.0088,4.1074,4.0385,4.0842,4.1373,4.176,4.1966,4.2073,4.2051,4.1317,4.0545,3.9858,3.8806,3.8202,3.8202,3.7999,3.7418,3.6373,3.6112,3.5473,3.4457,3.4399,3.4399,3.4399,3.4399,3.4399,3.4399,3.4399,3.4399,3.4399,3.4399,3.3848,3.289,3.347,3.3412,3.289,3.3329,3.3649,3.3848,3.4254,3.4399,3.4399,3.4399,3.4399,3.4399,3.4399,3.4399,3.4399,3.4399,3.4399,3.4399,3.4399,3.4399,3.4545,3.5218,3.5392,3.5537,3.6141,3.6315,3.6431,3.6838,3.7128,3.736,3.7506,3.7535,3.7273,3.646,3.6315,3.6431,3.6867,3.678,3.6954,3.7767,3.8057,3.7999,3.7389,3.7302,3.7215,3.6983,3.6577,3.6199,3.5996,3.5625,3.5131,3.4457,3.4025,3.3819,3.3819,3.3339,3.2952,3.2704,3.2561,3.2299,3.1857,3.1857,3.1857,3.1857,3.126,3.0853,3.0432,3.1145,3.2436,3.43,3.5413,3.634,3.752,3.8014,3.8115,3.7709,3.7767,3.797,3.8173,3.9127,3.9824,3.9421,3.9904,4.0596,4.1356,4.156,4.1765,4.2051,4.1308,4.0545,3.9858,3.9011,3.8434,3.8231,3.8405,3.7883,3.6373,3.6315,3.5735,3.4457,3.4399,3.4399,3.4399,3.4399,3.4399,3.4399,3.4399,3.4399,3.4399,3.4399,3.3964,3.3177,3.4051,3.3703,3.2568,3.3441,3.3823,3.3819,3.4254,3.4399,3.4399,3.4399,3.4399,3.4399,3.4399,3.4399,3.4399,3.4399,3.4399,3.4399,3.4399,3.4399,3.4545,3.5218,3.5566,3.5857,3.6489,3.6809,3.7041,3.7506,3.7622,3.7709,3.8115,3.8202,3.7883,3.6838,3.6809,3.7012,3.7273,3.7099,3.7215,3.8086,3.8202,3.8057,3.7651,3.7622,3.7622,3.7622,3.7215,3.6867,3.6664,3.6054,3.545,3.4777,3.4479,3.4255,3.3991,3.3851,3.36,3.3094,3.2952,3.2704,3.2372,3.2372,3.23,3.2191,3.17,3.1319,0.0,0.0,0.0,3.2332,3.3247,3.4355,3.6353,3.653,3.6628,3.7846,3.7672,3.7476,3.8086,3.8202,3.824,3.8456,3.9774,4.0583,4.0151,4.1228,4.193,4.1466,4.1071,4.0536,3.9917,3.9448,3.8957,3.8289,3.8841,3.8347,3.6402,3.6257,3.5677,3.4457,3.4399,3.4399,3.437,3.4399,3.4399,3.437,3.4399,3.4399,3.4399,3.4399,3.4399,3.437,3.4399,3.3703,3.2658,3.3873,3.4399,3.4399,3.4399,3.4399,3.4399,3.4399,3.4399,3.4399,3.4399,3.4399,3.4399,3.4399,3.4399,3.4399,3.4399,3.4399,3.4545,3.5247,3.5822,3.646,3.7157,3.7767,3.8202,3.8202,3.8202,3.8202,3.8202,3.8202,3.8028,3.7447,3.7796,3.7999,3.7418,3.7796,3.8202,3.8231,3.8231,3.8231,3.826,3.8231,3.8231,3.8231,3.8202,3.797,3.736,3.6722,3.6054,3.545,3.5421,3.5131,3.4486,3.4692,3.4517,3.3848,3.3507,3.3129,3.2739,3.2704,3.2525,3.2191,3.1948,3.1336,2.9804,0.0,0.0,0.0,0.0,0.0,3.3837,3.4827,3.5614,3.5955,3.6704,3.7476,3.8086,3.8202,3.8202,3.8277,3.9165,3.9962,4.0362,4.1214,4.1952,4.2287,4.1705,4.1165,4.0949,4.0275,3.9596,3.8957,3.9102,3.8347,3.6402,3.5444,3.4777,3.4428,3.4399,3.4196,3.3765,3.4196,3.4196,3.3765,3.4196,3.4399,3.4399,3.4399,3.4167,3.3794,3.4225,3.3964,3.3267,3.408,3.4399,3.4399,3.4399,3.4399,3.4399,3.4399,3.4399,3.4399,3.4399,3.4399,3.4399,3.4399,3.4399,3.4399,3.4399,3.4399,3.4632,3.5735,3.617,3.6548,3.768,3.8086,3.8202,3.8202,3.8202,3.8202,3.8202,3.8202,3.8144,3.7999,3.7738,3.7651,3.7912,3.7738,3.7854,3.8783,3.8928,3.9073,3.9509,3.9189,3.8928,3.8928,3.8492,3.797,3.736,3.7128,3.6751,3.6083,3.6054,3.5967,3.5793,3.5433,3.5027,3.4511,3.3978,3.3479,3.3129,3.2846,3.2632,3.2561,3.2502,3.216,2.9804,2.9804,3.0021,3.1099,0.0,0.0,3.2673,3.3428,3.4048,3.4613,3.5402,3.6192,3.6831,3.7436,3.7825,3.7825,3.8693,3.9653,4.0373,4.0901,4.1538,4.257,4.1938,4.1397,4.1397,4.0848,4.0147,3.9276,3.9189,3.8231,3.6025,3.4951,3.4399,3.4399,3.4399,3.4109,3.3503,3.3848,3.3848,3.3503,3.3848,3.4167,3.4399,3.4399,3.4225,3.3877,3.4254,3.4196,3.3877,3.4254,3.4399,3.4399,3.4399,3.4399,3.4399,3.4399,3.4399,3.4399,3.4399,3.4399,3.4399,3.4399,3.4399,3.4399,3.4399,3.4603,3.4951,3.5706,3.6315,3.6954,3.7941,3.8202,3.8202,3.8202,3.8202,3.8202,3.8202,3.8434,3.8522,3.826,3.8144,3.8115,3.8202,3.8347,3.8638,3.9131,3.9421,3.9712,4.006,3.9799,3.9567,3.9567,3.9218,3.8754,3.8144,3.7854,3.7418,3.678,3.6722,3.6606,3.6315,3.6228,3.5954,3.5446,3.5037,3.4517,3.391,3.341,3.3164,3.3164,3.2846,3.2596,2.9804,2.9804,2.9905,3.0407,3.0701,0.0,3.215,3.2239,3.237,3.3539,3.391,3.4321,3.5142,3.6319,3.7192,3.7302,3.8318,3.9412,4.0247,4.049,4.1027,4.2372,4.1887,4.1474,4.1474,4.1313,4.067,3.9392,3.9044,3.7883,3.5625,3.4806,3.4399,3.4399,3.4399,3.408,3.3416,3.3474,3.3445,3.3271,3.3445,3.3794,3.4312,3.437,3.4399,3.4399,3.4341,3.4341,3.4399,3.4341,3.4341,3.4399,3.4399,3.4399,3.4399,3.4399,3.4399,3.4399,3.4399,3.4399,3.4399,3.4399,3.4399,3.4399,3.4399,3.4864,3.5421,3.5566,3.646,3.7535,3.8057,3.8202,3.8202,3.8202,3.8202,3.8202,3.8202,3.8667,3.8928,3.8405,3.8841,3.9102,3.8522,3.9363,3.9944,3.9479,3.9857,4.0234,4.0321,4.0263,4.0205,4.0205,4.0147,3.9886,3.9363,3.8754,3.8173,3.7651,3.7564,3.7244,3.6664,3.707,3.7041,3.6431,3.6344,3.5848,3.4953,3.4168,3.3785,3.3722,3.3094,3.281,2.9804,2.9804,2.9829,2.993,3.0298,0.0,3.0429,3.1099,3.1882,3.2234,3.2788,3.378,3.5592,3.6128,3.6541,3.7192,3.7912,3.8638,3.9344,4.0342,4.1098,4.1372,4.1738,4.1971,4.1971,4.193,4.1337,4.0031,3.8028,3.6664,3.6141,3.5038,3.4399,3.4399,3.4399,3.3848,3.2716,3.3242,3.298,3.1903,3.298,3.3561,3.3707,3.4196,3.4399,3.437,3.3877,3.3935,3.437,3.3877,3.3964,3.4399,3.4399,3.4399,3.4399,3.4399,3.4399,3.4399,3.4399,3.4399,3.4399,3.4399,3.4399,3.4399,3.4399,3.4864,3.5625,3.6635,3.7447,3.8057,3.8173,3.8202,3.8202,3.8202,3.8202,3.8202,3.8202,3.8289,3.8522,3.8928,3.9509,3.9886,3.9741,3.9944,4.0234,4.067,4.0815,4.1105,4.1628,4.1221,4.0902,4.0902,4.0408,4.006,3.9915,3.9799,3.9683,3.9567,3.9102,3.8783,3.8638,3.7767,3.7244,3.7128,3.6577,3.6193,3.6006,3.4536,3.3652,3.3409,3.3514,3.3444,2.9804,2.9804,2.9854,3.0131,3.0206,0.0,0.0,3.0494,3.0778,3.0855,3.1415,3.2289,3.3295,3.4091,3.492,3.6065,3.6527,3.7155,3.8513,3.9799,4.0728,4.1047,4.1686,4.2092,4.2092,4.2092,4.1424,3.977,3.7883,3.6519,3.5915,3.4922,3.4399,3.4399,3.4399,3.3964,3.3006,3.3006,3.2658,3.1988,3.2687,3.3184,3.3532,3.4109,3.4254,3.3906,3.3649,3.3678,3.3906,3.362,3.3848,3.4399,3.4399,3.4399,3.4399,3.4399,3.4399,3.4399,3.4399,3.4399,3.4399,3.4399,3.4632,3.4893,3.4893,3.5561,3.6519,3.7476,3.797,3.8202,3.8202,3.8202,3.8202,3.8202,3.8202,3.8202,3.8202,3.8463,3.8812,3.9131,3.9973,4.0495,4.0147,4.0379,4.0699,4.1047,4.1366,4.1715,4.2063,4.1802,4.1599,4.1599,4.1308,4.096,4.0612,4.0583,4.0466,4.0118,3.9828,3.9654,3.9654,3.9044,3.8551,3.826,3.7302,3.6809,3.6809,3.561,3.4944,3.4803,3.4454,3.4377,3.008,3.0105,3.0181,3.0532,3.0357,3.0156,0.0,0.0,0.0,2.9804,3.0266,3.0759,3.1052,3.2011,3.3271,3.4687,3.5208,3.5929,3.7555,3.9025,4.0176,4.0815,4.1279,4.1686,4.2063,4.186,4.1105,3.9683,3.8173,3.6838,3.5828,3.5009,3.4545,3.4399,3.4399,3.4109,3.3503,3.2832,3.2481,3.2481,3.2365,3.2716,3.3532,3.3993,3.4022,3.3678,3.3416,3.3445,3.3678,3.3416,3.3732,3.4399,3.4399,3.4399,3.4399,3.4399,3.4399,3.4399,3.4399,3.4399,3.4399,3.4399,3.4835,3.5421,3.5537,3.6373,3.7447,3.8028,3.8202,3.8202,3.8202,3.8202,3.8202,3.8202,3.8202,3.8202,3.8202,3.8638,3.9044,3.9189,3.9915,4.0495,4.0321,4.0844,4.1279,4.1279,4.1744,4.2092,4.2092,4.2092,4.2092,4.2092,4.2092,4.1889,4.1337,4.1279,4.1047,4.0525,4.035,4.0292,4.0292,4.0176,3.9857,3.9392,3.8376,3.7796,3.768,3.6983,3.6548,3.6286,3.5481,3.5397,3.1085,3.121,3.111,3.0708,3.0909,3.0984,3.008,0.0,3.0382,2.9905,0.0,3.0292,3.1562,0.0,0.0,3.3848,3.5131,3.608,3.6221,3.8007,3.9538,4.0147,3.9799,4.0205,4.1918,4.1018,4.0466,4.0844,3.8667,3.7244,3.7099,3.5944,3.498,3.4428,3.4399,3.4109,3.3503,3.2832,3.2481,3.2481,3.1901,3.228,3.3503,3.3561,3.3848,3.4225,3.3122,3.3267,3.4225,3.3093,3.3325,3.4399,3.4399,3.4399,3.4399,3.4399,3.4399,3.4399,3.4399,3.4399,3.4399,3.4399,3.4835,3.5508,3.6025,3.6722,3.7447,3.8028,3.8202,3.8202,3.8202,3.8202,3.8202,3.8202,3.8202,3.8202,3.8202,3.826,3.8492,3.9073,3.8841,3.9044,4.0699,4.1541,4.1976,4.1976,4.2063,4.2092,4.2092,4.2092,4.2092,4.2092,4.2092,4.2063,4.1976,4.1976,4.1947,4.1889,4.1308,4.0989,4.0989,4.0408,4.006,4.0002,3.9857,3.9509,3.8986,3.8318,3.7418,3.6315,3.6193,3.6157,3.1336,3.116,3.0959,3.1035,3.0758,3.0432,3.0306,3.0206,3.008,2.9854,0.0,0.0,0.0,0.0,0.0,0.0,3.3185,3.4028,3.5358,3.5929,3.7071,3.9325,3.9654,4.0031,4.0844,4.0437,4.006,4.0002,3.8638,3.7506,3.678,3.5886,3.5101,3.4428,3.4399,3.4283,3.4022,3.3383,3.3064,3.3064,3.2774,3.298,3.3503,3.3848,3.3964,3.3819,3.2919,3.3035,3.379,3.289,3.3267,3.4399,3.4399,3.4399,3.4399,3.4399,3.4399,3.4399,3.4399,3.4399,3.4545,3.527,3.5706,3.6112,3.7099,3.7593,3.7883,3.8144,3.8492,3.8783,3.8783,3.9044,3.9218,3.887,3.9044,3.9102,3.8347,3.8522,3.8754,3.8638,3.8725,3.916,4.0321,4.0757,4.1076,4.1453,4.186,4.2092,4.2092,4.2092,4.2092,4.2092,4.2092,4.2092,4.2092,4.2092,4.2092,4.2092,4.1831,4.1686,4.1686,4.1047,4.067,4.067,4.0292,3.9973,3.9712,3.945,3.9015,3.8492,3.7389,3.707,3.1537,3.1336,3.111,3.1336,3.0809,3.0256,3.0357,3.0206,3.0005,3.0005,3.0131,0.0,0.0,0.0,3.0567,3.1617,0.0,3.2629,3.4486,3.4473,3.5442,3.8553,3.977,4.0292,4.0118,4.0089,3.9915,3.9479,3.8522,3.7476,3.6373,3.5741,3.5101,3.4428,3.4399,3.4399,3.4399,3.3823,3.359,3.3765,3.3416,3.3416,3.3765,3.4022,3.3993,3.3703,3.3064,3.3122,3.3707,3.3035,3.3412,3.4399,3.4399,3.4399,3.4399,3.4399,3.4399,3.4399,3.4399,3.4516,3.4835,3.5735,3.6286,3.6751,3.768,3.8057,3.8231,3.8434,3.8812,3.9247,3.9392,3.977,3.9973,3.9538,3.977,3.9857,3.8928,3.8957,3.9102,3.8783,3.8841,3.9189,3.9973,4.0263,4.0583,4.1279,4.1773,4.2092,4.2092,4.2092,4.2092,4.2092,4.2092,4.2092,4.2092,4.2092,4.2092,4.2092,4.2092,4.2092,4.2092,4.1628,4.1366,4.1366,4.0902,4.0554,4.0379,4.0379,4.0263,4.006,3.8696,3.8231,3.1913,3.2164,3.2039,3.1512,3.1361,3.106,3.0055,3.0206,3.0583,3.0583,3.0984,3.1336,3.1336,3.1336,3.1336,3.1402,3.2103,0.0,0.0,3.4272,3.5626,3.7956,3.9915,4.0815,4.0147,4.0089,4.0089,4.006,3.8376,3.7041,3.6344,3.5741,3.5101,3.4428,3.4399,3.4399,3.4399,3.3823,3.3794,3.437,3.3122,3.318,3.437,3.3794,3.3819,3.4341,3.3703,3.379,3.4341,3.3736,3.3819,3.4399,3.4399,3.4399,3.4399,3.4399,3.4399,3.4399,3.4399,3.4806,3.5363,3.5421,3.6257,3.7273,3.7331,3.7738,3.8347,3.8986,3.9189,3.9334,3.9915,4.0089,4.0089,4.0089,4.0089,4.0089,4.0031,3.9596,3.9363,3.9915,3.9073,3.8638,3.9886,4.0641,4.1308,4.1976,4.2092,4.2092,4.2092,4.2092,4.2092,4.2092,4.2092,4.2092,4.2092,4.2092,4.2092,4.2092,4.2092,4.2092,4.2092,4.2063,4.2063,4.2063,4.2034,4.1715,4.1076,4.1076,4.0728,4.0089,4.0031,3.9712,3.1562,3.1411,3.1185,3.1361,3.0859,3.0331,3.0331,3.0482,3.0608,3.0608,3.1035,3.1386,3.1386,3.1386,3.1386,3.1386,3.1934,3.2495,0.0,3.3619,3.464,3.5748,3.8243,3.9567,3.8899,3.8841,3.8667,3.8289,3.7244,3.6373,3.5741,3.5508,3.5101,3.4428,3.4399,3.4399,3.4399,3.4196,3.4196,3.4366,3.3964,3.396,3.4399,3.4196,3.4225,3.437,3.3765,3.3819,3.437,3.3765,3.3848,3.4399,3.4399,3.4399,3.4399,3.4399,3.4399,3.4457,3.4893,3.5444,3.6054,3.6489,3.6954,3.7389,3.7767,3.8057,3.8347,3.9015,3.9479,3.9944,4.0583,4.1076,4.1308,4.0873,4.1105,4.1163,4.0292,4.0292,4.0263,3.9625,3.916,3.9015,3.9421,3.9683,4.006,4.067,4.1541,4.1947,4.1482,4.1831,4.2092,4.2092,4.2092,4.2092,4.2092,4.2092,4.2092,4.2092,4.2092,4.2092,4.2092,4.2092,4.2092,4.2092,4.2092,4.1976,4.1773,4.1773,4.1657,4.1424,4.1424,4.0844,3.106,3.0859,3.0683,3.1035,3.0608,3.0181,3.0532,3.0758,3.0884,3.0884,3.1486,3.1863,3.1461,3.1712,3.1863,3.1461,3.1863,3.218,0.0,3.3291,3.4125,3.4246,3.6766,3.8285,3.7777,3.8216,3.8115,3.7041,3.6548,3.5938,3.5101,3.5038,3.4835,3.4428,3.4399,3.4399,3.4399,3.4399,3.4399,3.4399,3.4399,3.4399,3.4399,3.4399,3.4399,3.4399,3.3993,3.4022,3.437,3.3964,3.4051,3.4399,3.4399,3.4399,3.4399,3.4399,3.4545,3.4806,3.5247,3.5938,3.6722,3.7157,3.7447,3.7709,3.8086,3.8376,3.8638,3.9073,3.9625,4.0263,4.0931,4.1424,4.1686,4.1482,4.1773,4.186,4.0989,4.0786,4.0641,4.0292,3.9683,3.9334,3.9799,3.9683,3.9654,4.0031,4.0844,4.1221,4.0786,4.1337,4.1744,4.1744,4.1947,4.2092,4.2092,4.2092,4.2092,4.2092,4.2092,4.2092,4.2092,4.2092,4.2092,4.2092,4.2092,4.2092,4.2092,4.2092,4.2092,4.2092,4.2092,4.1628]}]]